[[{"header":{"parameterUnit":"m.s-1","parameterCategory":1,"la1":30.6,"la2":29.2853,"lo1":-89.7004,"lo2":-87.6739,"dx":0.0162,"dy":0.0183,"nx":112,"ny":82,"refTime":"2022-12-24T18:00:00:Z","depth":0,"parameterNumber":2,"parameterNumberName":"U-component_of_WINDS"},"data":[0.0,0.0,0.0,0.0,0.0,0.0,0.0,0.0,0.0,0.0,0.0,0.0,0.0,0.0,0.0,0.0,0.0,0.0,0.0,0.0,0.0,0.0,0.0,0.0,0.0,0.0,0.0,0.0,0.0,0.0,0.0,0.0,0.0,0.0,0.0,0.0,0.0,0.0,0.0,0.0,0.0,0.0,0.0,0.0,0.0,0.0,0.0,0.0,0.0,0.0,0.0,0.0,0.0,0.0,0.0,0.0,0.0,0.0,0.0,0.0,0.0,0.0,0.0,0.0,0.0,0.0,0.0,0.0,0.0,0.0,0.0,0.0,0.0,0.0,0.0,0.0,0.0,0.0,0.0,0.0,0.0,0.0,0.0,0.0,0.0,0.0,0.0,0.0,0.0,0.0,4.9999,5.0667,5.7912,6.4076,6.7232,6.6046,6.1732,5.3689,0.0,0.0,0.0,0.0,0.0,0.0,0.0,0.0,0.0,0.0,0.0,0.0,0.0,0.0,0.0,0.0,0.0,0.0,0.0,0.0,0.0,0.0,0.0,0.0,0.0,0.0,0.0,0.0,0.0,0.0,0.0,0.0,0.0,0.0,0.0,0.0,0.0,0.0,0.0,0.0,0.0,0.0,0.0,0.0,0.0,0.0,0.0,0.0,0.0,0.0,0.0,0.0,0.0,0.0,0.0,0.0,0.0,0.0,0.0,0.0,0.0,0.0,0.0,0.0,0.0,0.0,0.0,0.0,0.0,0.0,0.0,0.0,0.0,0.0,0.0,0.0,0.0,0.0,0.0,0.0,0.0,0.0,0.0,0.0,0.0,0.0,0.0,0.0,0.0,0.0,0.0,0.0,0.0,0.0,0.0,0.0,0.0,0.0,0.0,0.0,0.0,0.0,0.0,0.0,4.9711,5.7548,6.1384,6.4717,6.8046,6.6769,6.2248,5.3763,0.0,0.0,0.0,0.0,0.0,0.0,0.0,0.0,0.0,0.0,0.0,0.0,0.0,0.0,0.0,0.0,0.0,0.0,0.0,0.0,0.0,0.0,0.0,0.0,0.0,0.0,0.0,0.0,0.0,0.0,0.0,0.0,0.0,0.0,0.0,0.0,0.0,0.0,0.0,0.0,0.0,0.0,0.0,0.0,0.0,0.0,0.0,0.0,0.0,0.0,0.0,0.0,0.0,0.0,0.0,0.0,0.0,0.0,0.0,0.0,0.0,0.0,0.0,0.0,0.0,0.0,0.0,0.0,0.0,0.0,0.0,0.0,0.0,0.0,0.0,0.0,0.0,0.0,0.0,0.0,0.0,0.0,0.0,0.0,0.0,0.0,0.0,0.0,0.0,0.0,0.0,0.0,0.0,0.0,0.0,0.0,0.0,0.0,0.0,0.0,0.0,0.0,0.0,4.634,5.235,6.1612,6.3463,6.5627,6.9388,6.8646,6.4269,5.5705,5.0748,0.0,0.0,0.0,0.0,0.0,0.0,0.0,0.0,0.0,0.0,0.0,0.0,0.0,0.0,0.0,0.0,0.0,0.0,0.0,0.0,0.0,0.0,0.0,0.0,0.0,0.0,0.0,0.0,0.0,0.0,0.0,0.0,0.0,0.0,0.0,0.0,0.0,0.0,0.0,0.0,0.0,0.0,0.0,0.0,0.0,0.0,0.0,0.0,0.0,0.0,0.0,0.0,0.0,0.0,0.0,0.0,0.0,0.0,0.0,0.0,0.0,0.0,0.0,0.0,0.0,0.0,0.0,0.0,0.0,0.0,0.0,0.0,0.0,0.0,0.0,0.0,0.0,0.0,0.0,0.0,0.0,0.0,0.0,0.0,0.0,0.0,0.0,0.0,0.0,0.0,0.0,0.0,0.0,0.0,0.0,0.0,0.0,0.0,0.0,0.0,0.0,0.0,5.1048,5.6021,6.3768,6.5087,6.693,7.0729,7.0344,6.6225,5.7647,5.2711,0.0,0.0,0.0,0.0,0.0,0.0,0.0,0.0,0.0,0.0,0.0,0.0,0.0,0.0,0.0,0.0,0.0,0.0,0.0,0.0,0.0,0.0,0.0,0.0,0.0,0.0,0.0,0.0,0.0,0.0,0.0,0.0,0.0,0.0,0.0,0.0,0.0,0.0,0.0,0.0,0.0,0.0,0.0,0.0,0.0,0.0,0.0,0.0,0.0,0.0,0.0,0.0,0.0,0.0,0.0,0.0,0.0,0.0,0.0,0.0,0.0,0.0,0.0,0.0,0.0,0.0,0.0,0.0,0.0,0.0,0.0,0.0,0.0,0.0,0.0,0.0,0.0,0.0,0.0,0.0,0.0,0.0,0.0,0.0,0.0,0.0,0.0,0.0,0.0,0.0,0.0,0.0,0.0,0.0,0.0,0.0,0.0,0.0,0.0,0.0,0.0,0.0,5.3281,6.0047,6.4174,6.644,6.8816,7.1685,7.1195,6.7046,5.8454,5.4069,0.0,0.0,0.0,0.0,0.0,0.0,0.0,0.0,0.0,0.0,0.0,0.0,0.0,0.0,0.0,0.0,0.0,0.0,0.0,0.0,0.0,0.0,0.0,0.0,0.0,0.0,0.0,0.0,0.0,0.0,0.0,0.0,0.0,0.0,0.0,0.0,0.0,0.0,0.0,0.0,0.0,0.0,0.0,0.0,0.0,0.0,0.0,0.0,0.0,0.0,0.0,0.0,0.0,0.0,0.0,0.0,0.0,0.0,0.0,0.0,0.0,0.0,0.0,0.0,0.0,0.0,0.0,0.0,0.0,0.0,0.0,0.0,0.0,0.0,0.0,0.0,0.0,0.0,0.0,0.0,0.0,0.0,0.0,0.0,0.0,0.0,0.0,0.0,0.0,0.0,0.0,0.0,0.0,0.0,0.0,0.0,0.0,0.0,0.0,0.0,0.0,0.0,5.2469,5.9191,6.6804,6.8395,7.0201,7.3368,7.2863,6.8543,5.9296,0.0,0.0,0.0,0.0,0.0,0.0,0.0,0.0,0.0,0.0,0.0,0.0,0.0,0.0,0.0,0.0,0.0,0.0,0.0,0.0,0.0,0.0,0.0,0.0,0.0,0.0,0.0,0.0,0.0,0.0,0.0,0.0,0.0,0.0,0.0,0.0,0.0,0.0,0.0,0.0,0.0,0.0,0.0,0.0,0.0,0.0,0.0,0.0,0.0,0.0,0.0,0.0,0.0,0.0,0.0,0.0,0.0,0.0,0.0,0.0,0.0,0.0,0.0,0.0,0.0,0.0,0.0,0.0,0.0,0.0,0.0,0.0,0.0,0.0,0.0,0.0,0.0,0.0,0.0,0.0,0.0,0.0,0.0,0.0,0.0,0.0,0.0,0.0,0.0,0.0,0.0,0.0,0.0,0.0,0.0,0.0,0.0,0.0,0.0,0.0,0.0,0.0,4.6989,5.3281,6.0154,6.8215,6.9792,7.1371,7.432,7.3843,6.943,6.0188,0.0,0.0,0.0,0.0,0.0,0.0,0.0,0.0,0.0,0.0,0.0,0.0,0.0,0.0,0.0,0.0,0.0,0.0,0.0,0.0,0.0,0.0,0.0,0.0,0.0,0.0,0.0,0.0,0.0,0.0,0.0,0.0,0.0,0.0,0.0,0.0,0.0,0.0,0.0,0.0,0.0,0.0,0.0,0.0,0.0,0.0,0.0,0.0,0.0,0.0,0.0,0.0,0.0,0.0,0.0,0.0,0.0,0.0,0.0,0.0,0.0,0.0,0.0,0.0,0.0,0.0,0.0,0.0,0.0,0.0,0.0,0.0,0.0,0.0,0.0,0.0,0.0,0.0,0.0,0.0,0.0,0.0,0.0,0.0,0.0,0.0,0.0,0.0,0.0,0.0,0.0,0.0,0.0,0.0,0.0,0.0,0.0,0.0,0.0,0.0,0.0,0.0,4.7327,5.6359,6.3903,6.7834,7.0268,7.2493,7.4392,7.3874,6.9709,0.0,0.0,0.0,0.0,0.0,0.0,0.0,0.0,0.0,0.0,0.0,0.0,0.0,0.0,0.0,0.0,0.0,0.0,0.0,0.0,0.0,0.0,0.0,0.0,0.0,0.0,0.0,0.0,0.0,0.0,0.0,0.0,0.0,0.0,0.0,0.0,0.0,0.0,0.0,0.0,0.0,0.0,0.0,0.0,0.0,0.0,0.0,0.0,0.0,0.0,0.0,0.0,0.0,0.0,0.0,0.0,0.0,0.0,0.0,0.0,0.0,0.0,0.0,0.0,0.0,0.0,0.0,0.0,0.0,0.0,0.0,0.0,0.0,0.0,0.0,0.0,0.0,0.0,0.0,0.0,0.0,0.0,0.0,0.0,0.0,0.0,0.0,0.0,0.0,0.0,0.0,0.0,0.0,0.0,0.0,0.0,0.0,0.0,0.0,0.0,0.0,0.0,0.0,4.8714,5.7158,6.4554,6.9593,7.1339,7.2853,7.465,7.408,6.9315,5.9355,0.0,0.0,0.0,0.0,0.0,0.0,0.0,0.0,0.0,0.0,0.0,0.0,0.0,0.0,0.0,0.0,0.0,0.0,0.0,0.0,0.0,0.0,0.0,0.0,0.0,0.0,0.0,0.0,0.0,0.0,0.0,0.0,0.0,0.0,0.0,0.0,0.0,0.0,0.0,0.0,0.0,0.0,0.0,0.0,0.0,0.0,0.0,0.0,0.0,0.0,0.0,0.0,0.0,0.0,0.0,0.0,0.0,0.0,0.0,0.0,0.0,0.0,0.0,0.0,0.0,0.0,0.0,0.0,0.0,0.0,0.0,0.0,0.0,0.0,0.0,0.0,0.0,0.0,0.0,0.0,0.0,0.0,0.0,0.0,0.0,0.0,0.0,0.0,0.0,0.0,0.0,0.0,0.0,0.0,0.0,0.0,0.0,0.0,0.0,0.0,0.0,0.0,4.9486,5.8317,6.5689,6.9991,7.1538,7.289,7.4308,7.3964,7.0036,6.1447,0.0,0.0,0.0,0.0,0.0,0.0,0.0,0.0,0.0,0.0,0.0,0.0,0.0,0.0,0.0,0.0,0.0,0.0,0.0,0.0,0.0,0.0,0.0,0.0,0.0,0.0,0.0,0.0,0.0,0.0,0.0,0.0,0.0,0.0,0.0,0.0,0.0,0.0,0.0,0.0,0.0,0.0,0.0,0.0,0.0,0.0,0.0,0.0,0.0,0.0,0.0,0.0,0.0,0.0,0.0,0.0,0.0,0.0,0.0,0.0,0.0,0.0,0.0,0.0,0.0,0.0,0.0,0.0,0.0,0.0,0.0,0.0,0.0,0.0,0.0,0.0,0.0,0.0,0.0,0.0,0.0,0.0,0.0,0.0,0.0,0.0,0.0,0.0,0.0,0.0,0.0,0.0,0.0,0.0,0.0,0.0,0.0,0.0,0.0,0.0,0.0,0.0,5.0073,5.9744,6.7224,6.96,7.1314,7.2699,7.3612,7.3634,7.1211,6.5668,0.0,0.0,0.0,0.0,0.0,0.0,0.0,0.0,0.0,0.0,0.0,0.0,0.0,0.0,0.0,0.0,0.0,0.0,0.0,0.0,0.0,0.0,0.0,0.0,0.0,0.0,0.0,0.0,0.0,0.0,0.0,0.0,0.0,0.0,0.0,0.0,0.0,0.0,0.0,0.0,0.0,0.0,0.0,0.0,0.0,0.0,0.0,0.0,0.0,0.0,0.0,0.0,0.0,0.0,0.0,0.0,0.0,0.0,0.0,0.0,4.1965,3.881,0.0,0.0,0.0,0.0,0.0,0.0,0.0,0.0,0.0,0.0,0.0,0.0,0.0,0.0,0.0,0.0,0.0,0.0,0.0,0.0,0.0,0.0,0.0,0.0,0.0,0.0,0.0,0.0,0.0,0.0,0.0,0.0,0.0,0.0,0.0,0.0,0.0,0.0,0.0,0.0,5.2483,6.1422,6.8274,7.0548,7.1816,7.2797,7.3634,7.312,7.0624,6.5632,6.1998,0.0,0.0,0.0,0.0,0.0,0.0,0.0,0.0,0.0,0.0,0.0,0.0,0.0,0.0,0.0,0.0,0.0,0.0,0.0,0.0,0.0,0.0,0.0,0.0,0.0,0.0,0.0,0.0,0.0,0.0,0.0,0.0,0.0,0.0,0.0,0.0,0.0,0.0,0.0,0.0,0.0,0.0,0.0,0.0,0.0,0.0,0.0,0.0,0.0,0.0,0.0,0.0,0.0,0.0,0.0,0.0,0.0,0.0,0.0,4.5993,4.3424,0.0,0.0,0.0,0.0,0.0,0.0,0.0,0.0,0.0,0.0,0.0,0.0,0.0,0.0,0.0,0.0,0.0,0.0,0.0,0.0,0.0,0.0,0.0,0.0,0.0,0.0,0.0,0.0,0.0,0.0,0.0,0.0,0.0,0.0,0.0,0.0,0.0,0.0,0.0,0.0,5.3823,6.3167,6.9999,7.1521,7.2863,7.3817,7.4258,7.3891,7.2275,6.8972,6.464,0.0,0.0,0.0,0.0,0.0,0.0,0.0,0.0,0.0,0.0,0.0,0.0,0.0,0.0,0.0,0.0,0.0,0.0,0.0,0.0,0.0,0.0,0.0,0.0,0.0,0.0,0.0,0.0,0.0,0.0,0.0,0.0,0.0,0.0,0.0,0.0,0.0,0.0,0.0,0.0,0.0,0.0,0.0,0.0,0.0,0.0,0.0,0.0,0.0,0.0,0.0,0.0,0.0,5.1096,5.205,5.2894,5.2894,5.3995,5.5611,5.0875,4.9407,5.0031,4.6067,0.0,0.0,0.0,0.0,0.0,0.0,0.0,0.0,0.0,0.0,0.0,0.0,0.0,0.0,0.0,0.0,0.0,0.0,0.0,0.0,0.0,0.0,5.196,5.27,5.5023,5.5448,4.9628,0.0,0.0,0.0,0.0,0.0,0.0,0.0,0.0,0.0,0.0,0.0,5.6044,6.5163,7.1655,7.2645,7.4019,7.4955,7.5102,7.4992,7.4404,7.3193,6.7687,6.3579,0.0,0.0,0.0,0.0,0.0,0.0,0.0,0.0,0.0,0.0,0.0,0.0,0.0,0.0,0.0,0.0,0.0,0.0,0.0,0.0,0.0,0.0,0.0,0.0,0.0,0.0,0.0,0.0,0.0,0.0,0.0,0.0,4.1902,4.2697,0.0,0.0,0.0,0.0,0.0,0.0,0.0,0.0,0.0,0.0,0.0,0.0,0.0,4.8556,5.1051,5.3286,5.5163,5.6748,5.8951,6.0419,6.1227,6.1227,6.141,6.1667,6.0896,0.0,5.3702,5.3078,0.0,0.0,0.0,0.0,0.0,0.0,0.0,0.0,0.0,0.0,0.0,0.0,0.0,0.0,0.0,0.0,0.0,0.0,0.0,0.0,0.0,0.0,6.2828,6.1508,6.2108,6.2511,6.0885,5.4342,4.8364,4.6735,4.6364,4.4813,0.0,0.0,0.0,0.0,0.0,0.0,6.2071,6.7824,7.2144,7.4299,7.4785,7.5175,7.5873,7.5322,7.5139,7.5579,7.2863,6.9024,6.4187,6.1419,0.0,0.0,0.0,0.0,0.0,0.0,0.0,0.0,0.0,0.0,0.0,0.0,0.0,0.0,0.0,0.0,0.0,0.0,0.0,0.0,0.0,0.0,0.0,0.0,0.0,0.0,0.0,0.0,0.0,3.9902,4.2376,4.5187,4.2983,4.0863,0.0,0.0,0.0,0.0,0.0,0.0,0.0,0.0,0.0,5.2023,5.3176,5.4913,5.7373,5.9355,6.0713,6.1447,6.2952,6.387,6.4237,6.4237,6.4237,6.4237,6.4677,6.3209,6.0346,5.807,5.5354,5.2491,0.0,0.0,0.0,0.0,4.8893,4.9224,5.2197,5.4583,5.5757,5.2417,0.0,0.0,0.0,0.0,0.0,0.0,0.0,5.4179,5.7886,6.0676,6.3062,6.5081,6.5485,6.5448,6.5521,6.2475,5.8354,5.3749,5.2096,4.9737,4.4321,4.5616,0.0,0.0,0.0,5.9168,6.4279,6.9449,7.3413,7.5359,7.5983,7.6387,7.6754,7.646,7.624,7.6093,7.4258,7.1892,6.9131,6.4694,5.9251,0.0,0.0,0.0,0.0,0.0,0.0,0.0,0.0,0.0,0.0,0.0,0.0,0.0,0.0,0.0,0.0,0.0,0.0,0.0,0.0,0.0,0.0,0.0,0.0,0.0,0.0,0.0,0.0,4.258,4.459,4.7936,4.6617,4.4601,0.0,0.0,0.0,0.0,0.0,0.0,5.0247,5.1632,5.4032,5.7666,5.8951,6.0529,6.2511,6.398,6.4714,6.4714,6.5521,6.6035,6.6219,6.6219,6.6329,6.6586,6.7173,6.7063,6.6256,6.2585,6.0236,5.8694,5.6271,5.4252,5.2858,5.4473,5.4803,5.495,5.8364,6.1006,6.2291,5.8877,5.774,5.6932,5.2894,0.0,0.0,0.0,0.0,5.7483,6.152,6.2879,6.4053,6.7504,6.8017,6.7834,6.8238,6.7981,6.6072,6.0639,5.8621,5.6153,5.0895,5.2207,0.0,5.2426,5.7572,6.2876,6.6714,7.1048,7.4331,7.5946,7.6827,7.7304,7.7304,7.7304,7.7047,7.646,7.4882,7.3744,7.3156,6.8044,6.3603,6.0077,0.0,0.0,0.0,0.0,0.0,0.0,0.0,0.0,0.0,0.0,0.0,0.0,0.0,0.0,0.0,0.0,0.0,0.0,0.0,0.0,0.0,0.0,0.0,0.0,0.0,0.0,0.0,0.0,0.0,5.1752,5.2968,0.0,0.0,0.0,0.0,4.9038,5.2087,5.4987,5.7327,5.8988,6.1043,6.3576,6.3723,6.42,6.5118,6.5962,6.6366,6.6402,6.7173,6.7981,6.8715,6.8715,6.9155,6.9853,6.9889,6.9889,6.9669,6.7173,6.4273,6.141,6.1227,5.9722,5.7813,5.9428,6.0493,6.1374,6.3172,6.4861,6.5962,6.4237,6.0566,5.6969,5.7446,5.5464,0.0,0.0,6.1153,6.3319,6.743,6.9633,7.0624,7.011,7.055,7.0881,7.0146,6.8752,6.7577,6.721,6.7063,6.582,6.1858,0.0,6.1623,6.2175,6.2695,6.5214,7.1195,7.2972,7.4331,7.5946,7.6827,7.7304,7.7304,7.7304,7.7304,7.7268,7.5763,7.4845,7.4808,7.2754,6.9183,6.3911,6.0619,0.0,0.0,0.0,0.0,0.0,0.0,0.0,0.0,0.0,0.0,0.0,0.0,0.0,0.0,0.0,0.0,0.0,0.0,0.0,0.0,0.0,0.0,0.0,0.0,0.0,0.0,0.0,0.0,5.4869,5.6051,0.0,5.4693,5.4546,5.4876,5.5684,5.7776,5.9869,6.1814,6.2475,6.3576,6.5286,6.538,6.6203,6.7834,6.8147,6.8477,6.8825,6.9119,6.9376,6.9669,6.9669,6.9816,7.011,7.011,7.011,7.0036,6.9155,6.8128,6.7063,6.7063,6.5888,6.442,6.6035,6.5852,6.4971,6.6623,6.7907,6.8641,6.754,6.5668,6.3649,6.2915,6.2622,6.2879,6.4604,6.6256,6.7834,6.9302,7.011,7.0587,7.0844,7.1101,7.1358,7.1578,7.1615,7.1541,7.1541,6.9449,6.6753,6.3847,6.5477,6.6592,6.4766,6.7137,7.0339,7.3544,7.4702,7.5652,7.679,7.7157,7.7304,7.7304,7.7304,7.7304,7.7304,7.6276,7.5432,7.4918,7.3606,7.1789,6.9556,6.777,6.5619,0.0,0.0,0.0,0.0,0.0,0.0,0.0,0.0,0.0,0.0,0.0,0.0,0.0,0.0,0.0,0.0,0.0,0.0,0.0,0.0,0.0,0.0,0.0,0.0,0.0,0.0,5.5441,5.7363,5.9795,6.0713,5.9355,5.9979,6.0566,6.0823,6.2328,6.387,6.5228,6.5338,6.5873,6.7156,6.7176,6.8073,6.9835,6.9669,6.987,7.0513,7.0513,7.077,7.1321,7.1321,7.1468,7.1725,7.1725,7.1725,7.1725,7.1725,7.1725,7.1651,7.0807,6.9853,6.9082,7.0403,6.9889,6.8641,6.9449,6.9889,7.0,6.9486,6.8935,6.8311,6.7247,6.765,6.8495,6.8495,6.9449,7.0587,7.0844,7.1101,7.1505,7.2349,7.2532,7.2753,7.356,7.3927,7.4184,7.4441,7.2129,6.9633,6.8017,6.9963,7.0807,6.8128,7.0917,7.3523,7.4037,7.5285,7.6313,7.6864,7.7157,7.7304,7.7304,7.6827,7.6754,7.7304,7.6056,7.5432,7.5726,7.3462,7.2169,7.1926,7.1862,7.1465,7.0871,0.0,0.0,0.0,0.0,0.0,0.0,0.0,0.0,0.0,0.0,0.0,0.0,0.0,0.0,0.0,0.0,0.0,0.0,0.0,0.0,0.0,0.0,0.0,5.0949,5.5794,5.9391,5.9465,6.4383,6.6219,6.2291,6.4016,6.5118,6.4347,6.5705,6.6916,6.7724,6.7726,6.8239,6.9265,6.9338,6.9963,7.1029,7.0533,7.066,7.1431,7.1468,7.2275,7.3744,7.3744,7.4184,7.4918,7.4918,7.4918,7.4918,7.4918,7.4918,7.4698,7.2349,7.1431,7.1468,7.2275,7.2569,7.2422,7.1651,7.0881,7.022,7.022,7.022,7.022,7.0183,7.0183,7.022,7.022,7.0844,7.1651,7.2459,7.3193,7.3964,7.4808,7.4955,7.5175,7.6019,7.5579,7.5249,7.6056,7.5579,7.5028,7.4918,7.4918,7.4404,7.2863,7.3964,0.0,7.2899,7.4735,7.6203,7.6093,7.6827,7.7268,7.7268,7.5799,7.5616,7.7231,7.5102,7.4845,7.7194,7.2753,7.0438,7.0809,7.2661,7.2736,7.099,0.0,0.0,0.0,0.0,0.0,0.0,0.0,0.0,0.0,0.0,0.0,0.0,0.0,0.0,0.0,0.0,0.0,0.0,0.0,0.0,0.0,0.0,5.4289,5.4289,5.9171,6.3392,6.5154,6.776,6.9229,6.8715,6.8201,6.8054,6.8421,6.8311,6.8605,6.9376,6.9064,6.9191,6.9888,7.1007,7.2312,7.3787,7.4022,7.4096,7.3927,7.4515,7.4698,7.4588,7.5175,7.5249,7.4918,7.4918,7.4918,7.4918,7.4918,7.4918,7.4845,7.4184,7.356,7.3156,7.3964,7.3891,7.334,7.312,7.2899,7.2716,7.2716,7.2716,7.2606,7.2018,7.2239,7.2826,7.3413,7.4147,7.4992,7.5799,7.5726,7.5652,7.646,7.6203,7.6166,7.7598,7.7745,7.7818,7.8626,7.8589,7.7708,7.5322,7.4918,7.4955,7.5102,7.5983,7.6717,7.69,7.8002,7.8075,7.6276,7.6313,7.6203,7.5616,7.5175,7.5616,7.7231,7.668,7.635,7.6423,7.4588,7.2243,6.9432,7.3306,7.4482,0.0,0.0,0.0,0.0,0.0,0.0,0.0,0.0,0.0,0.0,0.0,0.0,0.0,0.0,0.0,0.0,0.0,0.0,0.0,0.0,0.0,0.0,5.5757,5.8988,6.0015,6.3282,6.6256,6.7981,7.022,7.1541,7.1321,7.077,7.033,7.011,6.9486,6.9467,7.0421,6.9299,6.9388,7.1034,7.334,7.4963,7.5882,7.5772,7.5602,7.5432,7.5873,7.6019,7.5946,7.6387,7.635,7.5909,7.5909,7.5909,7.5946,7.6313,7.646,7.6387,0.0,0.0,0.0,0.0,7.5395,7.4698,7.4698,7.4478,7.4184,7.4184,7.4184,7.4111,7.367,7.3854,7.4294,7.4771,7.5726,7.6717,7.7194,7.7488,7.7781,7.8259,7.8002,7.8002,7.9323,7.9323,7.9323,8.0131,8.0021,0.0,7.7268,7.6937,7.6864,7.6644,7.7598,7.8295,7.8075,7.9066,7.925,7.7781,7.7635,7.7451,7.7011,7.6313,0.0,0.0,0.0,7.613,7.4661,7.4147,0.0,0.0,0.0,7.4308,7.4549,7.0273,0.0,0.0,6.3251,6.0529,0.0,0.0,0.0,0.0,0.0,0.0,0.0,0.0,0.0,0.0,0.0,0.0,0.0,0.0,0.0,0.0,6.0199,6.4053,6.6439,6.7614,6.8495,6.9229,7.1835,7.3046,7.1725,7.2018,7.1798,7.0477,6.976,6.9888,7.0982,0.0,0.0,0.0,0.0,7.7657,7.7316,7.6337,7.608,7.6387,7.646,7.69,7.7598,7.7708,7.7671,7.7524,7.7561,7.7561,7.7598,7.8405,7.8736,7.8589,7.7011,7.6313,7.635,7.7157,7.7011,7.6387,7.6497,0.0,0.0,7.5469,7.5469,7.5469,7.5469,7.5469,7.5469,7.5579,7.6644,7.7745,7.7855,7.8883,7.991,7.991,7.9874,8.0021,8.0828,8.0424,8.0167,8.0975,8.0571,8.0057,8.0057,7.991,7.9286,7.7818,7.8919,7.9396,7.7928,7.9103,7.9947,7.969,7.9653,0.0,7.9507,7.8148,7.7708,7.8662,7.7341,7.5469,7.3156,7.3104,7.2844,7.2165,7.2298,7.3611,7.6186,7.6245,7.589,7.4832,6.3731,6.1392,0.0,0.0,0.0,0.0,0.0,0.0,0.0,0.0,0.0,0.0,0.0,0.0,0.0,0.0,0.0,5.9905,6.3466,6.6402,6.8201,7.0257,7.1615,7.1798,7.2349,7.2863,7.3193,7.1998,7.1448,7.1977,7.0747,7.0558,7.2094,7.1779,7.1888,7.2486,7.8173,7.9976,7.7304,7.7084,7.7378,7.8112,7.8772,0.0,7.9323,7.9984,7.9727,7.871,7.914,7.9103,7.871,7.9323,7.9543,7.947,7.8479,7.7708,7.7194,7.8038,7.8259,7.8222,7.8846,7.8956,7.8846,7.8846,7.8846,7.8846,7.8846,7.8846,0.0,7.9653,8.0057,8.0424,8.1085,8.1012,8.0755,8.0755,8.0277,8.0021,8.0828,8.0901,8.1012,8.1819,8.1819,8.1746,8.1746,8.0645,7.969,7.936,8.0131,8.0645,8.0351,8.1122,8.0975,7.9029,7.8809,7.8552,7.7855,7.7524,7.7965,7.947,7.925,7.8259,7.646,7.6864,7.6452,7.5034,7.5982,7.6731,7.726,7.7784,7.7938,7.763,7.1673,7.0256,0.0,0.0,0.0,0.0,0.0,0.0,0.0,0.0,0.0,0.0,0.0,5.2564,0.0,0.0,6.075,6.3576,6.6439,6.8862,7.0477,7.2422,7.356,7.3156,7.345,7.378,7.3868,7.3061,7.249,7.2482,7.1728,7.1692,7.2473,7.4042,7.4909,7.4872,7.8051,7.9388,7.8552,7.8578,7.8798,7.9213,7.958,7.9653,7.937,7.981,7.9773,7.947,8.001,8.0084,7.98,8.0241,8.0388,8.0351,7.9947,7.9286,7.8589,7.9029,7.9176,7.925,7.9653,7.98,7.98,7.98,7.98,7.98,7.98,7.98,7.9874,8.0277,8.0681,8.1085,8.1489,8.1599,8.1599,8.1599,8.1269,8.1085,8.1525,8.1599,8.1709,8.2113,8.2186,8.2186,8.2186,8.1525,8.0975,8.0975,8.1342,8.1599,8.1599,8.1929,8.1746,8.0534,8.0388,8.0241,7.98,7.9396,7.9507,8.0351,8.0021,7.9396,7.8589,7.8846,7.8718,7.8255,7.9152,7.9426,7.8828,7.9867,8.0169,7.9746,7.726,7.5916,0.0,0.0,0.0,0.0,0.0,0.0,0.0,0.0,5.081,5.3355,5.5647,5.7703,5.9134,6.1667,6.4273,6.6586,6.8862,7.0881,7.2496,7.4258,7.5139,7.4478,7.4625,7.4602,7.4308,7.3956,7.3457,7.2606,7.3104,7.3433,7.3423,7.5886,7.7304,7.7327,7.7928,7.8761,7.9764,7.9863,7.9937,8.0021,8.0021,7.991,7.9627,7.9627,7.9847,8.0277,8.0708,8.0892,8.0929,8.1122,8.1232,8.1232,8.1232,8.0956,8.0419,8.0272,8.011,8.0084,8.0357,8.0367,8.0241,8.0241,8.0241,8.0241,8.0241,8.0241,8.0241,8.0241,8.0718,8.1232,8.1232,8.1709,8.2186,8.2186,8.2333,8.2443,8.2443,8.2553,8.2663,8.2663,8.2663,8.2663,8.2663,8.2663,8.259,8.2443,8.2443,8.248,8.2663,8.2663,8.2663,8.2663,8.2663,8.259,8.2443,8.1856,8.1415,8.1232,8.0608,8.0204,8.0021,8.0021,8.0186,8.0485,8.1177,8.1141,8.0421,8.1722,8.2073,8.1561,8.1106,7.9706,4.9798,4.8856,0.0,5.2272,5.2627,5.3503,0.0,0.0,5.7618,6.0063,6.1924,6.3429,6.431,6.5375,6.6659,6.8348,7.0073,7.1725,7.334,7.5579,7.7011,7.6937,7.5299,7.4382,7.4808,7.353,7.2642,7.2522,7.5128,7.6778,7.6766,7.7071,7.7291,7.7327,8.0147,8.1056,7.98,8.0268,8.0635,8.0865,8.0865,8.1232,8.1856,8.1856,8.1856,8.1929,8.1966,8.2003,8.2003,8.2039,8.2076,8.2076,8.2076,8.2338,8.2739,8.2032,8.134,8.1066,8.2394,8.2412,8.1929,8.1929,8.1929,8.1929,8.1929,8.1929,8.1929,8.1929,8.2003,8.2076,8.2076,8.2113,8.2186,8.2186,8.2737,8.3287,8.3287,8.3838,8.4315,8.4315,8.4315,8.4315,8.4315,8.4315,8.4095,8.3398,8.3287,8.3544,8.4242,8.4315,8.4315,8.4315,8.4315,8.4058,8.3324,8.3177,8.2847,8.2113,8.1966,8.1599,8.0901,8.0865,8.0561,7.9889,8.0485,8.105,8.1519,8.2209,8.2834,8.3324,8.2722,8.1968,5.6242,0.0,0.0,0.0,5.8606,5.885,6.2411,6.2141,6.1735,6.3789,6.5275,6.6292,6.6623,6.7467,6.8605,0.0,7.1651,7.3083,7.4258,7.6093,7.7696,7.8651,7.7084,7.6045,7.6313,7.3995,7.3252,7.5178,7.6582,7.7279,7.7254,7.7302,7.817,8.011,8.1524,8.1892,8.1186,8.1434,8.159,8.1709,8.1709,8.1856,8.2186,8.2186,8.2186,8.2186,8.2186,8.2186,8.2186,8.2186,8.2186,8.2251,8.2647,8.2671,8.261,8.2681,8.2781,8.2929,8.3592,8.3322,8.2793,8.2793,8.2497,8.2186,8.2186,8.2517,8.292,8.292,8.3251,8.3581,8.3581,8.3581,8.3581,8.3581,8.3838,8.4095,8.4095,8.4352,8.4609,8.4609,8.4609,8.4609,8.4609,8.4609,8.4646,8.4792,8.4389,8.4242,8.4572,8.4609,8.4609,8.4609,8.4609,8.4462,8.4132,8.4095,8.3765,8.2957,8.292,8.2553,8.1746,8.1709,8.1525,8.1195,8.1815,8.2035,8.1837,8.3316,8.3982,8.3753,8.402,8.3758,5.9994,0.0,0.0,6.3028,6.3628,6.3962,6.6014,6.5801,6.5626,6.7133,6.7949,6.8421,6.8641,6.9045,6.9797,7.1374,7.227,7.32,7.4675,7.6289,7.7745,7.8983,7.8835,7.8662,7.8614,7.5702,7.4774,7.7133,7.7291,7.7694,7.8563,7.8647,7.97,8.215,8.2159,8.2233,8.2242,8.2242,8.2215,8.2186,8.2186,8.2186,8.2186,8.2186,8.2186,8.2186,8.2186,8.2333,8.2517,8.2517,8.2663,8.2913,8.3604,8.3514,8.3224,8.4142,8.4238,8.4016,8.4589,8.4368,8.3807,8.3843,8.3544,8.3097,8.2913,8.341,8.4046,8.4046,8.4452,8.4894,8.4894,8.4772,8.4609,8.4609,8.4756,8.4939,8.4939,8.5123,8.527,8.527,8.527,8.527,8.527,8.527,8.5453,8.604,8.5637,8.527,8.527,8.527,8.527,8.527,8.527,8.5159,8.4939,8.4939,8.4609,8.3801,8.3728,8.3361,8.2553,8.2517,8.2443,8.2186,8.2708,8.2697,8.2238,8.3984,8.4762,8.4587,8.5397,8.5495,5.906,5.9831,6.144,6.4403,6.6917,6.8908,6.9752,6.9765,6.9825,7.0683,7.0428,7.0257,7.1064,7.0124,6.9994,7.216,7.1185,7.1284,7.4482,7.6251,7.7312,7.7401,8.0131,8.2049,0.0,7.9092,7.7155,7.7327,7.7327,7.8699,8.1855,8.2049,8.2095,8.2206,8.2215,8.2186,8.2186,8.2186,8.2186,8.2186,8.2186,8.2186,8.2186,8.2186,8.2186,8.2186,8.2186,8.2627,8.3361,8.3361,8.3838,8.4566,8.5274,8.547,8.5499,8.6996,8.5685,8.3545,8.5607,8.5911,8.5361,8.5489,8.5499,8.5358,8.4727,8.4975,8.5536,8.5536,8.5574,8.5574,8.5574,8.5113,8.4609,8.4609,8.5196,8.5747,8.5747,8.6371,8.6921,8.6921,8.6921,8.6921,8.6921,8.6921,8.6958,8.6958,8.6958,8.6921,8.6921,8.6921,8.6921,8.6921,8.6921,8.6628,8.582,8.5747,8.5416,8.4609,8.4572,8.4205,8.3398,8.3361,8.2994,8.2223,8.2186,8.2523,8.3152,8.3876,8.493,8.6344,8.7003,8.7388,6.3271,6.509,6.7218,6.9327,7.0623,7.1532,7.2172,7.1788,7.1325,7.1363,7.1508,7.1464,7.0643,7.2778,7.4474,7.4191,7.364,7.3995,7.6216,7.6986,7.7291,7.7316,8.0209,0.0,0.0,0.0,0.0,7.7316,7.9323,8.1029,8.2113,8.2206,8.2215,8.2215,8.2186,8.2186,8.2186,8.2186,8.2186,8.2186,8.2186,8.248,8.2994,8.2994,8.3287,8.3801,8.3801,8.3948,8.4272,8.4706,8.5065,8.5409,8.6529,8.6679,8.6403,8.7846,8.7457,8.6358,8.7542,8.75,8.6913,8.6994,8.6373,8.5574,8.5348,8.5841,8.643,8.643,8.7173,8.781,8.7332,8.7105,8.6804,8.6323,8.6407,8.6591,8.6591,8.6811,8.6995,8.6995,8.6995,8.6995,8.6995,8.6995,8.6995,8.6995,8.6995,8.6995,8.6995,8.6995,8.6995,8.6995,8.6995,8.6885,8.6628,8.6591,8.6261,8.5453,8.538,8.5049,8.4242,8.4205,8.4058,8.3801,8.3801,8.3897,8.4147,8.5262,8.6052,8.6559,8.7734,8.8038,6.6705,6.8436,7.0244,7.2514,7.3453,7.4018,7.4687,7.4243,7.3684,7.3685,7.3878,7.374,7.2771,7.4253,7.5638,7.5779,7.6704,7.7451,7.7341,7.7316,7.7291,7.7316,7.9165,8.043,0.0,0.0,0.0,7.8945,8.0992,8.2196,8.2196,8.2178,8.2186,8.2186,8.2186,8.2186,8.2186,8.248,8.2774,8.3067,8.3067,8.3324,8.3838,8.3838,8.4257,8.4959,8.4706,8.5078,8.5794,8.5998,8.6383,8.6967,8.8121,8.8105,8.7648,8.9075,8.9109,8.8577,8.8989,8.8879,8.8498,8.8523,8.7943,8.7185,8.6911,8.7435,8.8066,8.8066,8.8758,8.9339,8.891,8.8673,8.8309,8.7554,8.7394,8.7328,8.7064,8.6995,8.6995,8.6995,8.6995,8.6995,8.6995,8.6995,8.6995,8.6995,8.6995,8.6995,8.6995,8.6995,8.6995,8.6995,8.6995,8.6995,8.6995,8.6995,8.6775,8.6261,8.6224,8.5857,8.5049,8.5013,8.4903,8.4609,8.4609,8.4609,8.4609,8.5728,8.6523,8.7097,8.8259,8.8845,6.909,6.9937,7.086,7.4014,7.5438,7.6322,7.7207,7.7007,7.6806,7.7378,7.7263,7.693,0.0,0.0,7.378,7.6994,8.0112,8.0982,7.7855,7.7411,7.7385,0.0,0.0,0.0,0.0,0.0,0.0,8.1965,0.0,8.2196,8.2186,8.2186,8.2186,8.2186,8.2186,8.2223,8.226,8.3067,8.3838,8.4609,8.4609,8.4609,8.4646,8.4713,8.5096,8.5723,8.5069,8.6027,8.7914,8.7342,8.7904,8.9225,8.9901,8.9702,8.921,9.0645,9.0671,8.9979,8.9979,8.9979,8.9986,9.01,9.0116,8.999,8.9339,8.9621,9.0116,9.0116,9.0116,9.016,9.0116,8.9621,8.9016,8.8309,8.8107,8.7898,8.7231,8.6995,8.6995,8.6995,8.6995,8.6995,8.6995,8.6995,8.6995,8.6995,8.6995,8.6995,8.6995,8.6995,8.6995,8.6995,8.6995,8.6995,8.6995,8.6995,8.6995,8.6995,8.6995,8.6664,8.5894,8.5857,8.549,8.4756,8.4719,8.4719,8.4719,8.5411,8.65,8.7965,8.8669,8.9761,7.0179,7.3091,7.5668,7.5678,7.6447,7.7553,7.8622,7.8416,7.7476,7.5564,7.776,7.8002,0.0,0.0,0.0,8.0427,8.0664,0.0,7.925,7.9113,0.0,0.0,0.0,7.8254,8.0735,8.0956,0.0,0.0,8.2206,8.2178,8.2242,8.2215,8.2186,8.2186,8.2186,8.248,8.3104,8.3911,8.4389,8.4609,8.4609,8.4903,8.549,8.6101,8.6733,8.7474,8.781,8.8275,8.8834,8.9135,8.9526,8.9901,9.0646,9.0799,9.0645,9.1059,9.1056,9.0864,9.0864,9.0864,9.0867,9.0912,9.0566,9.0073,8.9901,8.9946,9.0116,9.0116,9.0488,9.08,9.0245,8.9946,8.9669,8.9016,8.8446,8.8046,8.7898,8.7394,8.6995,8.6995,8.6995,8.6995,8.6995,8.6995,8.6995,8.6995,8.6995,8.6995,8.6995,8.6995,8.6995,8.6995,8.6995,8.6995,8.6995,8.6995,8.6995,8.6995,8.6995,8.6921,8.6701,8.6701,8.6591,8.6407,8.6407,8.6407,8.6407,8.7079,8.7922,8.8782,8.9505,9.0296,7.2563,7.5361,7.7669,7.7515,7.8054,7.8592,7.8507,7.79,7.6669,7.3909,7.3559,0.0,6.8297,0.0,0.0,0.0,0.0,0.0,8.0845,8.0241,7.9727,0.0,7.9443,0.0,8.2012,8.2196,8.2169,0.0,8.2215,8.2215,8.2178,8.2186,8.2186,8.2186,8.2186,8.2774,8.3911,8.4719,8.5306,8.5637,8.5637,8.606,8.6823,8.7254,8.8034,8.9016,8.9069,8.9476,9.0028,9.0073,9.0284,9.0606,9.1026,9.121,9.121,9.121,9.121,9.121,9.121,9.121,9.121,9.121,9.0914,9.0606,9.0606,9.0606,9.0606,9.0606,9.0876,9.11,9.0723,9.0606,9.0406,8.9716,8.9238,8.891,8.8617,8.7985,8.7394,8.7064,8.6995,8.6995,8.6995,8.6995,8.6995,8.6995,8.6995,8.6995,8.6995,8.6995,8.6995,8.6995,8.6995,8.6995,8.6995,8.6995,8.6995,8.6995,8.6995,8.6995,8.6995,8.6995,8.6995,8.6995,8.6995,8.6995,8.6995,8.7394,8.7985,8.8673,8.9339,9.0028,7.5207,7.6861,7.8122,7.9315,7.9815,7.94,7.7284,7.6254,7.4985,7.2245,6.8045,6.5311,6.6785,6.8628,7.1985,7.8459,0.0,8.1691,8.215,8.1039,8.0544,8.1755,8.2059,8.2206,8.2206,8.2215,8.2186,8.2186,8.2178,8.2178,8.2186,8.2186,8.2251,8.238,8.2481,8.3318,8.4829,8.575,8.6561,8.7261,8.7261,8.7581,8.8249,8.8309,8.9016,9.0073,8.9573,9.0067,9.1136,9.0488,9.0606,9.121,9.121,9.121,9.121,9.121,9.121,9.121,9.121,9.121,9.121,9.121,9.121,9.121,9.121,9.121,9.121,9.121,9.121,9.121,9.121,9.121,9.1026,9.0367,9.016,8.9946,8.9339,8.8729,8.8046,8.7357,8.7231,8.72,8.72,8.7064,8.6995,8.7095,8.72,8.7163,8.7261,8.7231,8.7132,8.6995,8.7064,8.7132,8.6995,8.6995,8.6995,8.6995,8.6995,8.6995,8.6995,8.6995,8.6995,8.6995,8.6995,8.6995,8.6995,8.6995,8.7394,8.8107,8.8801,8.9476,7.5861,7.7169,7.8776,8.0384,8.0816,7.9677,7.5195,7.4418,7.3563,6.9821,6.7974,6.6797,6.5954,6.7498,7.0809,7.6773,0.0,0.0,0.0,0.0,8.1387,0.0,0.0,0.0,0.0,0.0,0.0,0.0,8.2186,8.2186,8.2186,8.2186,8.2508,8.3276,8.4216,8.5199,8.6229,8.777,8.8596,8.8746,8.8746,8.8801,8.8963,8.9487,8.9855,9.0116,9.0606,9.0989,9.121,9.1064,9.11,9.121,9.121,9.121,9.121,9.121,9.121,9.121,9.121,9.121,9.121,9.121,9.121,9.121,9.121,9.121,9.121,9.121,9.121,9.121,9.121,9.121,9.1175,9.1026,9.0528,9.0073,8.9946,8.9389,8.891,8.8746,8.8309,8.7898,8.7898,8.7394,8.7231,8.7836,8.7898,8.807,8.8636,8.8249,8.7683,8.7064,8.7554,8.7683,8.7064,8.6995,8.6995,8.6995,8.6995,8.6995,8.6995,8.6995,8.6995,8.6995,8.6995,8.6995,8.6995,8.6995,8.7394,8.8107,8.8801,8.9476,7.6015,7.6592,7.7823,8.0461,8.0654,7.89,7.3947,7.2678,7.1102,6.6167,6.5053,6.4794,6.4111,0.0,0.0,0.0,0.0,0.0,0.0,0.0,0.0,0.0,0.0,0.0,0.0,0.0,0.0,8.2186,8.2186,8.2186,8.2186,8.2239,8.3076,8.4982,8.559,8.6316,8.7235,8.848,8.9122,8.9122,8.9122,8.9289,8.9621,8.9946,9.0326,9.0685,9.1026,9.121,9.121,9.121,9.121,9.121,9.121,9.121,9.121,9.121,9.121,9.121,9.121,9.121,9.121,9.121,9.121,9.121,9.121,9.121,9.121,9.121,9.121,9.121,9.121,9.121,9.121,9.121,9.0914,9.0566,9.016,8.9855,8.9525,8.9173,8.8856,8.8617,8.8617,8.833,8.8212,8.856,8.8617,8.8746,8.9069,8.9084,8.891,8.8153,8.7736,8.7554,8.7554,8.7231,8.6995,8.6995,8.6995,8.6995,8.6995,8.6995,8.6995,8.6995,8.6995,8.6995,8.6995,8.6995,8.7163,8.7554,8.8579,8.9238,7.6015,7.5985,7.6823,8.023,8.0076,7.7814,7.3014,7.1283,6.9052,6.3512,6.2284,6.2366,6.278,0.0,0.0,0.0,7.4889,0.0,0.0,0.0,0.0,0.0,0.0,0.0,0.0,0.0,0.0,8.2186,8.2242,8.2186,8.2186,8.2208,8.3826,8.7399,8.7525,8.7791,8.8322,8.9156,8.9525,8.9525,8.9525,8.9847,9.0326,9.0326,9.0646,9.121,9.121,9.121,9.121,9.121,9.121,9.121,9.121,9.121,9.121,9.121,9.121,9.121,9.121,9.121,9.121,9.121,9.121,9.121,9.121,9.121,9.121,9.121,9.121,9.121,9.121,9.121,9.121,9.121,9.121,9.1026,9.0447,9.0326,9.016,8.9669,8.9426,8.9289,8.9289,8.9225,8.9173,8.9289,8.9289,8.9377,8.9525,8.9855,8.9946,8.9573,8.8409,8.7672,8.7836,8.7526,8.7163,8.6995,8.6995,8.6995,8.6995,8.6995,8.6995,8.6995,8.6995,8.6995,8.6995,8.6995,8.6995,8.6995,8.8271,8.8963,7.6015,7.5985,7.6823,8.023,7.9469,7.6639,7.2073,7.0409,6.8552,6.4089,6.1988,6.1518,6.3375,6.4013,0.0,0.0,7.2335,7.4323,0.0,0.0,0.0,0.0,0.0,0.0,0.0,0.0,8.2198,8.2198,8.2165,8.2186,8.2186,8.2184,8.4846,9.0588,9.0794,9.0447,8.9722,9.0567,9.0989,9.0989,9.0989,9.1026,9.11,9.11,9.1136,9.121,9.121,9.121,9.121,9.121,9.121,9.121,9.121,9.121,9.121,9.121,9.121,9.121,9.121,9.121,9.121,9.121,9.121,9.121,9.121,9.121,9.121,9.121,9.121,9.121,9.121,9.121,9.121,9.121,9.121,9.121,9.11,9.11,9.11,9.0989,9.0447,8.999,8.999,8.9487,8.9327,8.9901,8.999,9.0241,9.0914,9.0488,9.0326,9.0952,9.0284,8.9084,8.7298,8.7683,8.7709,8.7064,8.6995,8.6995,8.6995,8.6995,8.6995,8.6995,8.6995,8.6995,8.6995,8.6995,8.6995,8.6995,8.7836,8.8503,7.7092,7.6524,7.6639,7.9392,7.7852,7.4793,7.164,6.9448,6.709,6.3358,6.1627,6.1349,6.3154,6.3932,6.5588,6.966,7.1591,7.384,7.7754,0.0,0.0,0.0,0.0,0.0,0.0,0.0,8.3885,8.2302,8.2199,8.2221,8.2221,8.2219,8.4506,8.9528,9.0643,9.1052,9.071,9.1018,9.121,9.121,9.121,9.121,9.121,9.121,9.121,9.121,9.121,9.1518,9.1941,9.1441,9.1518,9.1941,9.1402,9.121,9.121,9.121,9.121,9.121,9.121,9.121,9.121,9.121,9.121,9.121,9.121,9.121,9.121,9.121,9.121,9.121,9.121,9.121,9.121,9.121,9.121,9.121,9.121,9.121,9.121,9.121,9.0989,9.0762,9.0762,9.0566,9.0447,9.0723,9.0762,9.0876,9.1136,9.0914,9.0723,9.0528,8.9901,8.9136,8.833,8.813,8.7773,8.7064,8.6995,8.6995,8.6995,8.6995,8.6995,8.6995,8.6995,8.6995,8.6995,8.746,8.746,8.6995,8.819,8.8856,7.8314,7.7361,7.7024,7.9315,7.7053,7.3793,7.186,6.9167,6.6205,6.3089,6.155,6.1243,6.2666,6.3628,6.5197,6.8224,7.0331,7.2725,7.5792,0.0,0.0,0.0,0.0,0.0,0.0,8.5006,8.5347,8.3455,8.4314,8.4443,8.3389,8.4314,8.6284,8.9356,9.0607,9.121,9.121,9.121,9.121,9.121,9.121,9.121,9.121,9.121,9.121,9.121,9.121,9.171,9.2441,9.1556,9.171,9.2402,9.1556,9.121,9.121,9.121,9.121,9.121,9.121,9.121,9.121,9.121,9.121,9.121,9.121,9.121,9.121,9.121,9.121,9.121,9.121,9.121,9.121,9.121,9.121,9.121,9.121,9.121,9.121,9.121,9.121,9.121,9.121,9.121,9.121,9.121,9.121,9.121,9.121,9.121,9.0989,9.0488,8.9984,8.9476,8.8856,8.856,8.7985,8.7064,8.6995,8.6995,8.6995,8.6995,8.6995,8.6995,8.6995,8.6995,8.6995,8.7709,8.7836,8.7328,8.833,8.891,7.9404,7.8545,7.8246,8.05,7.766,7.4024,7.2822,6.9744,6.6359,6.382,6.1973,6.105,6.1935,6.2781,6.4269,6.7082,6.8223,6.9905,7.3168,7.4401,0.0,0.0,0.0,0.0,8.5815,8.6083,8.6074,8.6074,8.9193,8.9665,8.6266,8.9292,9.1128,9.1166,9.1183,9.1206,9.121,9.121,9.121,9.121,9.121,9.121,9.121,9.121,9.121,9.121,9.121,9.171,9.2441,9.1556,9.171,9.2402,9.1556,9.121,9.121,9.121,9.121,9.121,9.121,9.121,9.121,9.121,9.121,9.121,9.121,9.121,9.121,9.121,9.121,9.121,9.121,9.121,9.121,9.121,9.121,9.121,9.121,9.121,9.121,9.121,9.121,9.121,9.121,9.121,9.121,9.121,9.121,9.121,9.121,9.121,9.121,9.121,9.121,9.0322,8.8249,8.8691,8.8466,8.7132,8.6995,8.6995,8.6995,8.6995,8.6995,8.6995,8.6995,8.6995,8.6995,8.7709,8.8107,8.8107,8.8107,8.8446,7.4812,7.5515,7.5976,7.7275,7.5351,7.2657,7.0733,6.8193,6.5576,6.3012,6.1589,6.105,6.1935,6.232,6.377,6.773,6.859,6.9208,7.047,0.0,0.0,0.0,0.0,8.3921,0.0,8.6079,8.6118,8.612,8.9304,8.9727,8.6278,8.9343,9.1184,9.1204,9.1183,9.121,9.121,9.121,9.121,9.121,9.121,9.121,9.121,9.121,9.121,9.121,9.121,9.2018,9.321,9.1787,9.2056,9.3172,9.1748,9.121,9.121,9.121,9.121,9.121,9.121,9.121,9.121,9.121,9.121,9.121,9.121,9.121,9.121,9.121,9.121,9.121,9.121,9.121,9.121,9.121,9.121,9.121,9.121,9.121,9.121,9.121,9.121,9.121,9.121,9.121,9.121,9.121,9.121,9.121,9.121,9.121,9.121,9.121,9.121,9.0723,8.9573,8.9669,8.9187,8.7836,8.7773,8.7489,8.6995,8.6995,8.6995,8.6995,8.6995,8.7231,8.7773,8.8446,8.9016,8.9476,8.9476,8.9573,7.0821,7.3206,7.4784,7.5736,7.3966,7.1091,6.7756,6.6064,6.4653,6.2512,6.1396,6.0973,6.1512,6.1858,6.313,6.6192,6.7174,6.8565,7.1561,0.0,0.0,0.0,0.0,0.0,8.6022,8.6094,8.6132,8.6099,8.8089,8.8897,8.806,9.0052,9.1216,9.122,9.1181,9.121,9.121,9.121,9.121,9.121,9.121,9.121,9.121,9.121,9.121,9.121,9.121,9.1979,0.0,9.1787,9.2018,9.3095,9.1748,9.121,9.121,9.121,9.121,9.121,9.121,9.121,9.121,9.121,9.121,9.121,9.121,9.121,9.121,9.121,9.121,9.121,9.121,9.121,9.121,9.121,9.121,9.121,9.121,9.121,9.121,9.121,9.121,9.121,9.121,9.121,9.121,9.121,9.121,9.121,9.121,9.121,9.121,9.121,9.121,9.1026,9.0528,9.0284,8.9669,8.856,8.8446,8.8309,8.7799,8.7554,8.7394,8.7394,8.7394,8.7683,8.8107,8.9016,8.9716,9.0116,9.0367,9.0367,0.0,7.1206,7.4168,7.5341,7.3234,6.9575,6.4461,6.363,0.0,6.2281,6.1358,6.0819,6.0973,6.155,6.2358,6.3474,6.4813,6.8146,7.5232,7.435,0.0,0.0,8.5186,0.0,8.6069,8.6094,8.6094,8.6099,8.6132,8.7478,9.0668,9.1087,9.1202,9.121,9.121,9.121,9.121,9.121,9.121,9.121,9.121,9.121,9.121,9.121,9.121,9.121,9.121,9.171,9.2441,9.1556,9.171,9.2402,9.1556,9.121,9.121,9.121,9.121,9.121,9.121,9.121,9.121,9.121,9.121,9.121,9.121,9.121,9.121,9.121,9.121,9.121,9.121,9.121,9.121,9.121,9.121,9.121,9.121,9.121,9.121,9.121,9.121,9.121,9.121,9.121,9.121,9.121,9.121,9.121,9.121,9.121,9.121,9.121,9.121,9.121,9.121,9.0566,8.9901,8.9187,8.9136,8.9173,8.9122,8.8503,8.8167,8.8167,8.819,8.8249,8.8249,8.9573,9.016,9.0203,9.0876,9.0839,6.2166,0.0,7.017,7.1698,7.1493,6.9579,0.0,6.2449,6.1527,6.1166,6.0935,6.1204,6.2474,6.182,6.2435,6.6551,6.7467,6.9291,7.3873,0.0,0.0,0.0,8.3815,8.4635,8.597,8.6079,8.6094,8.6094,8.6094,8.6445,8.7252,8.9782,9.1206,9.121,9.121,9.121,9.121,9.121,9.121,9.121,9.121,9.121,9.121,9.121,9.121,9.121,9.121,9.171,9.2441,9.1556,9.171,9.2402,9.1556,9.121,9.121,9.121,9.121,9.121,9.121,9.121,9.121,9.121,9.121,9.121,9.121,9.121,9.121,9.121,9.121,9.121,9.121,9.121,9.121,9.121,9.121,9.121,9.121,9.121,9.121,9.121,9.121,9.121,9.121,9.121,9.121,9.121,9.121,9.121,9.121,9.121,9.121,9.121,9.121,9.121,9.121,9.1026,9.0646,8.9901,8.9855,8.9631,8.9122,8.8963,8.8856,8.8856,8.9339,8.9621,8.9621,9.0488,9.0914,9.0952,9.11,9.11,5.8319,6.2358,6.6833,6.8244,6.9759,6.9348,6.3488,6.1464,6.081,6.0819,6.0781,6.1204,6.2512,6.2974,6.3897,6.6282,6.8695,7.1746,0.0,0.0,0.0,8.3426,8.3235,8.3747,8.5883,8.6084,8.6094,8.6094,8.4681,8.4455,8.6026,8.9325,9.0975,9.0441,9.0941,9.121,9.121,9.121,9.121,9.121,9.121,9.121,9.121,9.121,9.121,9.121,9.121,9.1479,9.1864,9.1402,9.1479,9.1864,9.1364,9.121,9.121,9.121,9.121,9.121,9.121,9.121,9.121,9.121,9.121,9.121,9.121,9.121,9.121,9.121,9.121,9.121,9.121,9.121,9.121,9.121,9.121,9.121,9.121,9.121,9.121,9.121,9.121,9.121,9.121,9.121,9.121,9.121,9.121,9.121,9.121,9.121,9.121,9.121,9.121,9.121,9.121,9.121,9.1026,9.0646,9.0606,9.0447,9.0111,8.9716,8.9573,8.9573,8.9901,9.0284,9.0606,9.0989,9.121,9.121,9.121,9.121,5.5698,5.9235,6.3386,6.5422,6.7641,6.7911,6.2425,6.0978,6.081,6.0819,6.0896,6.1396,6.282,6.4512,6.5743,6.5936,7.0072,0.0,7.9204,0.0,8.3332,8.4103,8.3019,8.3171,8.5578,8.5969,8.6094,8.6099,8.3956,8.3879,8.6752,8.9363,9.0479,8.9787,9.071,9.121,9.121,9.121,9.121,9.121,9.121,9.121,9.121,9.121,9.121,9.121,9.121,9.121,9.121,9.121,9.121,9.121,9.121,9.121,9.121,9.121,9.121,9.121,9.121,9.121,9.121,9.121,9.121,9.121,9.121,9.121,9.121,9.121,9.121,9.121,9.121,9.121,9.121,9.121,9.121,9.121,9.121,9.121,9.121,9.121,9.121,9.121,9.121,9.121,9.121,9.121,9.121,9.121,9.121,9.121,9.121,9.121,9.121,9.121,9.121,9.121,9.121,9.121,9.121,9.121,9.121,9.0606,9.0284,9.0284,9.0284,9.0606,9.121,9.121,9.121,9.121,9.121,9.121,5.5685,5.6343,5.8462,6.4417,6.4123,6.2435,6.2829,6.1843,6.0819,6.0781,6.1396,6.3012,6.6744,6.5974,6.6397,7.1321,0.0,7.7878,0.0,0.0,8.3872,8.4163,8.3019,8.2787,8.4355,8.547,8.6094,8.6126,8.8315,8.9888,9.0389,8.9552,8.9633,9.0902,9.1133,9.121,9.121,9.121,9.121,9.121,9.121,9.121,9.121,9.121,9.121,9.121,9.121,9.121,9.121,9.121,9.121,9.121,9.121,9.121,9.121,9.121,9.121,9.121,9.121,9.121,9.121,9.121,9.121,9.121,9.121,9.121,9.121,9.121,9.121,9.121,9.121,9.121,9.121,9.121,9.121,9.121,9.121,9.121,9.121,9.121,9.121,9.121,9.121,9.121,9.121,9.121,9.121,9.121,9.121,9.121,9.121,9.121,9.121,9.121,9.121,9.121,9.121,9.121,9.121,9.121,9.121,9.11,9.1026,9.1026,9.1026,9.11,9.121,9.121,9.121,9.121,9.121,9.121,5.583,5.8404,6.108,6.0503,6.0597,6.203,6.6705,6.7179,6.6217,6.4802,6.4763,6.5702,6.809,6.9013,7.136,7.7284,0.0,7.9607,8.2291,8.352,8.4442,8.5127,8.4668,8.3984,8.3171,8.4936,8.6094,8.6094,8.755,8.8435,8.8435,8.9475,8.9979,8.9863,9.0748,9.121,9.121,9.121,9.121,9.121,9.121,9.121,9.121,9.121,9.121,9.121,9.121,9.121,9.121,9.121,9.121,9.121,9.121,9.121,9.121,9.121,9.121,9.121,9.121,9.121,9.121,9.121,9.121,9.121,9.121,9.121,9.121,9.121,9.121,9.121,9.121,9.121,9.121,9.121,9.121,9.121,9.121,9.121,9.121,9.121,9.121,9.121,9.121,9.121,9.121,9.121,9.121,9.121,9.121,9.121,9.121,9.121,9.121,9.121,9.121,9.121,9.121,9.121,9.121,9.121,9.121,9.121,9.121,9.121,9.121,9.121,9.121,9.121,9.121,9.121,9.121,9.121,5.695,6.015,6.2435,5.7991,6.185,6.7944,7.2723,7.2893,7.1531,6.9794,6.8838,6.8583,6.9631,7.2129,0.0,8.0439,8.0254,8.0407,8.3099,8.3907,8.469,8.5934,8.6118,8.5309,8.3295,8.4931,8.6094,8.6099,8.6099,8.6099,8.6099,8.8594,8.9671,8.8979,9.0248,9.0979,9.121,9.121,9.121,9.121,9.121,9.121,9.121,9.121,9.121,9.121,9.121,9.121,9.121,9.121,9.121,9.121,9.121,9.121,9.121,9.121,9.121,9.121,9.121,9.121,9.121,9.121,9.121,9.121,9.121,9.121,9.121,9.121,9.121,9.121,9.121,9.121,9.121,9.121,9.121,9.121,9.121,9.121,9.121,9.121,9.121,9.121,9.121,9.121,9.121,9.121,9.121,9.121,9.121,9.121,9.121,9.121,9.121,9.121,9.121,9.121,9.121,9.121,9.121,9.121,9.121,9.121,9.121,9.121,9.121,9.121,9.121,9.121,9.121,9.121,9.121,9.121,6.0018,5.8462,5.7098,5.9764,7.2444,8.3579,8.1026,7.6714,7.3534,7.4385,7.2629,7.1455,0.0,7.4753,7.6331,7.7801,7.8377,8.0299,8.517,8.4599,8.4291,8.5906,8.6099,8.6022,8.5834,8.5983,8.6094,8.6094,8.6094,8.6132,8.6099,8.6329,8.7483,8.9748,8.994,9.0402,9.121,9.121,9.121,9.121,9.121,9.121,9.121,9.121,9.121,9.121,9.121,9.121,9.121,9.121,9.121,9.121,9.121,9.121,9.121,9.121,9.121,9.121,9.121,9.121,9.121,9.121,9.121,9.121,9.121,9.121,9.121,9.121,9.121,9.121,9.121,9.121,9.121,9.121,9.121,9.121,9.121,9.121,9.121,9.121,9.121,9.121,9.121,9.121,9.121,9.121,9.121,9.121,9.121,9.121,9.121,9.121,9.121,9.121,9.121,9.121,9.121,9.121,9.121,9.121,9.121,9.121,9.121,9.121,9.121,9.121,9.121,9.121,9.121,9.121,9.121,9.121,5.9488,6.1873,6.3553,6.1352,6.7218,7.3201,7.1948,7.5043,7.8193,7.8261,7.8037,0.0,0.0,0.0,8.0439,8.1246,8.1554,8.1984,8.2874,8.4253,8.5401,8.6017,8.6094,8.6094,8.6094,8.6094,8.6094,8.6094,8.6094,8.6094,8.6132,8.6786,8.7786,8.9094,8.9633,9.0325,9.121,9.121,9.121,9.121,9.121,9.121,9.121,9.121,9.121,9.121,9.121,9.121,9.121,9.121,9.121,9.121,9.121,9.121,9.121,9.121,9.121,9.121,9.121,9.121,9.121,9.121,9.121,9.121,9.121,9.121,9.121,9.121,9.121,9.121,9.121,9.121,9.121,9.121,9.121,9.121,9.121,9.121,9.121,9.121,9.121,9.121,9.121,9.121,9.121,9.121,9.121,9.121,9.121,9.121,9.121,9.121,9.121,9.121,9.121,9.121,9.121,9.121,9.121,9.121,9.121,9.121,9.121,9.121,9.121,9.121,9.121,9.121,9.121,9.121,9.121,9.121,6.0858,6.3652,6.6397,6.5769,6.6961,6.8433,6.8973,7.4158,7.9201,8.0429,8.131,8.1321,7.9614,0.0,0.0,8.1939,8.3324,8.4016,8.2836,8.4637,8.6094,8.6094,8.6094,8.6094,8.6094,8.6094,8.6094,8.6094,8.6094,8.6094,8.6094,8.7171,8.8055,8.8671,8.9479,9.0325,9.121,9.121,9.121,9.121,9.121,9.121,9.121,9.121,9.121,9.121,9.121,9.121,9.121,9.121,9.121,9.121,9.121,9.121,9.121,9.121,9.121,9.121,9.121,9.121,9.121,9.121,9.121,9.121,9.121,9.121,9.121,9.121,9.121,9.121,9.121,9.121,9.121,9.121,9.121,9.121,9.121,9.121,9.121,9.121,9.121,9.121,9.121,9.121,9.121,9.121,9.121,9.121,9.121,9.121,9.121,9.121,9.121,9.121,9.121,9.121,9.121,9.121,9.121,9.121,9.121,9.121,9.121,9.121,9.121,9.121,9.121,9.121,9.121,9.121,9.121,9.121,6.5013,6.2759,6.331,7.3405,7.4719,7.3986,7.5649,7.5014,7.5515,8.0631,8.1715,8.1928,8.254,8.0392,7.8554,7.8577,8.2792,8.6126,8.6094,8.6094,8.6094,8.6094,8.6094,8.6094,8.6094,8.6094,8.6094,8.6094,8.6094,8.6094,8.6132,8.7171,8.8055,8.8671,8.9479,9.0325,9.121,9.121,9.121,9.121,9.121,9.121,9.121,9.121,9.121,9.121,9.121,9.121,9.121,9.121,9.121,9.121,9.121,9.121,9.121,9.121,9.121,9.121,9.121,9.121,9.121,9.121,9.121,9.121,9.121,9.121,9.121,9.121,9.121,9.121,9.121,9.121,9.121,9.121,9.121,9.121,9.121,9.121,9.121,9.121,9.121,9.121,9.121,9.121,9.121,9.121,9.121,9.121,9.121,9.121,9.121,9.121,9.121,9.121,9.121,9.121,9.121,9.121,9.121,9.121,9.121,9.121,9.121,9.121,9.121,9.121,9.121,9.121,9.121,9.121,9.121,9.121,6.132,6.4411,0.0,6.9706,7.4043,7.8228,7.9306,7.9297,7.9422,8.097,8.2201,8.2271,7.9638,8.1093,8.2894,8.3702,8.5087,8.6126,8.6094,8.6094,8.6094,8.6094,8.6094,8.6094,8.6094,8.6094,8.6094,8.6094,8.6094,8.644,8.7248,8.744,8.8132,8.9517,8.9787,9.0325,9.121,9.121,9.121,9.121,9.121,9.121,9.121,9.121,9.121,9.121,9.121,9.121,9.121,9.121,9.121,9.121,9.121,9.121,9.121,9.121,9.121,9.121,9.121,9.121,9.121,9.121,9.121,9.121,9.121,9.121,9.121,9.121,9.121,9.121,9.121,9.121,9.121,9.121,9.121,9.121,9.121,9.121,9.121,9.121,9.121,9.121,9.121,9.121,9.121,9.121,9.121,9.121,9.121,9.121,9.121,9.121,9.121,9.121,9.121,9.121,9.121,9.121,9.121,9.121,9.121,9.121,9.121,9.121,9.121,9.121,9.121,9.121,9.121,9.121,9.121,9.121,6.5531,6.9491,0.0,7.3024,7.5399,7.8246,8.0123,0.0,0.0,0.0,8.2355,8.2009,8.0061,8.2247,8.4619,8.5312,8.578,8.6094,8.6094,8.6094,8.6094,8.6094,8.6094,8.6094,8.6094,8.6094,8.6094,8.6094,8.6094,8.6401,8.7094,8.7632,8.8363,8.9402,9.0056,9.0671,9.121,9.121,9.121,9.121,9.121,9.121,9.121,9.121,9.121,9.121,9.121,9.121,9.121,9.121,9.121,9.121,9.121,9.121,9.121,9.121,9.121,9.121,9.121,9.121,9.121,9.121,9.121,9.121,9.121,9.121,9.121,9.121,9.121,9.121,9.121,9.121,9.121,9.121,9.121,9.121,9.121,9.121,9.121,9.121,9.121,9.121,9.121,9.121,9.121,9.121,9.121,9.121,9.121,9.121,9.121,9.121,9.121,9.121,9.121,9.121,9.121,9.121,9.121,9.121,9.121,9.121,9.121,9.121,9.121,9.121,9.121,9.121,9.121,9.121,9.121,9.121,7.3327,7.5518,0.0,7.9977,7.79,0.0,7.9208,8.0592,8.1631,8.3086,0.0,8.1501,8.2477,8.3587,8.435,8.4439,8.5401,8.6094,8.6094,8.6094,8.6094,8.6094,8.6094,8.6094,8.6094,8.6094,8.6094,8.6094,8.6094,8.6094,8.6094,8.7709,8.8671,8.8786,9.0364,9.1171,9.1095,9.1171,9.1171,9.1095,9.1171,9.121,9.121,9.121,9.121,9.121,9.121,9.121,9.121,9.121,9.121,9.121,9.121,9.121,9.121,9.121,9.121,9.121,9.121,9.121,9.121,9.121,9.121,9.121,9.121,9.121,9.121,9.121,9.121,9.121,9.121,9.121,9.121,9.121,9.121,9.121,9.121,9.121,9.121,9.121,9.121,9.121,9.121,9.121,9.121,9.121,9.121,9.121,9.121,9.121,9.121,9.121,9.121,9.121,9.121,9.121,9.121,9.121,9.121,9.121,9.121,9.121,9.121,9.121,9.121,9.121,9.121,9.121,9.121,9.121,9.121,9.121,6.5482,7.0716,0.0,0.0,7.79,7.9939,8.0669,8.1439,8.1977,8.167,8.1823,8.2093,8.2324,8.3131,8.401,8.467,8.5517,8.6094,8.6094,8.6094,8.6094,8.6094,8.6094,8.6094,8.6094,8.6094,8.6094,8.6094,8.6094,8.6094,8.6099,8.7291,8.8517,8.9633,9.0671,9.0864,9.021,9.0864,9.0864,9.021,9.0864,9.121,9.121,9.121,9.121,9.121,9.121,9.121,9.121,9.121,9.121,9.121,9.121,9.121,9.121,9.121,9.121,9.121,9.121,9.121,9.121,9.121,9.121,9.121,9.121,9.121,9.121,9.121,9.121,9.121,9.121,9.121,9.121,9.121,9.121,9.121,9.121,9.121,9.121,9.121,9.121,9.121,9.121,9.121,9.121,9.121,9.121,9.121,9.121,9.121,9.121,9.121,9.121,9.121,9.121,9.121,9.121,9.121,9.121,9.121,9.121,9.121,9.121,9.121,9.121,9.121,9.121,9.121,9.121,9.121,9.121,9.121,6.7254,7.1608,0.0,7.6793,0.0,8.0592,8.1016,8.14,8.1593,8.1208,8.1747,8.2439,8.2862,8.3632,8.4516,8.5363,8.5824,8.6094,8.6094,8.6094,8.6094,8.6094,8.6094,8.6094,8.6094,8.6094,8.6094,8.6094,8.6094,8.6094,8.6099,8.7175,8.8286,8.9286,9.0556,9.0979,9.0517,9.0979,9.0979,9.0517,9.0979,9.121,9.121,9.121,9.121,9.121,9.121,9.121,9.121,9.121,9.121,9.121,9.121,9.121,9.121,9.121,9.121,9.121,9.121,9.121,9.121,9.121,9.121,9.121,9.121,9.121,9.121,9.121,9.121,9.121,9.121,9.121,9.121,9.121,9.121,9.121,9.121,9.121,9.121,9.121,9.121,9.121,9.121,9.121,9.121,9.121,9.121,9.121,9.121,9.121,9.121,9.121,9.121,9.121,9.121,9.121,9.121,9.121,9.121,9.121,9.121,9.121,9.121,9.121,9.121,9.121,9.121,9.121,9.121,9.121,9.121,9.121,6.9626,7.285,7.4867,7.88,8.0015,0.0,8.0977,8.1323,8.1439,8.117,8.1747,8.2554,8.3439,8.4324,8.517,8.5978,8.6094,8.6094,8.6094,8.6094,8.6094,8.6094,8.6094,8.6094,8.6094,8.6094,8.6094,8.6094,8.6094,8.6209,8.6363,8.7478,8.8363,8.8902,9.0402,9.1133,9.0979,9.1133,9.1133,9.0979,9.1133,9.121,9.121,9.121,9.121,9.121,9.121,9.121,9.121,9.121,9.121,9.121,9.121,9.121,9.121,9.121,9.121,9.121,9.121,9.121,9.121,9.121,9.121,9.121,9.121,9.121,9.121,9.121,9.121,9.121,9.121,9.121,9.121,9.121,9.121,9.121,9.121,9.121,9.121,9.121,9.121,9.121,9.121,9.121,9.121,9.121,9.121,9.121,9.121,9.121,9.121,9.121,9.121,9.121,9.121,9.121,9.121,9.121,9.121,9.121,9.121,9.121,9.121,9.121,9.121,9.121,9.121,9.121,9.121,9.121,9.121,9.121,6.0913,0.0,7.4572,0.0,8.09,8.1823,0.0,0.0,8.2862,8.14,8.1747,8.2554,8.3439,8.4324,8.517,8.5978,8.6094,8.6094,8.6094,8.6094,8.6094,8.6094,8.6094,8.6094,8.6094,8.6094,8.6094,8.6094,8.6094,8.6517,8.7517,8.8666,8.9402,8.9748,9.071,9.0825,9.0094,9.0825,9.0825,9.0094,9.0825,9.121,9.121,9.121,9.121,9.121,9.121,9.121,9.121,9.121,9.121,9.121,9.121,9.121,9.121,9.121,9.121,9.121,9.121,9.121,9.121,9.121,9.121,9.121,9.121,9.121,9.121,9.121,9.121,9.121,9.121,9.121,9.121,9.121,9.121,9.121,9.121,9.121,9.121,9.121,9.121,9.121,9.121,9.121,9.121,9.121,9.121,9.121,9.121,9.121,9.121,9.121,9.121,9.121,9.121,9.121,9.121,9.121,9.121,9.121,9.121,9.121,9.121,9.121,9.121,9.121,9.121,9.121,9.121,9.121,9.121,9.121,6.1552,6.8365,7.4514,0.0,8.0708,8.1516,8.117,8.2016,8.2516,8.1323,8.2131,8.3131,8.3516,8.467,8.5709,8.6055,8.6094,8.6094,8.6094,8.6094,8.6094,8.6094,8.6094,8.6094,8.6094,8.6094,8.6094,8.6094,8.6094,8.6324,8.6824,8.7902,8.8748,8.921,9.0056,9.0517,9.0633,9.1018,9.1018,9.0633,9.1018,9.121,9.121,9.121,9.121,9.121,9.121,9.121,9.121,9.121,9.121,9.121,9.121,9.121,9.121,9.121,9.121,9.121,9.121,9.121,9.121,9.121,9.121,9.121,9.121,9.121,9.121,9.121,9.121,9.121,9.121,9.121,9.121,9.121,9.121,9.121,9.121,9.121,9.121,9.121,9.121,9.121,9.121,9.121,9.121,9.121,9.121,9.121,9.121,9.121,9.121,9.121,9.121,9.121,9.121,9.121,9.121,9.121,9.121,9.121,9.121,9.121,9.121,9.121,9.121,9.121,9.121,9.121,9.121,9.121,9.121,9.121,0.0,0.0,7.2063,7.6847,7.9223,8.0554,0.0,8.1708,8.2054,8.1285,8.2439,8.3593,8.3593,8.4978,8.6094,8.6094,8.6094,8.6094,8.6094,8.6094,8.6094,8.6094,8.6094,8.6094,8.6094,8.6094,8.6094,8.6094,8.6094,8.6209,8.644,8.7248,8.8017,8.8671,8.9479,9.021,9.0864,9.1095,9.121,9.121,9.121,9.121,9.121,9.121,9.121,9.121,9.121,9.121,9.121,9.121,9.121,9.121,9.121,9.121,9.121,9.121,9.121,9.121,9.121,9.121,9.121,9.121,9.121,9.121,9.121,9.121,9.121,9.121,9.121,9.121,9.121,9.121,9.121,9.121,9.121,9.121,9.121,9.121,9.121,9.121,9.121,9.121,9.121,9.121,9.121,9.121,9.121,9.121,9.121,9.121,9.121,9.121,9.121,9.121,9.121,9.121,9.121,9.121,9.121,9.121,9.121,9.121,9.121,9.121,9.121,9.121,9.121,9.121,9.121,9.121,9.121,9.121,0.0,6.0581,0.0,7.1619,7.5916,7.9054,0.0,8.1708,8.2054,8.1285,8.2439,8.3593,8.3593,8.4978,8.6094,8.6094,8.6094,8.6094,8.6094,8.6094,8.6094,8.6094,8.6094,8.6094,8.6094,8.6094,8.6094,8.6094,8.6094,8.6478,8.7286,8.7401,8.7825,8.8671,8.9479,8.994,8.9979,9.0787,9.121,9.121,9.121,9.121,9.121,9.121,9.121,9.121,9.121,9.121,9.121,9.121,9.121,9.121,9.121,9.121,9.121,9.121,9.121,9.121,9.121,9.121,9.121,9.121,9.121,9.121,9.121,9.121,9.121,9.121,9.121,9.121,9.121,9.121,9.121,9.121,9.121,9.121,9.121,9.121,9.121,9.121,9.121,9.121,9.121,9.121,9.121,9.121,9.121,9.121,9.121,9.121,9.121,9.121,9.121,9.121,9.121,9.121,9.121,9.121,9.121,9.121,9.121,9.121,9.121,9.121,9.121,9.121,9.121,9.121,9.121,9.121,9.121,9.121,0.0,0.0,0.0,6.8629,7.3073,7.6191,7.8216,8.0554,8.2208,8.1939,8.2785,8.3593,8.3593,8.4978,8.6094,8.6094,8.6094,8.6094,8.6094,8.6094,8.6094,8.6094,8.6094,8.6094,8.6094,8.6094,8.6094,8.6094,8.6094,8.6247,8.6555,8.6555,8.6978,8.7825,8.8132,8.8825,8.9902,9.0748,9.121,9.121,9.121,9.121,9.121,9.121,9.121,9.121,9.121,9.121,9.121,9.121,9.121,9.121,9.121,9.121,9.121,9.121,9.121,9.121,9.121,9.121,9.121,9.121,9.121,9.121,9.121,9.121,9.121,9.121,9.121,9.121,9.121,9.121,9.121,9.121,9.121,9.121,9.121,9.121,9.121,9.121,9.121,9.121,9.121,9.121,9.121,9.121,9.121,9.121,9.121,9.121,9.121,9.121,9.121,9.121,9.121,9.121,9.121,9.121,9.121,9.121,9.121,9.121,9.121,9.121,9.121,9.121,9.121,9.121,9.121,9.121,9.121,9.121,5.3493,0.0,0.0,0.0,6.8874,7.2204,7.6492,7.9076,8.0862,8.1708,8.3054,8.3939,8.3632,8.4978,8.6094,8.6094,8.6094,8.6094,8.6094,8.6094,8.6094,8.6094,8.6094,8.6094,8.6094,8.6094,8.6094,8.6094,8.6094,8.6094,8.6094,8.6094,8.6517,8.7363,8.7671,8.8517,8.9902,9.0748,9.121,9.121,9.121,9.121,9.121,9.121,9.121,9.121,9.121,9.121,9.121,9.121,9.121,9.121,9.121,9.121,9.121,9.121,9.121,9.121,9.121,9.121,9.121,9.121,9.121,9.121,9.121,9.121,9.121,9.121,9.121,9.121,9.121,9.121,9.121,9.121,9.121,9.121,9.121,9.121,9.121,9.121,9.121,9.121,9.121,9.121,9.121,9.121,9.121,9.121,9.121,9.121,9.121,9.121,9.121,9.121,9.121,9.121,9.121,9.121,9.121,9.121,9.121,9.121,9.121,9.121,9.121,9.121,9.121,9.121,9.121,9.121,9.121,9.121,0.0,0.0,0.0,0.0,6.3323,6.7184,7.5394,7.7155,7.7823,8.0439,8.2978,8.4478,8.3747,8.4978,8.6094,8.6094,8.6094,8.6094,8.6094,8.6094,8.6094,8.6094,8.6094,8.6094,8.6094,8.6094,8.6094,8.6094,8.6094,8.6094,8.6094,8.6094,8.6478,8.7325,8.8209,8.9056,8.9863,9.0748,9.1171,9.121,9.121,9.121,9.121,9.121,9.121,9.121,9.121,9.121,9.121,9.121,9.121,9.121,9.121,9.121,9.121,9.121,9.121,9.121,9.121,9.121,9.121,9.121,9.121,9.121,9.121,9.121,9.121,9.121,9.121,9.121,9.121,9.121,9.121,9.121,9.121,9.121,9.121,9.121,9.121,9.121,9.121,9.121,9.121,9.121,9.121,9.121,9.121,9.121,9.121,9.121,9.121,9.121,9.121,9.121,9.121,9.121,9.121,9.121,9.121,9.121,9.121,9.121,9.121,9.121,9.121,9.121,9.121,9.121,9.121,9.121,9.121,9.121,4.8715,0.0,0.0,0.0,0.0,0.0,6.6289,6.937,7.2531,7.6935,7.9127,8.0939,8.317,8.4978,8.6094,8.6094,8.6094,8.6094,8.6094,8.6094,8.6094,8.6094,8.6094,8.6094,8.6094,8.6094,8.6094,8.6094,8.6094,8.6094,8.6094,8.6094,8.6209,8.644,8.7325,8.8171,8.9017,8.9863,9.0594,9.121,9.121,9.121,9.121,9.121,9.121,9.121,9.121,9.121,9.121,9.121,9.121,9.121,9.121,9.121,9.121,9.121,9.121,9.121,9.121,9.121,9.121,9.121,9.121,9.121,9.121,9.121,9.121,9.121,9.121,9.121,9.121,9.121,9.121,9.121,9.121,9.121,9.121,9.121,9.121,9.121,9.121,9.121,9.121,9.121,9.121,9.121,9.121,9.121,9.121,9.121,9.121,9.121,9.121,9.121,9.121,9.121,9.121,9.121,9.121,9.121,9.121,9.121,9.121,9.121,9.121,9.121,9.121,9.121,9.121,9.121,9.121,9.121,0.0,0.0,0.0,0.0,0.0,0.0,6.5156,6.7619,7.0642,7.7645,7.9966,8.1474,8.3715,8.5209,8.6094,8.6094,8.6094,8.6094,8.6094,8.6094,8.6094,8.6094,8.6094,8.6094,8.6094,8.6094,8.6094,8.6094,8.6094,8.6094,8.6094,8.6094,8.6094,8.6094,8.694,8.7632,8.8132,8.9325,9.0171,9.0671,9.1018,9.121,9.121,9.121,9.121,9.121,9.121,9.121,9.121,9.121,9.121,9.121,9.121,9.121,9.121,9.121,9.121,9.121,9.121,9.121,9.121,9.121,9.121,9.121,9.121,9.121,9.121,9.121,9.121,9.121,9.121,9.121,9.121,9.121,9.121,9.121,9.121,9.121,9.121,9.121,9.121,9.121,9.121,9.121,9.121,9.121,9.121,9.121,9.121,9.121,9.121,9.121,9.121,9.121,9.121,9.121,9.121,9.121,9.121,9.121,9.121,9.121,9.121,9.121,9.121,9.121,9.121,9.121,9.121,9.121,9.121,9.121,0.0,0.0,0.0,0.0,0.0,0.0,6.7158,6.8103,6.9699,7.8631,8.1267,8.2263,8.3231,8.4253,8.4939,8.4863,8.5324,8.5786,8.6055,8.617,8.6209,8.6094,8.6209,8.6209,8.6094,8.6094,8.6094,8.6094,8.6094,8.6094,8.6094,8.6094,8.6094,8.6094,8.6863,8.7286,8.7401,8.8979,8.9825,8.9902,9.0787,9.121,9.121,9.121,9.121,9.121,9.121,9.121,9.121,9.121,9.121,9.121,9.121,9.121,9.121,9.121,9.121,9.121,9.121,9.121,9.121,9.121,9.121,9.121,9.121,9.121,9.121,9.121,9.121,9.121,9.121,9.121,9.121,9.121,9.121,9.121,9.121,9.121,9.121,9.121,9.121,9.121,9.121,9.121,9.121,9.121,9.121,9.121,9.121,9.121,9.121,9.121,9.121,9.121,9.121,9.121,9.121,9.121,9.121,9.121,9.121,9.121,9.121,9.121,9.121,9.121,9.121,9.121,9.121,9.121,9.121,9.121,0.0,0.0,0.0,0.0,0.0,0.0,0.0,5.9181,6.1871,6.65,6.8716,7.0692,7.3581,7.6216,7.7746,7.7053,8.0362,8.3747,8.5824,8.6709,8.6901,8.617,8.6709,8.6863,8.617,8.6094,8.6094,8.6094,8.6094,8.6094,8.6094,8.6094,8.6094,8.6094,8.6247,8.6709,8.7401,8.8402,8.9248,8.9902,9.0787,9.121,9.121,9.121,9.121,9.121,9.121,9.121,9.121,9.121,9.121,9.121,9.121,9.121,9.121,9.121,9.121,9.121,9.121,9.121,9.121,9.121,9.121,9.121,9.121,9.121,9.121,9.121,9.121,9.121,9.121,9.121,9.121,9.121,9.121,9.121,9.121,9.121,9.121,9.121,9.121,9.121,9.121,9.121,9.121,9.121,9.121,9.121,9.121,9.121,9.121,9.121,9.121,9.121,9.121,9.121,9.121,9.121,9.121,9.121,9.121,9.121,9.121,9.121,9.121,9.121,9.121,9.121,9.121,9.121,9.121,9.121,0.0,0.0,0.0,5.7396,0.0,0.0,0.0,0.0,6.1167,6.6851,6.8289,6.9391,7.2189,7.3852,7.4899,7.5284,7.8554,8.1208,8.1631,8.4978,8.7401,8.7401,8.7401,8.7401,8.7401,8.7017,8.694,8.7363,8.6978,8.6748,8.6748,8.6324,8.6094,8.6094,8.6094,8.6324,8.6748,8.7632,8.8479,8.9325,9.0171,9.0787,9.121,9.121,9.121,9.121,9.121,9.121,9.121,9.121,9.121,9.121,9.121,9.121,9.121,9.121,9.121,9.121,9.121,9.121,9.121,9.121,9.121,9.121,9.121,9.121,9.121,9.121,9.121,9.121,9.121,9.121,9.121,9.121,9.121,9.121,9.121,9.121,9.121,9.121,9.121,9.121,9.121,9.121,9.121,9.121,9.121,9.121,9.121,9.121,9.121,9.121,9.121,9.121,9.121,9.121,9.121,9.121,9.121,9.121,9.121,9.121,9.121,9.121,9.121,9.121,9.121,9.121,9.121,9.121,9.121,9.121,0.0,0.0,0.0,0.0,0.0,5.9801,0.0,0.0,0.0,6.8257,6.8884,6.8862,7.0685,7.1242,7.1814,7.3005,7.5947,7.763,7.6245,8.1323,8.5517,8.6401,8.7017,8.7401,8.744,8.6555,8.6709,8.8556,8.7132,8.6555,8.7363,8.6748,8.6286,8.6094,8.6094,8.6094,8.6094,8.6978,8.7825,8.8709,8.9517,9.0364,9.121,9.121,9.121,9.121,9.121,9.121,9.121,9.121,9.121,9.121,9.121,9.121,9.121,9.121,9.121,9.121,9.121,9.121,9.121,9.121,9.121,9.121,9.121,9.121,9.121,9.121,9.121,9.121,9.121,9.121,9.121,9.121,9.121,9.121,9.121,9.121,9.121,9.121,9.121,9.121,9.121,9.121,9.121,9.121,9.121,9.121,9.121,9.121,9.121,9.121,9.121,9.121,9.121,9.121,9.121,9.121,9.121,9.121,9.121,9.121,9.121,9.121,9.121,9.121,9.121,9.121,9.121,9.121,9.121,9.121,0.0,0.0,0.0,0.0,6.3383,0.0,0.0,0.0,5.9875,5.966,0.0,6.0102,6.0369,0.0,0.0,6.313,6.8014,7.1822,7.1668,7.4899,7.763,7.8477,8.3824,8.6247,8.3324,8.1593,8.2901,8.8286,8.4401,8.3439,8.7209,8.7325,8.6901,8.6132,8.6094,8.6094,8.6094,8.6978,8.7825,8.8709,8.9517,9.0364,9.121,9.121,9.121,9.121,9.121,9.121,9.121,9.121,9.121,9.121,9.121,9.121,9.121,9.121,9.121,9.121,9.121,9.121,9.121,9.121,9.121,9.121,9.121,9.121,9.121,9.121,9.121,9.121,9.121,9.121,9.121,9.121,9.121,9.121,9.121,9.121,9.121,9.121,9.121,9.121,9.121,9.121,9.121,9.121,9.121,9.121,9.121,9.121,9.121,9.121,9.121,9.121,9.121,9.121,9.121,9.121,9.121,9.121,9.121,9.121,9.121,9.121,9.121,9.121,9.121,9.121,9.121,9.121,9.121,9.121,0.0,0.0,0.0,0.0,0.0,0.0,6.1254,0.0,5.919,0.0,0.0,0.0,0.0,0.0,0.0,0.0,6.5588,6.8024,6.7333,7.1475,7.5245,7.7092,7.89,8.0439,8.1516,8.1862,8.4055,8.9017,8.467,8.3862,8.8594,8.794,8.7209,8.6863,8.6363,8.6094,8.6094,8.6478,8.7094,8.794,8.8786,8.9633,9.0479,9.0979,9.121,9.121,9.121,9.121,9.121,9.121,9.121,9.121,9.121,9.121,9.121,9.121,9.121,9.121,9.121,9.121,9.121,9.121,9.121,9.121,9.121,9.121,9.121,9.121,9.121,9.121,9.121,9.121,9.121,9.121,9.121,9.121,9.121,9.121,9.121,9.121,9.1595,9.1941,9.1941,9.1518,9.121,9.121,9.121,9.121,9.121,9.121,9.121,9.121,9.121,9.121,9.121,9.121,9.121,9.121,9.121,9.121,9.121,9.1672,9.171,9.121,9.171,9.171,9.121,9.121,9.121,9.121,9.121,9.121,6.8013,0.0,0.0,0.0,0.0,0.0,0.0,0.0,0.0,0.0,0.0,0.0,0.0,0.0,0.0,0.0,0.0,6.5329,6.4385,6.7782,7.1245,7.3553,7.3707,7.5361,7.9631,7.9669,8.1977,8.8094,8.3593,8.3285,8.9594,8.8748,8.7863,8.7401,8.6786,8.6324,8.6094,8.6094,8.6555,8.7401,8.8286,8.9133,8.994,9.0787,9.1325,9.1556,9.1287,9.1325,9.1556,9.1287,9.121,9.121,9.121,9.121,9.121,9.121,9.121,9.121,9.121,9.121,9.121,9.121,9.121,9.121,9.121,9.121,9.121,9.121,9.121,9.121,9.121,9.121,9.121,9.121,9.121,9.121,9.121,9.121,9.121,9.121,9.171,9.2133,9.2133,9.1825,9.1556,9.1556,9.1364,9.121,9.121,9.121,9.121,9.121,9.121,9.121,9.121,9.121,9.121,9.121,9.121,9.121,9.121,9.2056,9.221,9.1556,9.2172,9.2172,9.1556,9.1556,9.1441,9.121,9.121,9.121,0.0,0.0,0.0,6.7167,0.0,0.0,0.0,0.0,6.1988,0.0,0.0,0.0,0.0,0.0,0.0,0.0,0.0,0.0,0.0,0.0,0.0,0.0,0.0,7.2706,7.7015,7.2245,7.3399,8.4247,7.9554,8.0208,8.9402,8.9863,8.9094,8.744,8.7363,8.694,8.6094,8.6094,8.6555,8.7401,8.8286,8.9133,8.994,9.0787,9.1672,9.2402,9.1556,9.1672,9.2402,9.1556,9.121,9.121,9.121,9.121,9.121,9.121,9.121,9.121,9.121,9.121,9.121,9.121,9.121,9.121,9.121,9.121,9.121,9.121,9.121,9.121,9.121,9.121,9.121,9.121,9.121,9.121,9.121,9.121,9.121,9.121,9.121,9.1248,9.1248,9.1902,9.2441,9.2441,9.1748,9.121,9.121,9.121,9.121,9.121,9.121,9.121,9.121,9.121,9.121,9.121,9.121,9.121,9.121,9.2056,9.2479,9.2441,9.2479,9.2479,9.2441,9.2441,9.2018,9.121,9.121,9.121,7.6553,7.7361,7.7169,7.1475,7.0283,6.9025,6.3501,0.0,0.0,0.0,0.0,0.0,0.0,0.0,0.0,0.0,0.0,0.0,0.0,0.0,6.0435,0.0,0.0,0.0,0.0,0.0,7.6746,8.2747,8.1823,8.3862,9.0402,9.021,8.9633,8.9056,8.8556,8.8132,8.7825,8.7825,8.8248,8.9056,8.9363,8.994,9.0787,9.1672,9.221,9.2479,9.2172,9.2518,9.321,9.2402,9.2056,9.2056,9.2056,9.171,9.121,9.121,9.121,9.121,9.121,9.121,9.121,9.121,9.121,9.121,9.121,9.121,9.121,9.121,9.121,9.121,9.121,9.121,9.121,9.121,9.121,9.121,9.121,9.121,9.121,9.121,9.1672,9.221,9.2749,9.3095,9.2903,9.1825,9.1402,9.1402,9.1979,9.1556,9.1441,9.2018,9.1556,9.121,9.121,9.121,9.121,9.121,9.121,9.121,9.121,9.2556,9.3018,9.2518,9.3018,9.3018,9.2479,9.2479,9.2056,9.121,9.1787,9.1748,7.8353,7.9062,7.9015,7.4284,7.3091,7.1706,6.632,6.5356,6.5273,0.0,0.0,0.0,0.0,0.0,0.0,0.0,0.0,0.0,0.0,5.9588,0.0,0.0,0.0,0.0,0.0,0.0,7.4437,8.1747,8.1131,8.3439,9.0364,9.0517,9.021,8.9902,8.9402,8.8979,8.8709,8.8709,8.9094,8.9902,9.021,9.0825,9.171,9.2556,9.3095,9.3364,9.3056,9.3403,9.4095,9.3249,9.2749,9.2479,9.2479,9.1979,9.121,9.121,9.121,9.121,9.121,9.121,9.121,9.121,9.121,9.121,9.121,9.121,9.121,9.121,9.121,9.1287,9.1595,9.1672,9.1748,9.2018,9.2095,9.2018,9.171,9.1672,9.1556,9.1248,9.1902,9.2672,9.3172,9.3518,9.3326,9.2249,9.1864,9.1748,9.2018,9.1556,9.1441,9.1979,9.1825,9.1672,9.1672,9.1364,9.121,9.121,9.121,9.121,9.121,9.2826,9.3441,9.2941,9.3441,9.3441,9.2941,9.2941,9.2326,9.1248,9.2402,9.2326]},{"header":{"parameterUnit":"m.s-1","parameterCategory":1,"la1":30.6,"la2":29.2853,"lo1":-89.7004,"lo2":-87.6739,"dx":0.0162,"dy":0.0183,"nx":112,"ny":82,"refTime":"2022-12-24T18:00:00:Z","depth":0,"parameterNumber":3,"parameterNumberName":"V-component_of_WINDS"},"data":[0.0,0.0,0.0,0.0,0.0,0.0,0.0,0.0,0.0,0.0,0.0,0.0,0.0,0.0,0.0,0.0,0.0,0.0,0.0,0.0,0.0,0.0,0.0,0.0,0.0,0.0,0.0,0.0,0.0,0.0,0.0,0.0,0.0,0.0,0.0,0.0,0.0,0.0,0.0,0.0,0.0,0.0,0.0,0.0,0.0,0.0,0.0,0.0,0.0,0.0,0.0,0.0,0.0,0.0,0.0,0.0,0.0,0.0,0.0,0.0,0.0,0.0,0.0,0.0,0.0,0.0,0.0,0.0,0.0,0.0,0.0,0.0,0.0,0.0,0.0,0.0,0.0,0.0,0.0,0.0,0.0,0.0,0.0,0.0,0.0,0.0,0.0,0.0,0.0,0.0,-2.6445,-2.8959,-3.1608,-3.2648,-3.1529,-2.9233,-2.5412,-1.9807,0.0,0.0,0.0,0.0,0.0,0.0,0.0,0.0,0.0,0.0,0.0,0.0,0.0,0.0,0.0,0.0,0.0,0.0,0.0,0.0,0.0,0.0,0.0,0.0,0.0,0.0,0.0,0.0,0.0,0.0,0.0,0.0,0.0,0.0,0.0,0.0,0.0,0.0,0.0,0.0,0.0,0.0,0.0,0.0,0.0,0.0,0.0,0.0,0.0,0.0,0.0,0.0,0.0,0.0,0.0,0.0,0.0,0.0,0.0,0.0,0.0,0.0,0.0,0.0,0.0,0.0,0.0,0.0,0.0,0.0,0.0,0.0,0.0,0.0,0.0,0.0,0.0,0.0,0.0,0.0,0.0,0.0,0.0,0.0,0.0,0.0,0.0,0.0,0.0,0.0,0.0,0.0,0.0,0.0,0.0,0.0,0.0,0.0,0.0,0.0,0.0,0.0,0.0,0.0,-2.6571,-3.3058,-3.5084,-3.4956,-3.2093,-3.1135,-2.739,-1.9834,0.0,0.0,0.0,0.0,0.0,0.0,0.0,0.0,0.0,0.0,0.0,0.0,0.0,0.0,0.0,0.0,0.0,0.0,0.0,0.0,0.0,0.0,0.0,0.0,0.0,0.0,0.0,0.0,0.0,0.0,0.0,0.0,0.0,0.0,0.0,0.0,0.0,0.0,0.0,0.0,0.0,0.0,0.0,0.0,0.0,0.0,0.0,0.0,0.0,0.0,0.0,0.0,0.0,0.0,0.0,0.0,0.0,0.0,0.0,0.0,0.0,0.0,0.0,0.0,0.0,0.0,0.0,0.0,0.0,0.0,0.0,0.0,0.0,0.0,0.0,0.0,0.0,0.0,0.0,0.0,0.0,0.0,0.0,0.0,0.0,0.0,0.0,0.0,0.0,0.0,0.0,0.0,0.0,0.0,0.0,0.0,0.0,0.0,0.0,0.0,0.0,0.0,0.0,-2.5819,-2.9317,-3.5393,-3.6641,-3.5818,-3.2911,-3.2193,-2.8614,-2.0551,-1.8974,0.0,0.0,0.0,0.0,0.0,0.0,0.0,0.0,0.0,0.0,0.0,0.0,0.0,0.0,0.0,0.0,0.0,0.0,0.0,0.0,0.0,0.0,0.0,0.0,0.0,0.0,0.0,0.0,0.0,0.0,0.0,0.0,0.0,0.0,0.0,0.0,0.0,0.0,0.0,0.0,0.0,0.0,0.0,0.0,0.0,0.0,0.0,0.0,0.0,0.0,0.0,0.0,0.0,0.0,0.0,0.0,0.0,0.0,0.0,0.0,0.0,0.0,0.0,0.0,0.0,0.0,0.0,0.0,0.0,0.0,0.0,0.0,0.0,0.0,0.0,0.0,0.0,0.0,0.0,0.0,0.0,0.0,0.0,0.0,0.0,0.0,0.0,0.0,0.0,0.0,0.0,0.0,0.0,0.0,0.0,0.0,0.0,0.0,0.0,0.0,0.0,0.0,-2.9473,-3.2344,-3.6816,-3.7578,-3.6529,-3.3547,-3.2989,-2.9312,-2.1267,-1.9185,0.0,0.0,0.0,0.0,0.0,0.0,0.0,0.0,0.0,0.0,0.0,0.0,0.0,0.0,0.0,0.0,0.0,0.0,0.0,0.0,0.0,0.0,0.0,0.0,0.0,0.0,0.0,0.0,0.0,0.0,0.0,0.0,0.0,0.0,0.0,0.0,0.0,0.0,0.0,0.0,0.0,0.0,0.0,0.0,0.0,0.0,0.0,0.0,0.0,0.0,0.0,0.0,0.0,0.0,0.0,0.0,0.0,0.0,0.0,0.0,0.0,0.0,0.0,0.0,0.0,0.0,0.0,0.0,0.0,0.0,0.0,0.0,0.0,0.0,0.0,0.0,0.0,0.0,0.0,0.0,0.0,0.0,0.0,0.0,0.0,0.0,0.0,0.0,0.0,0.0,0.0,0.0,0.0,0.0,0.0,0.0,0.0,0.0,0.0,0.0,0.0,0.0,-3.0762,-3.4668,-3.7051,-3.8359,-3.7559,-3.3809,-3.3199,-2.9676,-2.1565,-1.9679,0.0,0.0,0.0,0.0,0.0,0.0,0.0,0.0,0.0,0.0,0.0,0.0,0.0,0.0,0.0,0.0,0.0,0.0,0.0,0.0,0.0,0.0,0.0,0.0,0.0,0.0,0.0,0.0,0.0,0.0,0.0,0.0,0.0,0.0,0.0,0.0,0.0,0.0,0.0,0.0,0.0,0.0,0.0,0.0,0.0,0.0,0.0,0.0,0.0,0.0,0.0,0.0,0.0,0.0,0.0,0.0,0.0,0.0,0.0,0.0,0.0,0.0,0.0,0.0,0.0,0.0,0.0,0.0,0.0,0.0,0.0,0.0,0.0,0.0,0.0,0.0,0.0,0.0,0.0,0.0,0.0,0.0,0.0,0.0,0.0,0.0,0.0,0.0,0.0,0.0,0.0,0.0,0.0,0.0,0.0,0.0,0.0,0.0,0.0,0.0,0.0,0.0,-3.0293,-3.3489,-3.6271,-3.6942,-3.5769,-3.2283,-3.1682,-2.8567,-2.1876,0.0,0.0,0.0,0.0,0.0,0.0,0.0,0.0,0.0,0.0,0.0,0.0,0.0,0.0,0.0,0.0,0.0,0.0,0.0,0.0,0.0,0.0,0.0,0.0,0.0,0.0,0.0,0.0,0.0,0.0,0.0,0.0,0.0,0.0,0.0,0.0,0.0,0.0,0.0,0.0,0.0,0.0,0.0,0.0,0.0,0.0,0.0,0.0,0.0,0.0,0.0,0.0,0.0,0.0,0.0,0.0,0.0,0.0,0.0,0.0,0.0,0.0,0.0,0.0,0.0,0.0,0.0,0.0,0.0,0.0,0.0,0.0,0.0,0.0,0.0,0.0,0.0,0.0,0.0,0.0,0.0,0.0,0.0,0.0,0.0,0.0,0.0,0.0,0.0,0.0,0.0,0.0,0.0,0.0,0.0,0.0,0.0,0.0,0.0,0.0,0.0,0.0,-2.7129,-3.0762,-3.3688,-3.57,-3.6138,-3.5003,-3.1356,-3.0776,-2.8052,-2.2055,0.0,0.0,0.0,0.0,0.0,0.0,0.0,0.0,0.0,0.0,0.0,0.0,0.0,0.0,0.0,0.0,0.0,0.0,0.0,0.0,0.0,0.0,0.0,0.0,0.0,0.0,0.0,0.0,0.0,0.0,0.0,0.0,0.0,0.0,0.0,0.0,0.0,0.0,0.0,0.0,0.0,0.0,0.0,0.0,0.0,0.0,0.0,0.0,0.0,0.0,0.0,0.0,0.0,0.0,0.0,0.0,0.0,0.0,0.0,0.0,0.0,0.0,0.0,0.0,0.0,0.0,0.0,0.0,0.0,0.0,0.0,0.0,0.0,0.0,0.0,0.0,0.0,0.0,0.0,0.0,0.0,0.0,0.0,0.0,0.0,0.0,0.0,0.0,0.0,0.0,0.0,0.0,0.0,0.0,0.0,0.0,0.0,0.0,0.0,0.0,0.0,0.0,-2.7324,-3.2539,-3.5788,-3.5501,-3.6579,-3.5553,-3.1386,-3.06,-2.7987,0.0,0.0,0.0,0.0,0.0,0.0,0.0,0.0,0.0,0.0,0.0,0.0,0.0,0.0,0.0,0.0,0.0,0.0,0.0,0.0,0.0,0.0,0.0,0.0,0.0,0.0,0.0,0.0,0.0,0.0,0.0,0.0,0.0,0.0,0.0,0.0,0.0,0.0,0.0,0.0,0.0,0.0,0.0,0.0,0.0,0.0,0.0,0.0,0.0,0.0,0.0,0.0,0.0,0.0,0.0,0.0,0.0,0.0,0.0,0.0,0.0,0.0,0.0,0.0,0.0,0.0,0.0,0.0,0.0,0.0,0.0,0.0,0.0,0.0,0.0,0.0,0.0,0.0,0.0,0.0,0.0,0.0,0.0,0.0,0.0,0.0,0.0,0.0,0.0,0.0,0.0,0.0,0.0,0.0,0.0,0.0,0.0,0.0,0.0,0.0,0.0,0.0,0.0,-2.8125,-3.1358,-3.3426,-3.3568,-3.2699,-3.1112,-2.8655,-2.8066,-2.6088,-2.1603,0.0,0.0,0.0,0.0,0.0,0.0,0.0,0.0,0.0,0.0,0.0,0.0,0.0,0.0,0.0,0.0,0.0,0.0,0.0,0.0,0.0,0.0,0.0,0.0,0.0,0.0,0.0,0.0,0.0,0.0,0.0,0.0,0.0,0.0,0.0,0.0,0.0,0.0,0.0,0.0,0.0,0.0,0.0,0.0,0.0,0.0,0.0,0.0,0.0,0.0,0.0,0.0,0.0,0.0,0.0,0.0,0.0,0.0,0.0,0.0,0.0,0.0,0.0,0.0,0.0,0.0,0.0,0.0,0.0,0.0,0.0,0.0,0.0,0.0,0.0,0.0,0.0,0.0,0.0,0.0,0.0,0.0,0.0,0.0,0.0,0.0,0.0,0.0,0.0,0.0,0.0,0.0,0.0,0.0,0.0,0.0,0.0,0.0,0.0,0.0,0.0,0.0,-2.8427,-3.052,-3.2039,-3.2637,-3.1105,-2.908,-2.723,-2.6921,-2.5491,-2.2365,0.0,0.0,0.0,0.0,0.0,0.0,0.0,0.0,0.0,0.0,0.0,0.0,0.0,0.0,0.0,0.0,0.0,0.0,0.0,0.0,0.0,0.0,0.0,0.0,0.0,0.0,0.0,0.0,0.0,0.0,0.0,0.0,0.0,0.0,0.0,0.0,0.0,0.0,0.0,0.0,0.0,0.0,0.0,0.0,0.0,0.0,0.0,0.0,0.0,0.0,0.0,0.0,0.0,0.0,0.0,0.0,0.0,0.0,0.0,0.0,0.0,0.0,0.0,0.0,0.0,0.0,0.0,0.0,0.0,0.0,0.0,0.0,0.0,0.0,0.0,0.0,0.0,0.0,0.0,0.0,0.0,0.0,0.0,0.0,0.0,0.0,0.0,0.0,0.0,0.0,0.0,0.0,0.0,0.0,0.0,0.0,0.0,0.0,0.0,0.0,0.0,0.0,-2.8186,-2.9787,-3.0991,-3.2086,-3.0639,-2.882,-2.6974,-2.68,-2.5919,-2.3901,0.0,0.0,0.0,0.0,0.0,0.0,0.0,0.0,0.0,0.0,0.0,0.0,0.0,0.0,0.0,0.0,0.0,0.0,0.0,0.0,0.0,0.0,0.0,0.0,0.0,0.0,0.0,0.0,0.0,0.0,0.0,0.0,0.0,0.0,0.0,0.0,0.0,0.0,0.0,0.0,0.0,0.0,0.0,0.0,0.0,0.0,0.0,0.0,0.0,0.0,0.0,0.0,0.0,0.0,0.0,0.0,0.0,0.0,0.0,0.0,-1.5586,-1.4318,0.0,0.0,0.0,0.0,0.0,0.0,0.0,0.0,0.0,0.0,0.0,0.0,0.0,0.0,0.0,0.0,0.0,0.0,0.0,0.0,0.0,0.0,0.0,0.0,0.0,0.0,0.0,0.0,0.0,0.0,0.0,0.0,0.0,0.0,0.0,0.0,0.0,0.0,0.0,0.0,-2.7176,-2.7992,-2.8805,-2.9946,-2.8289,-2.7037,-2.68,-2.6613,-2.5705,-2.3888,-2.2565,0.0,0.0,0.0,0.0,0.0,0.0,0.0,0.0,0.0,0.0,0.0,0.0,0.0,0.0,0.0,0.0,0.0,0.0,0.0,0.0,0.0,0.0,0.0,0.0,0.0,0.0,0.0,0.0,0.0,0.0,0.0,0.0,0.0,0.0,0.0,0.0,0.0,0.0,0.0,0.0,0.0,0.0,0.0,0.0,0.0,0.0,0.0,0.0,0.0,0.0,0.0,0.0,0.0,0.0,0.0,0.0,0.0,0.0,0.0,-1.674,-1.5805,0.0,0.0,0.0,0.0,0.0,0.0,0.0,0.0,0.0,0.0,0.0,0.0,0.0,0.0,0.0,0.0,0.0,0.0,0.0,0.0,0.0,0.0,0.0,0.0,0.0,0.0,0.0,0.0,0.0,0.0,0.0,0.0,0.0,0.0,0.0,0.0,0.0,0.0,0.0,0.0,-2.7129,-2.7139,-2.7573,-2.9442,-2.7969,-2.6867,-2.7028,-2.6894,-2.6306,-2.5104,-2.3527,0.0,0.0,0.0,0.0,0.0,0.0,0.0,0.0,0.0,0.0,0.0,0.0,0.0,0.0,0.0,0.0,0.0,0.0,0.0,0.0,0.0,0.0,0.0,0.0,0.0,0.0,0.0,0.0,0.0,0.0,0.0,0.0,0.0,0.0,0.0,0.0,0.0,0.0,0.0,0.0,0.0,0.0,0.0,0.0,0.0,0.0,0.0,0.0,0.0,0.0,0.0,0.0,0.0,-1.8597,-1.8945,-1.9252,-1.9252,-1.9653,-2.0241,-1.8517,-1.7983,-1.821,-1.6767,0.0,0.0,0.0,0.0,0.0,0.0,0.0,0.0,0.0,0.0,0.0,0.0,0.0,0.0,0.0,0.0,0.0,0.0,0.0,0.0,0.0,0.0,-2.0076,-1.9442,-2.0027,-2.0456,-1.9175,0.0,0.0,0.0,0.0,0.0,0.0,0.0,0.0,0.0,0.0,0.0,-2.7486,-2.6825,-2.6969,-2.9166,-2.8228,-2.7281,-2.7335,-2.7295,-2.7081,-2.664,-2.4636,-2.2671,0.0,0.0,0.0,0.0,0.0,0.0,0.0,0.0,0.0,0.0,0.0,0.0,0.0,0.0,0.0,0.0,0.0,0.0,0.0,0.0,0.0,0.0,0.0,0.0,0.0,0.0,0.0,0.0,0.0,0.0,0.0,0.0,-1.7143,-1.5858,0.0,0.0,0.0,0.0,0.0,0.0,0.0,0.0,0.0,0.0,0.0,0.0,0.0,-1.8034,-1.8834,-1.9658,-2.0214,-2.0655,-2.1456,-2.1991,-2.2285,-2.2285,-2.2352,-2.2445,-2.2164,0.0,-1.9546,-1.9319,0.0,0.0,0.0,0.0,0.0,0.0,0.0,0.0,0.0,0.0,0.0,0.0,0.0,0.0,0.0,0.0,0.0,0.0,0.0,0.0,0.0,0.0,-2.3023,-2.2539,-2.2605,-2.2752,-2.2311,-2.0183,-1.8323,-1.8527,-1.8615,-1.8792,0.0,0.0,0.0,0.0,0.0,0.0,-2.8451,-2.7231,-2.6437,-2.7595,-2.7405,-2.7362,-2.7615,-2.7415,-2.7348,-2.7509,-2.652,-2.4612,-2.1632,-1.8485,0.0,0.0,0.0,0.0,0.0,0.0,0.0,0.0,0.0,0.0,0.0,0.0,0.0,0.0,0.0,0.0,0.0,0.0,0.0,0.0,0.0,0.0,0.0,0.0,0.0,0.0,0.0,0.0,0.0,-1.7557,-1.7014,-1.667,-1.5645,-1.5075,0.0,0.0,0.0,0.0,0.0,0.0,0.0,0.0,0.0,-1.958,-1.9618,-1.9987,-2.0882,-2.1603,-2.2098,-2.2365,-2.2913,-2.3247,-2.338,-2.338,-2.338,-2.338,-2.3541,-2.3006,-2.1964,-2.1136,-2.0147,-1.9105,0.0,0.0,0.0,0.0,-1.7796,-1.7916,-1.8998,-1.9867,-2.0294,-1.9078,0.0,0.0,0.0,0.0,0.0,0.0,0.0,-1.972,-2.1069,-2.2084,-2.2953,-2.3688,-2.3834,-2.3821,-2.3848,-2.2739,-2.1383,-2.0096,-1.9608,-1.9217,-1.8245,-1.9598,0.0,0.0,0.0,-2.466,-2.7119,-2.6833,-2.672,-2.7428,-2.7655,-2.7802,-2.7936,-2.7829,-2.7749,-2.7696,-2.7028,-2.5989,-2.4311,-1.9933,-1.6711,0.0,0.0,0.0,0.0,0.0,0.0,0.0,0.0,0.0,0.0,0.0,0.0,0.0,0.0,0.0,0.0,0.0,0.0,0.0,0.0,0.0,0.0,0.0,0.0,0.0,0.0,0.0,0.0,-1.7855,-1.779,-1.7684,-1.6967,-1.6565,0.0,0.0,0.0,0.0,0.0,0.0,-1.9414,-1.9176,-1.9666,-2.0989,-2.1456,-2.2031,-2.2752,-2.3287,-2.3554,-2.3554,-2.3848,-2.4035,-2.4102,-2.4102,-2.4142,-2.4235,-2.4449,-2.4409,-2.4115,-2.2779,-2.1924,-2.1363,-2.0481,-1.9746,-1.9239,-1.9826,-1.9947,-2.0,-2.1243,-2.2205,-2.2672,-2.143,-2.1015,-2.0722,-1.9252,0.0,0.0,0.0,0.0,-2.0922,-2.2392,-2.2886,-2.3313,-2.4569,-2.4756,-2.469,-2.4836,-2.4743,-2.4048,-2.2071,-2.1336,-2.0577,-1.9029,-2.0302,0.0,-2.2253,-2.3407,-2.5085,-2.6954,-2.6918,-2.7054,-2.7642,-2.7963,-2.8136,-2.8136,-2.8136,-2.8043,-2.7829,-2.7255,-2.6841,-2.6627,-2.1781,-1.8539,-1.7653,0.0,0.0,0.0,0.0,0.0,0.0,0.0,0.0,0.0,0.0,0.0,0.0,0.0,0.0,0.0,0.0,0.0,0.0,0.0,0.0,0.0,0.0,0.0,0.0,0.0,0.0,0.0,0.0,0.0,-1.8964,-1.9279,0.0,0.0,0.0,0.0,-1.797,-1.8958,-2.0013,-2.1007,-2.147,-2.2218,-2.314,-2.3193,-2.3367,-2.3701,-2.4008,-2.4155,-2.4168,-2.4449,-2.4743,-2.501,-2.501,-2.517,-2.5424,-2.5438,-2.5438,-2.5358,-2.4449,-2.3394,-2.2352,-2.2285,-2.1737,-2.1042,-2.163,-2.2017,-2.2338,-2.2993,-2.3607,-2.4008,-2.338,-2.2044,-2.0735,-2.0909,-2.0187,0.0,0.0,-2.2258,-2.3046,-2.4543,-2.5344,-2.5705,-2.5518,-2.5678,-2.5798,-2.5531,-2.5024,-2.4596,-2.4462,-2.4409,-2.4282,-2.4367,0.0,-2.5368,-2.7845,-2.6451,-2.6183,-2.9308,-2.8011,-2.7054,-2.7642,-2.7963,-2.8136,-2.8136,-2.8136,-2.8136,-2.8123,-2.7575,-2.7241,-2.7228,-2.4343,-2.1151,-1.8175,-1.5536,0.0,0.0,0.0,0.0,0.0,0.0,0.0,0.0,0.0,0.0,0.0,0.0,0.0,0.0,0.0,0.0,0.0,0.0,0.0,0.0,0.0,0.0,0.0,0.0,0.0,0.0,0.0,0.0,-2.0107,-2.0401,0.0,-1.9907,-1.9853,-1.9973,-2.0267,-2.1029,-2.179,-2.2498,-2.2739,-2.314,-2.3924,-2.412,-2.426,-2.469,-2.4972,-2.5093,-2.505,-2.5157,-2.5251,-2.5358,-2.5358,-2.5411,-2.5518,-2.5518,-2.5518,-2.5491,-2.517,-2.4796,-2.4409,-2.4409,-2.3981,-2.3447,-2.4035,-2.3968,-2.3647,-2.4249,-2.4716,-2.4983,-2.4583,-2.3901,-2.3166,-2.2899,-2.2792,-2.2886,-2.3514,-2.4115,-2.469,-2.5224,-2.5518,-2.5692,-2.5785,-2.5879,-2.5972,-2.6052,-2.6066,-2.6039,-2.6039,-2.5277,-2.4461,-2.3872,-2.4644,-2.5229,-2.5512,-2.5772,-2.6474,-2.8047,-2.7744,-2.7535,-2.7949,-2.8083,-2.8136,-2.8136,-2.8136,-2.8136,-2.8136,-2.7762,-2.7455,-2.7268,-2.4628,-2.2635,-2.1265,-1.7369,-1.4247,0.0,0.0,0.0,0.0,0.0,0.0,0.0,0.0,0.0,0.0,0.0,0.0,0.0,0.0,0.0,0.0,0.0,0.0,0.0,0.0,0.0,0.0,0.0,0.0,0.0,0.0,-2.1143,-2.102,-2.1764,-2.2098,-2.1603,-2.183,-2.2044,-2.2138,-2.2686,-2.3247,-2.3741,-2.3781,-2.4139,-2.4609,-2.4782,-2.4945,-2.5245,-2.5358,-2.5604,-2.5665,-2.5665,-2.5758,-2.5959,-2.5959,-2.6012,-2.6106,-2.6106,-2.6106,-2.6106,-2.6106,-2.6106,-2.6079,-2.5772,-2.5424,-2.5144,-2.5625,-2.5438,-2.4983,-2.5277,-2.5438,-2.5478,-2.5291,-2.509,-2.4863,-2.4476,-2.4623,-2.493,-2.493,-2.5277,-2.5692,-2.5785,-2.5879,-2.6026,-2.6333,-2.64,-2.648,-2.6774,-2.6907,-2.7001,-2.7094,-2.6253,-2.5344,-2.4756,-2.5464,-2.5772,-2.4796,-2.5812,-2.676,-2.6947,-2.7402,-2.7776,-2.7976,-2.8083,-2.8136,-2.8136,-2.7963,-2.7936,-2.8136,-2.7682,-2.7455,-2.7562,-2.5295,-2.3623,-2.2851,-1.7917,-1.454,-1.2656,0.0,0.0,0.0,0.0,0.0,0.0,0.0,0.0,0.0,0.0,0.0,0.0,0.0,0.0,0.0,0.0,0.0,0.0,0.0,0.0,0.0,0.0,0.0,-1.8544,-2.0307,-2.1617,-2.1643,-2.3434,-2.4102,-2.2672,-2.33,-2.3701,-2.342,-2.3915,-2.4356,-2.4649,-2.4985,-2.5175,-2.5553,-2.558,-2.5464,-2.5502,-2.5498,-2.5718,-2.5999,-2.6012,-2.6306,-2.6841,-2.6841,-2.7001,-2.7268,-2.7268,-2.7268,-2.7268,-2.7268,-2.7268,-2.7188,-2.6333,-2.5999,-2.6012,-2.6306,-2.6413,-2.636,-2.6079,-2.5798,-2.5558,-2.5558,-2.5558,-2.5558,-2.5545,-2.5545,-2.5558,-2.5558,-2.5785,-2.6079,-2.6373,-2.664,-2.6921,-2.7228,-2.7281,-2.7362,-2.7669,-2.7509,-2.7388,-2.7682,-2.7509,-2.7308,-2.7268,-2.7268,-2.7081,-2.652,-2.6921,0.0,-2.6533,-2.7201,-2.7736,-2.7696,-2.7963,-2.8123,-2.8123,-2.7589,-2.7522,-2.811,-2.7335,-2.7241,-2.8096,-2.648,-2.4598,-2.2496,-1.7109,-1.3317,-1.1244,0.0,0.0,0.0,0.0,0.0,0.0,0.0,0.0,0.0,0.0,0.0,0.0,0.0,0.0,0.0,0.0,0.0,0.0,0.0,0.0,0.0,0.0,-1.976,-1.976,-2.1537,-2.3073,-2.3714,-2.4663,-2.5197,-2.501,-2.4823,-2.477,-2.4903,-2.4863,-2.497,-2.5251,-2.5308,-2.5526,-2.5783,-2.602,-2.6319,-2.6492,-2.6759,-2.6786,-2.6907,-2.7121,-2.7188,-2.7148,-2.7362,-2.7388,-2.7268,-2.7268,-2.7268,-2.7268,-2.7268,-2.7268,-2.7241,-2.7001,-2.6774,-2.6627,-2.6921,-2.6894,-2.6694,-2.6613,-2.6533,-2.6466,-2.6466,-2.6466,-2.6426,-2.6213,-2.6293,-2.6507,-2.672,-2.6987,-2.7295,-2.7589,-2.7562,-2.7535,-2.7829,-2.7736,-2.7722,-2.8243,-2.8297,-2.8323,-2.8617,-2.8604,-2.8283,-2.7415,-2.7268,-2.7281,-2.7335,-2.7655,-2.7923,-2.7989,-2.839,-2.8417,-2.7762,-2.7776,-2.7736,-2.7522,-2.7362,-2.7522,-2.811,-2.7909,-2.7789,-2.7816,-2.7148,-2.4875,-2.0731,-1.6924,-1.3973,0.0,0.0,0.0,0.0,0.0,0.0,0.0,0.0,0.0,0.0,0.0,0.0,0.0,0.0,0.0,0.0,0.0,0.0,0.0,0.0,0.0,0.0,-2.0294,-2.147,-2.1844,-2.3033,-2.4115,-2.4743,-2.5558,-2.6039,-2.5959,-2.5758,-2.5598,-2.5518,-2.5291,-2.5456,-2.5805,-2.591,-2.6116,-2.6735,-2.6694,-2.6914,-2.7244,-2.7205,-2.733,-2.7455,-2.7615,-2.7669,-2.7642,-2.7802,-2.7789,-2.7629,-2.7629,-2.7629,-2.7642,-2.7776,-2.7829,-2.7802,0.0,0.0,0.0,0.0,-2.7442,-2.7188,-2.7188,-2.7108,-2.7001,-2.7001,-2.7001,-2.6974,-2.6814,-2.6881,-2.7041,-2.7215,-2.7562,-2.7923,-2.8096,-2.8203,-2.831,-2.8484,-2.839,-2.839,-2.8871,-2.8871,-2.8871,-2.9165,-2.9125,0.0,-2.8123,-2.8003,-2.7976,-2.7896,-2.8243,-2.8497,-2.8417,-2.8778,-2.8845,-2.831,-2.8257,-2.819,-2.803,-2.7776,0.0,0.0,0.0,-2.7709,-2.7175,-2.6987,0.0,0.0,0.0,-1.5456,-1.2475,-1.176,0.0,0.0,-1.5477,-1.6928,0.0,0.0,0.0,0.0,0.0,0.0,0.0,0.0,0.0,0.0,0.0,0.0,0.0,0.0,0.0,0.0,-2.1911,-2.3313,-2.4182,-2.4609,-2.493,-2.5197,-2.6146,-2.6587,-2.6106,-2.6213,-2.6132,-2.5651,-2.5563,-2.5783,-2.6539,0.0,0.0,0.0,0.0,-2.75,-2.7759,-2.7596,-2.7503,-2.7802,-2.7829,-2.7989,-2.8243,-2.8283,-2.827,-2.8217,-2.823,-2.823,-2.8243,-2.8537,-2.8657,-2.8604,-2.803,-2.7776,-2.7789,-2.8083,-2.803,-2.7802,-2.7843,0.0,0.0,-2.7468,-2.7468,-2.7468,-2.7468,-2.7468,-2.7468,-2.7509,-2.7896,-2.8297,-2.8337,-2.8711,-2.9085,-2.9085,-2.9072,-2.9125,-2.9419,-2.9272,-2.9179,-2.9472,-2.9325,-2.9138,-2.9138,-2.9085,-2.8858,-2.8323,-2.8724,-2.8898,-2.8364,-2.8791,-2.9098,-2.9005,-2.8991,0.0,-2.8938,-2.8444,-2.8283,-2.8631,-2.815,-2.7468,-2.6627,-2.6427,-2.4197,-1.9844,-1.9203,-1.7164,-1.3777,-1.3444,-1.3211,-1.3363,-1.5153,-1.6737,0.0,0.0,0.0,0.0,0.0,0.0,0.0,0.0,0.0,0.0,0.0,0.0,0.0,0.0,0.0,-2.1804,-2.31,-2.4168,-2.4823,-2.5571,-2.6066,-2.6132,-2.6333,-2.652,-2.664,-2.6383,-2.6181,-2.6554,-2.6275,-2.6556,-2.7134,-2.7195,-2.7236,-2.7643,-2.7682,-2.7733,-2.8136,-2.8056,-2.8163,-2.843,-2.8671,0.0,-2.8871,-2.9112,-2.9018,-2.8843,-2.8804,-2.8791,-2.8843,-2.8871,-2.8951,-2.8925,-2.8564,-2.8283,-2.8096,-2.8404,-2.8484,-2.847,-2.8698,-2.8738,-2.8698,-2.8698,-2.8698,-2.8698,-2.8698,-2.8698,0.0,-2.8991,-2.9138,-2.9272,-2.9513,-2.9486,-2.9392,-2.9392,-2.9219,-2.9125,-2.9419,-2.9446,-2.9486,-2.978,-2.978,-2.9753,-2.9753,-2.9352,-2.9005,-2.8885,-2.9165,-2.9352,-2.9245,-2.9526,-2.9472,-2.8764,-2.8684,-2.8591,-2.8337,-2.8217,-2.8377,-2.8925,-2.8845,-2.8484,-2.7829,-2.6092,-2.4472,-2.3119,-1.9473,-1.7187,-1.6598,-1.4592,-1.3743,-1.3688,-1.7042,-1.8825,0.0,0.0,0.0,0.0,0.0,0.0,0.0,0.0,0.0,0.0,0.0,-1.9132,0.0,0.0,-2.2111,-2.314,-2.4182,-2.5064,-2.5651,-2.636,-2.6774,-2.6627,-2.6734,-2.6854,-2.7069,-2.6773,-2.6743,-2.71,-2.6997,-2.6983,-2.7457,-2.7499,-2.7635,-2.818,-2.8023,-2.8113,-2.8591,-2.8406,-2.8486,-2.8831,-2.8965,-2.8991,-2.9085,-2.9246,-2.9232,-2.8925,-2.8924,-2.895,-2.9045,-2.9205,-2.9259,-2.9245,-2.9098,-2.8858,-2.8604,-2.8764,-2.8818,-2.8845,-2.8991,-2.9045,-2.9045,-2.9045,-2.9045,-2.9045,-2.9045,-2.9045,-2.9072,-2.9219,-2.9366,-2.9513,-2.9659,-2.97,-2.97,-2.97,-2.9579,-2.9513,-2.9673,-2.97,-2.974,-2.9887,-2.9913,-2.9913,-2.9913,-2.9673,-2.9472,-2.9472,-2.9606,-2.97,-2.97,-2.982,-2.9753,-2.9312,-2.9259,-2.9205,-2.9045,-2.8898,-2.8938,-2.9245,-2.9125,-2.8898,-2.8604,-2.7534,-2.6339,-2.4861,-2.1394,-1.8885,-1.7656,-1.5344,-1.4136,-1.4061,-1.837,-2.0342,0.0,0.0,0.0,0.0,0.0,0.0,0.0,0.0,-1.5777,-1.8894,-2.0254,-2.1002,-2.1523,-2.2445,-2.3394,-2.4235,-2.5064,-2.5798,-2.6386,-2.7028,-2.7348,-2.7108,-2.7161,-2.7337,-2.723,-2.7284,-2.7282,-2.7327,-2.7333,-2.7456,-2.7817,-2.7808,-2.8136,-2.8528,-2.8364,-2.8472,-2.9032,-2.8871,-2.8897,-2.9125,-2.9125,-2.9085,-2.9179,-2.9179,-2.9259,-2.9219,-2.9176,-2.9243,-2.9256,-2.9526,-2.9566,-2.9566,-2.9566,-2.9066,-2.8478,-2.8426,-2.8762,-2.895,-2.8653,-2.8855,-2.9205,-2.9205,-2.9205,-2.9205,-2.9205,-2.9205,-2.9205,-2.9205,-2.9379,-2.9566,-2.9566,-2.974,-2.9913,-2.9913,-2.9967,-3.0007,-3.0007,-3.0047,-3.0087,-3.0087,-3.0087,-3.0087,-3.0087,-3.0087,-3.006,-3.0007,-3.0007,-3.002,-3.0087,-3.0087,-3.0087,-3.0087,-3.0087,-3.006,-3.0007,-2.9793,-2.9633,-2.9566,-2.9339,-2.9192,-2.9125,-2.9125,-2.8199,-2.6345,-2.3853,-2.1363,-1.8751,-1.6441,-1.5026,-1.4565,-1.8911,-2.0985,-0.8893,-0.8835,0.0,-1.1469,-1.2878,-1.4336,0.0,0.0,-2.0545,-2.1713,-2.2539,-2.3086,-2.3407,-2.3794,-2.4262,-2.4877,-2.5504,-2.6106,-2.6694,-2.7509,-2.803,-2.8003,-2.7593,-2.7257,-2.7228,-2.7309,-2.7341,-2.7657,-2.7716,-2.7755,-2.813,-2.8433,-2.8514,-2.8528,-2.8776,-2.8902,-2.9045,-2.9017,-2.915,-2.9432,-2.9432,-2.9566,-2.9793,-2.9793,-2.9793,-2.982,-2.9833,-2.9847,-2.9847,-2.986,-2.9873,-2.9873,-2.9873,-2.8552,-2.6485,-2.6259,-2.7611,-2.9106,-2.7169,-2.7975,-2.982,-2.982,-2.982,-2.982,-2.982,-2.982,-2.982,-2.982,-2.9847,-2.9873,-2.9873,-2.9887,-2.9913,-2.9913,-3.0114,-3.0314,-3.0314,-3.0515,-3.0688,-3.0688,-3.0688,-3.0688,-3.0688,-3.0688,-3.0608,-3.0354,-3.0314,-3.0408,-3.0662,-3.0688,-3.0688,-3.0688,-3.0688,-3.0595,-3.0327,-3.0274,-3.0154,-2.9887,-2.9833,-2.97,-2.9446,-2.9432,-2.9123,-2.8683,-2.6345,-2.4008,-2.1462,-1.9168,-1.6853,-1.4692,-1.7395,-1.9679,-0.9917,0.0,0.0,0.0,-1.2859,-1.44,-1.5128,-1.8112,-2.0956,-2.1344,-2.2795,-2.4128,-2.4249,-2.4556,-2.497,0.0,-2.6079,-2.66,-2.7028,-2.7696,-2.8087,-2.7852,-2.8056,-2.8054,-2.7776,-2.785,-2.7936,-2.7921,-2.8063,-2.8318,-2.8501,-2.871,-2.8839,-2.8762,-2.8869,-2.8999,-2.9349,-2.9238,-2.9495,-2.974,-2.974,-2.9793,-2.9913,-2.9913,-2.9913,-2.9913,-2.9913,-2.9913,-2.9913,-2.9913,-2.9913,-2.9734,-2.8256,-2.8063,-2.8243,-2.6665,-2.5704,-2.5354,-2.4365,-2.5673,-2.7702,-2.7702,-2.8809,-2.9913,-2.9913,-3.0034,-3.0181,-3.0181,-3.0301,-3.0421,-3.0421,-3.0421,-3.0421,-3.0421,-3.0515,-3.0608,-3.0608,-3.0702,-3.0795,-3.0795,-3.0795,-3.0795,-3.0795,-3.0795,-3.0808,-3.0862,-3.0715,-3.0662,-3.0782,-3.0795,-3.0795,-3.0795,-3.0795,-3.0742,-3.0621,-3.0608,-3.0488,-3.0194,-3.0181,-3.0047,-2.9753,-2.974,-2.9673,-2.9553,-2.7177,-2.5472,-2.4241,-2.058,-1.8043,-1.704,-1.8051,-1.9915,-1.1119,0.0,0.0,-1.1682,-1.309,-1.4326,-1.4635,-1.794,-2.1007,-2.1167,-2.3066,-2.4903,-2.4983,-2.513,-2.5577,-2.6155,-2.6662,-2.7187,-2.7364,-2.7956,-2.8297,-2.7969,-2.8499,-2.8631,-2.8419,-2.8304,-2.8329,-2.8265,-2.8514,-2.8663,-2.8789,-2.9014,-2.9206,-2.9091,-2.9296,-2.9322,-2.9528,-2.9528,-2.9721,-2.9913,-2.9913,-2.9913,-2.9913,-2.9913,-2.9913,-2.9913,-2.9913,-2.9967,-3.0034,-3.0034,-3.0087,-2.9973,-2.7366,-2.7135,-2.7645,-2.5124,-2.3956,-2.33,-2.2073,-2.3199,-2.5423,-2.6235,-2.7549,-2.9222,-2.9973,-2.9742,-2.935,-2.935,-2.9492,-2.9646,-2.9646,-3.0228,-3.0795,-3.0795,-3.0849,-3.0915,-3.0915,-3.0982,-3.1036,-3.1036,-3.1036,-3.1036,-3.1036,-3.1036,-3.1102,-3.1316,-3.1169,-3.1036,-3.1036,-3.1036,-3.1036,-3.1036,-3.1036,-3.0996,-3.0915,-3.0915,-3.0795,-3.0501,-3.0474,-3.0341,-3.0047,-3.0034,-3.0007,-2.9913,-2.8076,-2.687,-2.6127,-2.1915,-1.9569,-1.8752,-1.8152,-1.9345,-1.2419,-1.1765,-1.1249,-1.3396,-1.4529,-1.5119,-1.5464,-1.8694,-2.1849,-2.2117,-2.3907,-2.5571,-2.5865,-2.6044,-2.617,-2.6621,-2.7325,-2.7721,-2.7663,-2.8509,-2.8906,-2.8555,-2.9165,-2.9257,0.0,-2.8592,-2.8655,-2.8528,-2.8528,-2.8644,-2.8986,-2.9257,-2.9475,-2.9515,-2.9721,-2.9913,-2.9913,-2.9913,-2.9913,-2.9913,-2.9913,-2.9913,-2.9913,-2.9913,-2.9913,-2.9913,-2.9913,-3.0074,-3.0341,-3.0341,-3.0515,-3.0571,-2.7913,-2.5317,-2.2909,-2.0485,-2.2359,-2.5343,-2.075,-2.0824,-2.3272,-2.5933,-2.6958,-2.7529,-3.0003,-2.9052,-2.6969,-2.6969,-2.6981,-2.6981,-2.6981,-2.8892,-3.0795,-3.0795,-3.1009,-3.1209,-3.1209,-3.1436,-3.1637,-3.1637,-3.1637,-3.1637,-3.1637,-3.1637,-3.165,-3.165,-3.165,-3.1637,-3.1637,-3.1637,-3.1637,-3.1637,-3.1637,-3.153,-3.1236,-3.1209,-3.1089,-3.0795,-3.0782,-3.0648,-3.0354,-3.0341,-3.0207,-2.9927,-2.9913,-2.8616,-2.6218,-2.3656,-2.1372,-1.8945,-1.6715,-1.6986,-1.1869,-1.1917,-1.2004,-1.2849,-1.4368,-1.5368,-1.4192,-1.7235,-1.9948,-1.8456,-2.1012,-2.3393,-2.3637,-2.4882,-2.619,-2.6637,-2.735,-2.785,-2.7929,-2.8211,-2.8514,-2.8332,-2.8601,0.0,0.0,0.0,0.0,-2.8332,-2.8871,-2.9092,-2.9078,-2.9515,-2.9721,-2.9721,-2.9913,-2.9913,-2.9913,-2.9913,-2.9913,-2.9913,-2.9913,-3.002,-3.0207,-3.0207,-3.0314,-3.0501,-3.0501,-3.0555,-3.0464,-2.8754,-2.805,-2.7751,-2.3591,-2.2417,-2.2547,-1.8272,-1.8789,-2.1132,-1.7811,-1.8399,-2.0665,-2.1489,-2.4156,-2.6981,-2.7937,-2.7685,-2.7251,-2.7251,-2.6029,-2.5387,-2.7117,-2.8092,-2.9255,-3.0993,-3.145,-3.1517,-3.1517,-3.1597,-3.1664,-3.1664,-3.1664,-3.1664,-3.1664,-3.1664,-3.1664,-3.1664,-3.1664,-3.1664,-3.1664,-3.1664,-3.1664,-3.1664,-3.1664,-3.1623,-3.153,-3.1517,-3.1396,-3.1102,-3.1076,-3.0955,-3.0662,-3.0648,-3.0595,-3.0501,-3.0501,-3.0122,-2.9179,-2.5054,-2.2656,-2.1782,-1.7451,-1.6914,-1.1762,-1.2067,-1.2386,-1.2786,-1.3946,-1.4723,-1.3506,-1.595,-1.8201,-1.6842,-1.9796,-2.2545,-2.277,-2.4665,-2.6414,-2.6835,-2.7729,-2.819,-2.815,-2.8332,-2.8514,-2.8332,-2.8618,-2.8679,0.0,0.0,0.0,-2.8539,-2.9079,-2.9309,-2.9309,-2.9707,-2.9913,-2.9913,-2.9913,-2.9913,-2.9913,-3.002,-3.0127,-3.0234,-3.0234,-3.0327,-3.0515,-3.0515,-3.0044,-2.9461,-3.0412,-2.9711,-2.8083,-2.7322,-2.6616,-2.5349,-2.1156,-2.0543,-2.1447,-1.7314,-1.6717,-1.782,-1.6292,-1.6673,-1.8206,-1.922,-2.1723,-2.4589,-2.5538,-2.5278,-2.463,-2.463,-2.3575,-2.2897,-2.4657,-2.5636,-2.6999,-2.9721,-3.0306,-3.0496,-3.1474,-3.1664,-3.1664,-3.1664,-3.1664,-3.1664,-3.1664,-3.1664,-3.1664,-3.1664,-3.1664,-3.1664,-3.1664,-3.1664,-3.1664,-3.1664,-3.1664,-3.1664,-3.1664,-3.1664,-3.1583,-3.1396,-3.1383,-3.1249,-3.0955,-3.0942,-3.0902,-3.0795,-3.0795,-3.0795,-3.0795,-2.6619,-2.4198,-2.3134,-1.8961,-1.7471,-1.2182,-1.2332,-1.2494,-1.3051,-1.3302,-1.3458,-1.3614,-1.5318,-1.6852,-1.6977,-1.9981,-2.2788,0.0,0.0,-2.6854,-2.7265,-2.8173,-2.8876,-2.8337,-2.8751,-2.8933,0.0,0.0,0.0,0.0,0.0,0.0,-2.9025,0.0,-2.9309,-2.9913,-2.9913,-2.9913,-2.9913,-2.9913,-2.9927,-2.994,-3.0234,-3.0515,-3.0795,-3.0795,-3.0795,-3.0808,-3.0624,-2.9301,-2.7028,-2.9499,-2.7745,-2.3557,-2.5872,-2.5622,-2.3491,-2.0755,-1.9681,-1.9369,-1.7005,-1.5988,-1.5866,-1.5866,-1.5866,-1.6272,-1.8946,-1.9978,-2.0363,-2.2897,-2.193,-1.9978,-1.9978,-1.9978,-1.9782,-1.9978,-2.193,-2.4269,-2.6999,-2.778,-2.856,-3.089,-3.1664,-3.1664,-3.1664,-3.1664,-3.1664,-3.1664,-3.1664,-3.1664,-3.1664,-3.1664,-3.1664,-3.1664,-3.1664,-3.1664,-3.1664,-3.1664,-3.1664,-3.1664,-3.1664,-3.1664,-3.1664,-3.1664,-3.1543,-3.1263,-3.1249,-3.1116,-3.0849,-3.0835,-3.0835,-3.0835,-2.8371,-2.5828,-2.3365,-2.0879,-1.8466,-1.2532,-1.2888,-1.3342,-1.3514,-1.3652,-1.3675,-1.3686,-1.418,-1.4534,-1.4346,-1.7061,-1.9448,0.0,0.0,0.0,-2.6521,-2.7775,0.0,-2.8845,-2.899,0.0,0.0,0.0,-2.9063,-2.8987,-2.9066,0.0,0.0,-2.9515,-2.9707,-2.9528,-2.9721,-2.9913,-2.9913,-2.9913,-3.002,-3.0247,-3.0541,-3.0715,-3.0795,-3.0795,-3.0902,-3.1116,-2.9018,-2.7972,-2.758,-2.6219,-2.4896,-2.3595,-2.243,-2.1493,-2.0755,-1.8031,-1.7034,-1.7005,-1.6261,-1.6056,-1.6022,-1.6022,-1.6022,-1.6227,-1.685,-1.8426,-2.0175,-2.0755,-2.0559,-1.9978,-1.9978,-1.8616,-1.7444,-1.9388,-2.0559,-2.1735,-2.4269,-2.6409,-2.7972,-2.856,-3.0306,-3.1664,-3.1664,-3.1664,-3.1664,-3.1664,-3.1664,-3.1664,-3.1664,-3.1664,-3.1664,-3.1664,-3.1664,-3.1664,-3.1664,-3.1664,-3.1664,-3.1664,-3.1664,-3.1664,-3.1664,-3.1664,-3.1637,-3.1557,-3.1557,-3.1517,-3.145,-3.145,-3.145,-3.145,-2.8925,-2.6252,-2.3789,-2.1076,-1.8576,-1.2958,-1.3288,-1.3695,-1.3668,-1.3763,-1.3858,-1.3666,-1.3736,-1.3519,-1.3198,-1.5971,0.0,-1.7981,0.0,0.0,0.0,0.0,0.0,-2.9026,-2.9205,-2.9018,0.0,-2.9111,0.0,-2.9244,-2.9309,-2.9502,0.0,-2.9721,-2.9721,-2.9707,-2.9913,-2.9913,-2.9913,-2.9913,-3.0127,-3.0541,-3.0835,-3.1049,-3.1169,-3.1169,-3.0687,-2.9684,-2.814,-2.6286,-2.4269,-2.4074,-2.2516,-2.0371,-2.0175,-1.9396,-1.8228,-1.6665,-1.6083,-1.6083,-1.6083,-1.6083,-1.6083,-1.6083,-1.6083,-1.6083,-1.6083,-1.7055,-1.8228,-1.8228,-1.8228,-1.8228,-1.8228,-1.7253,-1.6474,-1.784,-1.8228,-1.901,-2.1539,-2.3286,-2.4657,-2.5829,-2.8164,-3.0306,-3.1474,-3.1664,-3.1664,-3.1664,-3.1664,-3.1664,-3.1664,-3.1664,-3.1664,-3.1664,-3.1664,-3.1664,-3.1664,-3.1664,-3.1664,-3.1664,-3.1664,-3.1664,-3.1664,-3.1664,-3.1664,-3.1664,-3.1664,-3.1664,-3.1664,-3.1664,-3.1664,-3.1664,-3.0306,-2.8164,-2.5636,-2.2897,-2.0371,-1.3261,-1.3553,-1.3599,-1.3807,-1.3894,-1.4,-1.3627,-1.3617,-1.3391,-1.2739,-1.5397,-1.7806,-1.7895,-2.2133,-2.5845,-2.6252,0.0,-2.933,-2.9091,-2.9296,-2.9515,-2.9152,-2.9462,-2.9515,-2.9515,-2.9721,-2.9913,-2.9913,-2.9707,-2.9707,-2.9913,-2.9913,-2.9734,-2.9375,-2.9208,-2.93,-2.9831,-3.0155,-3.0441,-3.0687,-3.0687,-2.9517,-2.7191,-2.6999,-2.4269,-2.0175,-2.2126,-2.038,-1.6275,-1.8616,-1.8228,-1.6083,-1.6083,-1.6083,-1.6083,-1.6083,-1.6083,-1.6083,-1.6083,-1.6083,-1.6083,-1.6083,-1.6083,-1.6083,-1.6083,-1.6083,-1.6083,-1.6083,-1.6083,-1.6083,-1.6083,-1.6083,-1.6665,-1.9002,-1.9782,-2.0559,-2.2897,-2.5443,-2.7972,-3.0293,-3.089,-3.1093,-3.1093,-3.1474,-3.1664,-3.127,-3.1093,-3.108,-3.0687,-3.089,-3.1284,-3.1664,-3.1474,-3.1284,-3.1664,-3.1664,-3.1664,-3.1664,-3.1664,-3.1664,-3.1664,-3.1664,-3.1664,-3.1664,-3.1664,-3.1664,-3.1664,-3.1664,-3.0306,-2.778,-2.5045,-2.2516,-1.3376,-1.3607,-1.3713,-1.3813,-1.4068,-1.4228,-1.3767,-1.3457,-1.3137,-1.2311,-1.3675,-1.5421,-1.6903,-1.9834,-2.3007,-2.5874,0.0,0.0,0.0,0.0,-2.9824,0.0,0.0,0.0,0.0,0.0,0.0,0.0,-2.9913,-2.9913,-2.9913,-2.9913,-2.9015,-2.6857,-2.5146,-2.443,-2.4522,-2.496,-2.5195,-2.5238,-2.5238,-2.5045,-2.4463,-2.2312,-2.0951,-1.9978,-1.8228,-1.6864,-1.6083,-1.6672,-1.6474,-1.6083,-1.6083,-1.6083,-1.6083,-1.6083,-1.6083,-1.6083,-1.6083,-1.6083,-1.6083,-1.6083,-1.6083,-1.6083,-1.6083,-1.6083,-1.6083,-1.6083,-1.6083,-1.6083,-1.6083,-1.6083,-1.6282,-1.6665,-1.8418,-2.0175,-2.0559,-2.2702,-2.4657,-2.5238,-2.6999,-2.856,-2.856,-3.0306,-3.089,-2.8752,-2.856,-2.7768,-2.5625,-2.7191,-2.9338,-3.1474,-2.9721,-2.9338,-3.1474,-3.1664,-3.1664,-3.1664,-3.1664,-3.1664,-3.1664,-3.1664,-3.1664,-3.1664,-3.1664,-3.1664,-3.1664,-3.1664,-3.0306,-2.778,-2.5045,-2.2516,-1.3403,-1.3505,-1.3722,-1.3826,-1.3859,-1.3912,-1.3205,-1.2979,-1.2697,-1.1667,-1.294,-1.4364,-1.5244,0.0,0.0,0.0,0.0,0.0,0.0,0.0,0.0,0.0,0.0,0.0,0.0,0.0,0.0,-2.9913,-2.9913,-2.9913,-2.9913,-2.8719,-2.7595,-2.6388,-2.4341,-2.333,-2.3375,-2.3708,-2.388,-2.388,-2.388,-2.3092,-2.193,-2.0559,-1.9199,-1.7833,-1.6665,-1.6083,-1.6083,-1.6083,-1.6083,-1.6083,-1.6083,-1.6083,-1.6083,-1.6083,-1.6083,-1.6083,-1.6083,-1.6083,-1.6083,-1.6083,-1.6083,-1.6083,-1.6083,-1.6083,-1.6083,-1.6083,-1.6083,-1.6083,-1.6083,-1.6083,-1.6083,-1.6083,-1.7055,-1.8426,-1.9782,-2.0951,-2.2321,-2.3686,-2.4851,-2.5829,-2.5829,-2.6795,-2.718,-2.6023,-2.5829,-2.5238,-2.4074,-2.387,-2.4657,-2.7372,-2.8931,-2.9721,-2.9721,-3.089,-3.1664,-3.1664,-3.1664,-3.1664,-3.1664,-3.1664,-3.1664,-3.1664,-3.1664,-3.1664,-3.1664,-3.1664,-3.108,-2.9721,-2.5819,-2.3286,-1.3403,-1.3569,-1.3546,-1.3786,-1.376,-1.3546,-1.2874,-1.2569,-1.2176,-1.1199,-1.2248,-1.3399,-1.4062,0.0,0.0,0.0,-2.3972,0.0,0.0,0.0,0.0,0.0,0.0,0.0,0.0,0.0,0.0,-2.9104,-2.9528,-2.9913,-2.9913,-2.7108,-2.5628,-2.5681,-2.3043,-2.1685,-2.1817,-2.2023,-2.2321,-2.2321,-2.2321,-2.1156,-1.9199,-1.9199,-1.8031,-1.6083,-1.6083,-1.6083,-1.6083,-1.6083,-1.6083,-1.6083,-1.6083,-1.6083,-1.6083,-1.6083,-1.6083,-1.6083,-1.6083,-1.6083,-1.6083,-1.6083,-1.6083,-1.6083,-1.6083,-1.6083,-1.6083,-1.6083,-1.6083,-1.6083,-1.6083,-1.6083,-1.6083,-1.6083,-1.6083,-1.6665,-1.8813,-1.9199,-1.9782,-2.1735,-2.2711,-2.3092,-2.3092,-2.3491,-2.3686,-2.3092,-2.3092,-2.2906,-2.2321,-2.0951,-2.0559,-2.2126,-2.6398,-2.9122,-2.8752,-2.9924,-3.108,-3.1664,-3.1664,-3.1664,-3.1664,-3.1664,-3.1664,-3.1664,-3.1664,-3.1664,-3.1664,-3.1664,-3.1664,-3.1664,-2.6987,-2.4463,-1.3403,-1.3569,-1.3546,-1.3786,-1.3834,-1.3686,-1.3033,-1.2574,-1.2088,-1.1301,-1.107,-1.168,-1.3905,-1.4632,0.0,0.0,-2.2981,-2.4328,0.0,0.0,0.0,0.0,0.0,0.0,0.0,0.0,-2.651,-2.651,-2.8693,-2.9913,-2.9913,-2.5519,-2.2933,-2.3217,-1.8679,-1.6355,-1.6629,-1.6786,-1.6864,-1.6864,-1.6864,-1.6665,-1.6474,-1.6474,-1.6275,-1.6083,-1.6083,-1.6083,-1.6083,-1.6083,-1.6083,-1.6083,-1.6083,-1.6083,-1.6083,-1.6083,-1.6083,-1.6083,-1.6083,-1.6083,-1.6083,-1.6083,-1.6083,-1.6083,-1.6083,-1.6083,-1.6083,-1.6083,-1.6083,-1.6083,-1.6083,-1.6083,-1.6083,-1.6083,-1.6083,-1.6083,-1.6474,-1.6474,-1.6474,-1.6864,-1.8813,-2.0363,-2.0363,-2.2312,-2.3101,-2.0755,-2.0363,-1.9593,-1.7055,-1.8616,-1.9199,-1.7062,-1.9396,-2.387,-3.07,-2.9338,-2.9135,-3.1474,-3.1664,-3.1664,-3.1664,-3.1664,-3.1664,-3.1664,-3.1664,-3.1664,-3.1664,-3.1664,-3.1664,-3.1664,-2.8752,-2.6216,-1.3593,-1.3665,-1.3686,-1.382,-1.3552,-1.3356,-1.2793,-1.2402,-1.183,-1.1172,-1.0867,-1.1094,-1.2276,-1.2572,-1.439,-1.981,-2.0867,-2.2751,-2.7343,0.0,0.0,0.0,0.0,0.0,0.0,0.0,-2.4054,-2.4184,-2.4935,-2.553,-2.553,-2.377,-2.2841,-2.2945,-1.8441,-1.585,-1.5995,-1.6049,-1.6083,-1.6083,-1.6083,-1.6083,-1.6083,-1.6083,-1.6083,-1.6083,-1.6083,-1.6137,-1.6212,-1.6123,-1.6137,-1.6212,-1.6117,-1.6083,-1.6083,-1.6083,-1.6083,-1.6083,-1.6083,-1.6083,-1.6083,-1.6083,-1.6083,-1.6083,-1.6083,-1.6083,-1.6083,-1.6083,-1.6083,-1.6083,-1.6083,-1.6083,-1.6083,-1.6083,-1.6083,-1.6083,-1.6083,-1.6083,-1.6083,-1.6083,-1.6864,-1.7642,-1.7642,-1.8426,-1.8813,-1.784,-1.7642,-1.7253,-1.6275,-1.7055,-1.784,-1.8418,-2.0755,-2.3676,-2.6795,-2.7576,-2.8943,-3.1474,-3.1664,-3.1664,-3.1664,-3.1664,-3.1664,-3.1664,-3.1664,-3.1664,-3.1664,-3.0115,-3.0115,-3.1664,-2.7384,-2.4851,-1.3633,-1.3641,-1.3755,-1.3807,-1.3587,-1.3178,-1.2671,-1.2196,-1.1674,-1.1124,-1.0853,-1.0799,-1.105,-1.1219,-1.2821,-1.7168,-1.8845,-2.1025,-2.536,0.0,0.0,0.0,0.0,0.0,0.0,-2.1391,-2.1477,-2.1777,-2.2198,-2.2626,-2.293,-2.2198,-2.1913,-2.1865,-1.8023,-1.6083,-1.6083,-1.6083,-1.6083,-1.6083,-1.6083,-1.6083,-1.6083,-1.6083,-1.6083,-1.6083,-1.6083,-1.6171,-1.63,-1.6144,-1.6171,-1.6293,-1.6144,-1.6083,-1.6083,-1.6083,-1.6083,-1.6083,-1.6083,-1.6083,-1.6083,-1.6083,-1.6083,-1.6083,-1.6083,-1.6083,-1.6083,-1.6083,-1.6083,-1.6083,-1.6083,-1.6083,-1.6083,-1.6083,-1.6083,-1.6083,-1.6083,-1.6083,-1.6083,-1.6083,-1.6083,-1.6083,-1.6083,-1.6083,-1.6083,-1.6083,-1.6083,-1.6083,-1.6083,-1.6083,-1.6864,-1.8616,-2.0568,-2.2516,-2.4851,-2.6023,-2.8164,-3.1474,-3.1664,-3.1664,-3.1664,-3.1664,-3.1664,-3.1664,-3.1664,-3.1664,-3.1664,-2.9135,-2.8752,-3.0496,-2.6795,-2.4657,-1.3288,-1.3673,-1.3797,-1.3832,-1.3519,-1.3219,-1.284,-1.2298,-1.1701,-1.1253,-1.0928,-1.0765,-1.0921,-1.107,-1.2057,-1.4872,-1.6852,-1.9222,-2.2544,-2.4714,0.0,0.0,0.0,0.0,-1.8436,-1.8494,-1.9082,-1.9082,-2.1208,-2.2564,-2.2913,-2.0615,-1.937,-1.9378,-1.7106,-1.5877,-1.6083,-1.6083,-1.6083,-1.6083,-1.6083,-1.6083,-1.6083,-1.6083,-1.6083,-1.6083,-1.6083,-1.6171,-1.63,-1.6144,-1.6171,-1.6293,-1.6144,-1.6083,-1.6083,-1.6083,-1.6083,-1.6083,-1.6083,-1.6083,-1.6083,-1.6083,-1.6083,-1.6083,-1.6083,-1.6083,-1.6083,-1.6083,-1.6083,-1.6083,-1.6083,-1.6083,-1.6083,-1.6083,-1.6083,-1.6083,-1.6083,-1.6083,-1.6083,-1.6083,-1.6083,-1.6083,-1.6083,-1.6083,-1.6083,-1.6083,-1.6083,-1.6083,-1.6083,-1.6083,-1.6083,-1.6083,-1.6083,-1.9405,-2.7191,-2.5432,-2.6205,-3.1284,-3.1664,-3.1664,-3.1664,-3.1664,-3.1664,-3.1664,-3.1664,-3.1664,-3.1664,-2.9135,-2.778,-2.778,-2.778,-2.6409,-1.3023,-1.3315,-1.3397,-1.3452,-1.3117,-1.2648,-1.2313,-1.1871,-1.1415,-1.1111,-1.086,-1.0765,-1.0921,-1.0989,-1.1963,-1.5015,-1.5993,-1.7737,-2.1881,0.0,0.0,0.0,0.0,-1.9568,0.0,-1.6343,-1.635,-1.6545,-1.7157,-1.7644,-1.7946,-1.7367,-1.7724,-1.9386,-1.7312,-1.6083,-1.6083,-1.6083,-1.6083,-1.6083,-1.6083,-1.6083,-1.6083,-1.6083,-1.6083,-1.6083,-1.6083,-1.6225,-1.6435,-1.6185,-1.6232,-1.6429,-1.6178,-1.6083,-1.6083,-1.6083,-1.6083,-1.6083,-1.6083,-1.6083,-1.6083,-1.6083,-1.6083,-1.6083,-1.6083,-1.6083,-1.6083,-1.6083,-1.6083,-1.6083,-1.6083,-1.6083,-1.6083,-1.6083,-1.6083,-1.6083,-1.6083,-1.6083,-1.6083,-1.6083,-1.6083,-1.6083,-1.6083,-1.6083,-1.6083,-1.6083,-1.6083,-1.6083,-1.6083,-1.6083,-1.6083,-1.6083,-1.6083,-1.784,-2.2126,-2.1735,-2.3481,-2.8752,-2.8943,-2.9911,-3.1664,-3.1664,-3.1664,-3.1664,-3.1664,-3.089,-2.8943,-2.6409,-2.4269,-2.2516,-2.2516,-2.2126,-1.2488,-1.2908,-1.3186,-1.3184,-1.2876,-1.2535,-1.21,-1.1798,-1.1255,-1.1023,-1.0826,-1.0751,-1.0846,-1.0907,-1.1558,-1.3617,-1.5354,-1.7573,-2.0689,0.0,0.0,0.0,0.0,0.0,-1.5362,-1.5181,-1.5187,-1.5375,-1.5334,-1.5475,-1.5725,-1.5676,-1.6494,-1.8145,-1.6899,-1.6083,-1.6083,-1.6083,-1.6083,-1.6083,-1.6083,-1.6083,-1.6083,-1.6083,-1.6083,-1.6083,-1.6083,-1.6218,0.0,-1.6185,-1.6225,-1.6415,-1.6178,-1.6083,-1.6083,-1.6083,-1.6083,-1.6083,-1.6083,-1.6083,-1.6083,-1.6083,-1.6083,-1.6083,-1.6083,-1.6083,-1.6083,-1.6083,-1.6083,-1.6083,-1.6083,-1.6083,-1.6083,-1.6083,-1.6083,-1.6083,-1.6083,-1.6083,-1.6083,-1.6083,-1.6083,-1.6083,-1.6083,-1.6083,-1.6083,-1.6083,-1.6083,-1.6083,-1.6083,-1.6083,-1.6083,-1.6083,-1.6083,-1.6665,-1.8418,-1.9396,-2.1735,-2.6023,-2.6409,-2.6999,-2.8739,-2.9721,-3.0306,-3.0306,-3.0306,-2.9338,-2.778,-2.4269,-2.1539,-1.9978,-1.9002,-1.9002,0.0,-1.2556,-1.3078,-1.2946,-1.2749,-1.2581,-1.2093,-1.165,0.0,-1.0982,-1.0819,-1.0724,-1.0751,-1.0853,-1.0995,-1.1192,-1.4814,-1.7941,-1.8932,-2.3086,0.0,0.0,-2.1635,0.0,-1.5758,-1.5181,-1.5181,-1.5375,-1.5187,-1.5425,-1.5783,-1.5652,-1.5671,-1.6083,-1.6083,-1.6083,-1.6083,-1.6083,-1.6083,-1.6083,-1.6083,-1.6083,-1.6083,-1.6083,-1.6083,-1.6083,-1.6083,-1.6171,-1.63,-1.6144,-1.6171,-1.6293,-1.6144,-1.6083,-1.6083,-1.6083,-1.6083,-1.6083,-1.6083,-1.6083,-1.6083,-1.6083,-1.6083,-1.6083,-1.6083,-1.6083,-1.6083,-1.6083,-1.6083,-1.6083,-1.6083,-1.6083,-1.6083,-1.6083,-1.6083,-1.6083,-1.6083,-1.6083,-1.6083,-1.6083,-1.6083,-1.6083,-1.6083,-1.6083,-1.6083,-1.6083,-1.6083,-1.6083,-1.6083,-1.6083,-1.6083,-1.6083,-1.6083,-1.6083,-1.6083,-1.8426,-2.0755,-2.3481,-2.3676,-2.3686,-2.388,-2.6216,-2.7588,-2.7588,-2.7384,-2.7191,-2.7191,-2.2126,-1.9782,-1.9585,-1.7253,-1.7452,-1.0962,0.0,-1.19,-1.1998,-1.1804,-1.1644,0.0,-1.1152,-1.0987,-1.0785,-1.0744,-1.0792,-1.1016,-1.09,-1.1009,-1.1735,-1.2809,-1.4255,-1.6546,0.0,0.0,0.0,-2.3441,-2.1102,-1.8273,-1.6343,-1.5181,-1.5181,-1.5181,-1.5437,-1.5581,-1.5629,-1.5877,-1.6083,-1.6083,-1.6083,-1.6083,-1.6083,-1.6083,-1.6083,-1.6083,-1.6083,-1.6083,-1.6083,-1.6083,-1.6083,-1.6083,-1.6171,-1.63,-1.6144,-1.6171,-1.6293,-1.6144,-1.6083,-1.6083,-1.6083,-1.6083,-1.6083,-1.6083,-1.6083,-1.6083,-1.6083,-1.6083,-1.6083,-1.6083,-1.6083,-1.6083,-1.6083,-1.6083,-1.6083,-1.6083,-1.6083,-1.6083,-1.6083,-1.6083,-1.6083,-1.6083,-1.6083,-1.6083,-1.6083,-1.6083,-1.6083,-1.6083,-1.6083,-1.6083,-1.6083,-1.6083,-1.6083,-1.6083,-1.6083,-1.6083,-1.6083,-1.6083,-1.6083,-1.6083,-1.6665,-1.8031,-2.0755,-2.0951,-2.1725,-2.388,-2.4463,-2.4851,-2.4851,-2.2897,-2.193,-2.193,-1.8616,-1.7055,-1.7062,-1.6474,-1.6474,-1.0283,-1.0995,-1.1484,-1.1573,-1.1517,-1.1605,-1.1337,-1.1114,-1.0996,-1.0724,-1.0717,-1.0792,-1.1023,-1.1104,-1.1267,-1.1687,-1.3042,-1.4923,0.0,0.0,0.0,-2.4514,-2.2303,-2.0299,-1.904,-1.6733,-1.5181,-1.5181,-1.5313,-1.5462,-1.5556,-1.575,-1.5837,-1.5947,-1.6035,-1.6083,-1.6083,-1.6083,-1.6083,-1.6083,-1.6083,-1.6083,-1.6083,-1.6083,-1.6083,-1.6083,-1.6083,-1.613,-1.6198,-1.6117,-1.613,-1.6198,-1.611,-1.6083,-1.6083,-1.6083,-1.6083,-1.6083,-1.6083,-1.6083,-1.6083,-1.6083,-1.6083,-1.6083,-1.6083,-1.6083,-1.6083,-1.6083,-1.6083,-1.6083,-1.6083,-1.6083,-1.6083,-1.6083,-1.6083,-1.6083,-1.6083,-1.6083,-1.6083,-1.6083,-1.6083,-1.6083,-1.6083,-1.6083,-1.6083,-1.6083,-1.6083,-1.6083,-1.6083,-1.6083,-1.6083,-1.6083,-1.6083,-1.6083,-1.6083,-1.6083,-1.6665,-1.8031,-1.8228,-1.8813,-2.0183,-2.1539,-2.2126,-2.2126,-2.0755,-1.9396,-1.8228,-1.6864,-1.6083,-1.6083,-1.6083,-1.6083,-1.0072,-1.0711,-1.1462,-1.1389,-1.1623,-1.1669,-1.1288,-1.1164,-1.0996,-1.0724,-1.0738,-1.0826,-1.1077,-1.1375,-1.1592,-1.1626,-1.3938,0.0,-2.0115,0.0,-2.1939,-2.2535,-2.0315,-1.882,-1.8972,-1.6711,-1.5181,-1.5375,-1.5371,-1.5357,-1.5492,-1.5757,-1.5954,-1.5832,-1.5995,-1.6083,-1.6083,-1.6083,-1.6083,-1.6083,-1.6083,-1.6083,-1.6083,-1.6083,-1.6083,-1.6083,-1.6083,-1.6083,-1.6083,-1.6083,-1.6083,-1.6083,-1.6083,-1.6083,-1.6083,-1.6083,-1.6083,-1.6083,-1.6083,-1.6083,-1.6083,-1.6083,-1.6083,-1.6083,-1.6083,-1.6083,-1.6083,-1.6083,-1.6083,-1.6083,-1.6083,-1.6083,-1.6083,-1.6083,-1.6083,-1.6083,-1.6083,-1.6083,-1.6083,-1.6083,-1.6083,-1.6083,-1.6083,-1.6083,-1.6083,-1.6083,-1.6083,-1.6083,-1.6083,-1.6083,-1.6083,-1.6083,-1.6083,-1.6083,-1.6083,-1.6083,-1.6083,-1.6083,-1.6083,-1.6083,-1.6083,-1.8228,-1.9396,-1.9396,-1.9396,-1.8228,-1.6083,-1.6083,-1.6083,-1.6083,-1.6083,-1.6083,-1.0572,-1.108,-1.1232,-1.078,-1.0874,-1.1009,-1.0796,-1.0766,-1.0724,-1.0717,-1.0826,-1.1111,-1.1769,-1.1633,-1.1708,-1.2576,0.0,-1.5138,0.0,0.0,-1.9943,-2.2158,-2.0315,-1.8923,-1.8894,-1.6614,-1.5181,-1.4993,-1.5175,-1.5244,-1.5329,-1.5589,-1.5805,-1.6029,-1.6069,-1.6083,-1.6083,-1.6083,-1.6083,-1.6083,-1.6083,-1.6083,-1.6083,-1.6083,-1.6083,-1.6083,-1.6083,-1.6083,-1.6083,-1.6083,-1.6083,-1.6083,-1.6083,-1.6083,-1.6083,-1.6083,-1.6083,-1.6083,-1.6083,-1.6083,-1.6083,-1.6083,-1.6083,-1.6083,-1.6083,-1.6083,-1.6083,-1.6083,-1.6083,-1.6083,-1.6083,-1.6083,-1.6083,-1.6083,-1.6083,-1.6083,-1.6083,-1.6083,-1.6083,-1.6083,-1.6083,-1.6083,-1.6083,-1.6083,-1.6083,-1.6083,-1.6083,-1.6083,-1.6083,-1.6083,-1.6083,-1.6083,-1.6083,-1.6083,-1.6083,-1.6083,-1.6083,-1.6083,-1.6083,-1.6083,-1.6083,-1.6474,-1.6665,-1.6665,-1.6665,-1.6474,-1.6083,-1.6083,-1.6083,-1.6083,-1.6083,-1.6083,-1.0221,-1.0693,-1.1045,-1.0941,-1.1505,-1.1917,-1.1762,-1.1544,-1.1378,-1.0844,-1.0838,-1.1142,-1.2006,-1.2169,-1.2583,-1.3627,0.0,-1.4395,-1.6182,-1.6613,-1.7564,-2.0241,-1.8383,-1.7469,-1.882,-1.6702,-1.5181,-1.5181,-1.5241,-1.5395,-1.5395,-1.5576,-1.5866,-1.5845,-1.6001,-1.6083,-1.6083,-1.6083,-1.6083,-1.6083,-1.6083,-1.6083,-1.6083,-1.6083,-1.6083,-1.6083,-1.6083,-1.6083,-1.6083,-1.6083,-1.6083,-1.6083,-1.6083,-1.6083,-1.6083,-1.6083,-1.6083,-1.6083,-1.6083,-1.6083,-1.6083,-1.6083,-1.6083,-1.6083,-1.6083,-1.6083,-1.6083,-1.6083,-1.6083,-1.6083,-1.6083,-1.6083,-1.6083,-1.6083,-1.6083,-1.6083,-1.6083,-1.6083,-1.6083,-1.6083,-1.6083,-1.6083,-1.6083,-1.6083,-1.6083,-1.6083,-1.6083,-1.6083,-1.6083,-1.6083,-1.6083,-1.6083,-1.6083,-1.6083,-1.6083,-1.6083,-1.6083,-1.6083,-1.6083,-1.6083,-1.6083,-1.6083,-1.6083,-1.6083,-1.6083,-1.6083,-1.6083,-1.6083,-1.6083,-1.6083,-1.6083,-1.6083,-1.017,-1.0471,-1.1009,-1.1404,-1.2022,-1.2593,-1.2496,-1.2198,-1.181,-1.1054,-1.0595,-1.0709,-1.1808,-1.2718,0.0,-1.4183,-1.4331,-1.4359,-1.484,-1.4984,-1.5696,-1.7874,-1.635,-1.6004,-1.7895,-1.6317,-1.5181,-1.5375,-1.5375,-1.5375,-1.5375,-1.5622,-1.5811,-1.5689,-1.5913,-1.6042,-1.6083,-1.6083,-1.6083,-1.6083,-1.6083,-1.6083,-1.6083,-1.6083,-1.6083,-1.6083,-1.6083,-1.6083,-1.6083,-1.6083,-1.6083,-1.6083,-1.6083,-1.6083,-1.6083,-1.6083,-1.6083,-1.6083,-1.6083,-1.6083,-1.6083,-1.6083,-1.6083,-1.6083,-1.6083,-1.6083,-1.6083,-1.6083,-1.6083,-1.6083,-1.6083,-1.6083,-1.6083,-1.6083,-1.6083,-1.6083,-1.6083,-1.6083,-1.6083,-1.6083,-1.6083,-1.6083,-1.6083,-1.6083,-1.6083,-1.6083,-1.6083,-1.6083,-1.6083,-1.6083,-1.6083,-1.6083,-1.6083,-1.6083,-1.6083,-1.6083,-1.6083,-1.6083,-1.6083,-1.6083,-1.6083,-1.6083,-1.6083,-1.6083,-1.6083,-1.6083,-1.6083,-1.6083,-1.6083,-1.6083,-1.6083,-1.6083,-1.0988,-1.1232,-1.1487,-1.2295,-1.1798,-1.156,-1.229,-1.1807,-1.1154,-1.1781,-1.0046,-0.909,0.0,-1.2677,-1.3631,-1.4069,-1.4173,-1.452,-1.5018,-1.5107,-1.5053,-1.5341,-1.5375,-1.5362,-1.5521,-1.5355,-1.5181,-1.5181,-1.5181,-1.5187,-1.5375,-1.5416,-1.5622,-1.5825,-1.5859,-1.594,-1.6083,-1.6083,-1.6083,-1.6083,-1.6083,-1.6083,-1.6083,-1.6083,-1.6083,-1.6083,-1.6083,-1.6083,-1.6083,-1.6083,-1.6083,-1.6083,-1.6083,-1.6083,-1.6083,-1.6083,-1.6083,-1.6083,-1.6083,-1.6083,-1.6083,-1.6083,-1.6083,-1.6083,-1.6083,-1.6083,-1.6083,-1.6083,-1.6083,-1.6083,-1.6083,-1.6083,-1.6083,-1.6083,-1.6083,-1.6083,-1.6083,-1.6083,-1.6083,-1.6083,-1.6083,-1.6083,-1.6083,-1.6083,-1.6083,-1.6083,-1.6083,-1.6083,-1.6083,-1.6083,-1.6083,-1.6083,-1.6083,-1.6083,-1.6083,-1.6083,-1.6083,-1.6083,-1.6083,-1.6083,-1.6083,-1.6083,-1.6083,-1.6083,-1.6083,-1.6083,-1.6083,-1.6083,-1.6083,-1.6083,-1.6083,-1.6083,-1.0623,-1.1049,-1.1635,-1.1926,-1.2004,-1.225,-1.2848,-1.3063,-1.221,-0.9436,-1.0274,0.0,0.0,0.0,-1.4183,-1.4326,-1.438,-1.4641,-1.4986,-1.5046,-1.5059,-1.5167,-1.5181,-1.5181,-1.5181,-1.5181,-1.5181,-1.5181,-1.5181,-1.5181,-1.5187,-1.5303,-1.5479,-1.571,-1.5805,-1.5927,-1.6083,-1.6083,-1.6083,-1.6083,-1.6083,-1.6083,-1.6083,-1.6083,-1.6083,-1.6083,-1.6083,-1.6083,-1.6083,-1.6083,-1.6083,-1.6083,-1.6083,-1.6083,-1.6083,-1.6083,-1.6083,-1.6083,-1.6083,-1.6083,-1.6083,-1.6083,-1.6083,-1.6083,-1.6083,-1.6083,-1.6083,-1.6083,-1.6083,-1.6083,-1.6083,-1.6083,-1.6083,-1.6083,-1.6083,-1.6083,-1.6083,-1.6083,-1.6083,-1.6083,-1.6083,-1.6083,-1.6083,-1.6083,-1.6083,-1.6083,-1.6083,-1.6083,-1.6083,-1.6083,-1.6083,-1.6083,-1.6083,-1.6083,-1.6083,-1.6083,-1.6083,-1.6083,-1.6083,-1.6083,-1.6083,-1.6083,-1.6083,-1.6083,-1.6083,-1.6083,-1.6083,-1.6083,-1.6083,-1.6083,-1.6083,-1.6083,-1.0731,-1.108,-1.1708,-1.1893,-1.2108,-1.2529,-1.3251,-1.3577,-1.3076,-1.0054,-1.1427,-1.3426,-1.368,0.0,0.0,-1.4448,-1.4692,-1.4814,-1.4979,-1.5114,-1.5181,-1.5181,-1.5181,-1.5181,-1.5181,-1.5181,-1.5181,-1.5181,-1.5181,-1.5181,-1.5181,-1.5371,-1.5527,-1.5635,-1.5778,-1.5927,-1.6083,-1.6083,-1.6083,-1.6083,-1.6083,-1.6083,-1.6083,-1.6083,-1.6083,-1.6083,-1.6083,-1.6083,-1.6083,-1.6083,-1.6083,-1.6083,-1.6083,-1.6083,-1.6083,-1.6083,-1.6083,-1.6083,-1.6083,-1.6083,-1.6083,-1.6083,-1.6083,-1.6083,-1.6083,-1.6083,-1.6083,-1.6083,-1.6083,-1.6083,-1.6083,-1.6083,-1.6083,-1.6083,-1.6083,-1.6083,-1.6083,-1.6083,-1.6083,-1.6083,-1.6083,-1.6083,-1.6083,-1.6083,-1.6083,-1.6083,-1.6083,-1.6083,-1.6083,-1.6083,-1.6083,-1.6083,-1.6083,-1.6083,-1.6083,-1.6083,-1.6083,-1.6083,-1.6083,-1.6083,-1.6083,-1.6083,-1.6083,-1.6083,-1.6083,-1.6083,-1.6083,-1.6083,-1.6083,-1.6083,-1.6083,-1.6083,-1.1463,-1.1632,-1.1877,-1.2448,-1.2169,-1.2049,-1.2999,-1.3227,-1.3315,-1.4217,-1.3674,-1.3343,-1.4183,-1.3995,-1.3851,-1.4386,-1.4785,-1.4993,-1.5181,-1.5181,-1.5181,-1.5181,-1.5181,-1.5181,-1.5181,-1.5181,-1.5181,-1.5181,-1.5181,-1.5181,-1.5187,-1.5371,-1.5527,-1.5635,-1.5778,-1.5927,-1.6083,-1.6083,-1.6083,-1.6083,-1.6083,-1.6083,-1.6083,-1.6083,-1.6083,-1.6083,-1.6083,-1.6083,-1.6083,-1.6083,-1.6083,-1.6083,-1.6083,-1.6083,-1.6083,-1.6083,-1.6083,-1.6083,-1.6083,-1.6083,-1.6083,-1.6083,-1.6083,-1.6083,-1.6083,-1.6083,-1.6083,-1.6083,-1.6083,-1.6083,-1.6083,-1.6083,-1.6083,-1.6083,-1.6083,-1.6083,-1.6083,-1.6083,-1.6083,-1.6083,-1.6083,-1.6083,-1.6083,-1.6083,-1.6083,-1.6083,-1.6083,-1.6083,-1.6083,-1.6083,-1.6083,-1.6083,-1.6083,-1.6083,-1.6083,-1.6083,-1.6083,-1.6083,-1.6083,-1.6083,-1.6083,-1.6083,-1.6083,-1.6083,-1.6083,-1.6083,-1.6083,-1.6083,-1.6083,-1.6083,-1.6083,-1.6083,-1.0812,-1.1502,0.0,-1.2291,-1.2889,-1.3442,-1.3627,-1.3448,-1.3647,-1.4095,-1.4309,-1.4137,-1.4222,-1.4299,-1.443,-1.4571,-1.4812,-1.4993,-1.5181,-1.5181,-1.5181,-1.5181,-1.5181,-1.5181,-1.5181,-1.5181,-1.5181,-1.5181,-1.5181,-1.5242,-1.5384,-1.5418,-1.554,-1.5784,-1.5832,-1.5927,-1.6083,-1.6083,-1.6083,-1.6083,-1.6083,-1.6083,-1.6083,-1.6083,-1.6083,-1.6083,-1.6083,-1.6083,-1.6083,-1.6083,-1.6083,-1.6083,-1.6083,-1.6083,-1.6083,-1.6083,-1.6083,-1.6083,-1.6083,-1.6083,-1.6083,-1.6083,-1.6083,-1.6083,-1.6083,-1.6083,-1.6083,-1.6083,-1.6083,-1.6083,-1.6083,-1.6083,-1.6083,-1.6083,-1.6083,-1.6083,-1.6083,-1.6083,-1.6083,-1.6083,-1.6083,-1.6083,-1.6083,-1.6083,-1.6083,-1.6083,-1.6083,-1.6083,-1.6083,-1.6083,-1.6083,-1.6083,-1.6083,-1.6083,-1.6083,-1.6083,-1.6083,-1.6083,-1.6083,-1.6083,-1.6083,-1.6083,-1.6083,-1.6083,-1.6083,-1.6083,-1.6083,-1.6083,-1.6083,-1.6083,-1.6083,-1.6083,-1.2738,-1.3036,0.0,-1.304,-1.3295,-1.3797,-1.3948,0.0,0.0,0.0,-1.4336,-1.4276,-1.4297,-1.4502,-1.454,-1.4659,-1.4932,-1.5181,-1.5181,-1.5181,-1.5181,-1.5181,-1.5181,-1.5181,-1.5181,-1.5181,-1.5181,-1.5181,-1.5181,-1.5235,-1.5357,-1.5452,-1.5581,-1.5764,-1.5879,-1.5988,-1.6083,-1.6083,-1.6083,-1.6083,-1.6083,-1.6083,-1.6083,-1.6083,-1.6083,-1.6083,-1.6083,-1.6083,-1.6083,-1.6083,-1.6083,-1.6083,-1.6083,-1.6083,-1.6083,-1.6083,-1.6083,-1.6083,-1.6083,-1.6083,-1.6083,-1.6083,-1.6083,-1.6083,-1.6083,-1.6083,-1.6083,-1.6083,-1.6083,-1.6083,-1.6083,-1.6083,-1.6083,-1.6083,-1.6083,-1.6083,-1.6083,-1.6083,-1.6083,-1.6083,-1.6083,-1.6083,-1.6083,-1.6083,-1.6083,-1.6083,-1.6083,-1.6083,-1.6083,-1.6083,-1.6083,-1.6083,-1.6083,-1.6083,-1.6083,-1.6083,-1.6083,-1.6083,-1.6083,-1.6083,-1.6083,-1.6083,-1.6083,-1.6083,-1.6083,-1.6083,-1.6083,-1.6083,-1.6083,-1.6083,-1.6083,-1.6083,-1.5753,-1.5193,0.0,-1.4102,-1.3736,0.0,-1.3966,-1.4211,-1.4394,-1.4464,0.0,-1.4004,-1.4543,-1.4551,-1.4494,-1.4889,-1.5059,-1.5181,-1.5181,-1.5181,-1.5181,-1.5181,-1.5181,-1.5181,-1.5181,-1.5181,-1.5181,-1.5181,-1.5181,-1.5181,-1.5181,-1.5466,-1.5635,-1.5655,-1.5934,-1.6076,-1.6062,-1.6076,-1.6076,-1.6062,-1.6076,-1.6083,-1.6083,-1.6083,-1.6083,-1.6083,-1.6083,-1.6083,-1.6083,-1.6083,-1.6083,-1.6083,-1.6083,-1.6083,-1.6083,-1.6083,-1.6083,-1.6083,-1.6083,-1.6083,-1.6083,-1.6083,-1.6083,-1.6083,-1.6083,-1.6083,-1.6083,-1.6083,-1.6083,-1.6083,-1.6083,-1.6083,-1.6083,-1.6083,-1.6083,-1.6083,-1.6083,-1.6083,-1.6083,-1.6083,-1.6083,-1.6083,-1.6083,-1.6083,-1.6083,-1.6083,-1.6083,-1.6083,-1.6083,-1.6083,-1.6083,-1.6083,-1.6083,-1.6083,-1.6083,-1.6083,-1.6083,-1.6083,-1.6083,-1.6083,-1.6083,-1.6083,-1.6083,-1.6083,-1.6083,-1.6083,-1.6083,-1.6083,-1.6083,-1.6083,-1.6083,-1.6083,-1.3769,-1.3906,0.0,0.0,-1.3736,-1.4095,-1.4224,-1.436,-1.4455,-1.4401,-1.4428,-1.4475,-1.4516,-1.4658,-1.4624,-1.493,-1.5079,-1.5181,-1.5181,-1.5181,-1.5181,-1.5181,-1.5181,-1.5181,-1.5181,-1.5181,-1.5181,-1.5181,-1.5181,-1.5181,-1.5375,-1.5588,-1.5608,-1.5805,-1.5988,-1.6022,-1.5906,-1.6022,-1.6022,-1.5906,-1.6022,-1.6083,-1.6083,-1.6083,-1.6083,-1.6083,-1.6083,-1.6083,-1.6083,-1.6083,-1.6083,-1.6083,-1.6083,-1.6083,-1.6083,-1.6083,-1.6083,-1.6083,-1.6083,-1.6083,-1.6083,-1.6083,-1.6083,-1.6083,-1.6083,-1.6083,-1.6083,-1.6083,-1.6083,-1.6083,-1.6083,-1.6083,-1.6083,-1.6083,-1.6083,-1.6083,-1.6083,-1.6083,-1.6083,-1.6083,-1.6083,-1.6083,-1.6083,-1.6083,-1.6083,-1.6083,-1.6083,-1.6083,-1.6083,-1.6083,-1.6083,-1.6083,-1.6083,-1.6083,-1.6083,-1.6083,-1.6083,-1.6083,-1.6083,-1.6083,-1.6083,-1.6083,-1.6083,-1.6083,-1.6083,-1.6083,-1.6083,-1.6083,-1.6083,-1.6083,-1.6083,-1.6083,-1.5527,-1.5384,0.0,-1.3713,0.0,-1.4211,-1.4285,-1.4353,-1.4387,-1.4319,-1.4414,-1.4536,-1.4611,-1.4746,-1.4903,-1.5052,-1.5133,-1.5181,-1.5181,-1.5181,-1.5181,-1.5181,-1.5181,-1.5181,-1.5181,-1.5181,-1.5181,-1.5181,-1.5181,-1.5181,-1.5375,-1.5568,-1.5567,-1.5744,-1.5967,-1.6042,-1.5961,-1.6042,-1.6042,-1.5961,-1.6042,-1.6083,-1.6083,-1.6083,-1.6083,-1.6083,-1.6083,-1.6083,-1.6083,-1.6083,-1.6083,-1.6083,-1.6083,-1.6083,-1.6083,-1.6083,-1.6083,-1.6083,-1.6083,-1.6083,-1.6083,-1.6083,-1.6083,-1.6083,-1.6083,-1.6083,-1.6083,-1.6083,-1.6083,-1.6083,-1.6083,-1.6083,-1.6083,-1.6083,-1.6083,-1.6083,-1.6083,-1.6083,-1.6083,-1.6083,-1.6083,-1.6083,-1.6083,-1.6083,-1.6083,-1.6083,-1.6083,-1.6083,-1.6083,-1.6083,-1.6083,-1.6083,-1.6083,-1.6083,-1.6083,-1.6083,-1.6083,-1.6083,-1.6083,-1.6083,-1.6083,-1.6083,-1.6083,-1.6083,-1.6083,-1.6083,-1.6083,-1.6083,-1.6083,-1.6083,-1.6083,-1.6083,-1.7521,-1.6986,-1.5062,-1.4249,-1.4109,0.0,-1.4278,-1.434,-1.436,-1.4312,-1.4414,-1.4557,-1.4713,-1.4869,-1.5018,-1.516,-1.5181,-1.5181,-1.5181,-1.5181,-1.5181,-1.5181,-1.5181,-1.5181,-1.5181,-1.5181,-1.5181,-1.5181,-1.5181,-1.5201,-1.5228,-1.5425,-1.5581,-1.5676,-1.594,-1.6069,-1.6042,-1.6069,-1.6069,-1.6042,-1.6069,-1.6083,-1.6083,-1.6083,-1.6083,-1.6083,-1.6083,-1.6083,-1.6083,-1.6083,-1.6083,-1.6083,-1.6083,-1.6083,-1.6083,-1.6083,-1.6083,-1.6083,-1.6083,-1.6083,-1.6083,-1.6083,-1.6083,-1.6083,-1.6083,-1.6083,-1.6083,-1.6083,-1.6083,-1.6083,-1.6083,-1.6083,-1.6083,-1.6083,-1.6083,-1.6083,-1.6083,-1.6083,-1.6083,-1.6083,-1.6083,-1.6083,-1.6083,-1.6083,-1.6083,-1.6083,-1.6083,-1.6083,-1.6083,-1.6083,-1.6083,-1.6083,-1.6083,-1.6083,-1.6083,-1.6083,-1.6083,-1.6083,-1.6083,-1.6083,-1.6083,-1.6083,-1.6083,-1.6083,-1.6083,-1.6083,-1.6083,-1.6083,-1.6083,-1.6083,-1.6083,-1.6083,-1.5329,0.0,-1.3485,0.0,-1.4265,-1.4428,0.0,0.0,-1.4611,-1.4353,-1.4414,-1.4557,-1.4713,-1.4869,-1.5018,-1.516,-1.5181,-1.5181,-1.5181,-1.5181,-1.5181,-1.5181,-1.5181,-1.5181,-1.5181,-1.5181,-1.5181,-1.5181,-1.5181,-1.5255,-1.5432,-1.5435,-1.5764,-1.5825,-1.5995,-1.6015,-1.5886,-1.6015,-1.6015,-1.5886,-1.6015,-1.6083,-1.6083,-1.6083,-1.6083,-1.6083,-1.6083,-1.6083,-1.6083,-1.6083,-1.6083,-1.6083,-1.6083,-1.6083,-1.6083,-1.6083,-1.6083,-1.6083,-1.6083,-1.6083,-1.6083,-1.6083,-1.6083,-1.6083,-1.6083,-1.6083,-1.6083,-1.6083,-1.6083,-1.6083,-1.6083,-1.6083,-1.6083,-1.6083,-1.6083,-1.6083,-1.6083,-1.6083,-1.6083,-1.6083,-1.6083,-1.6083,-1.6083,-1.6083,-1.6083,-1.6083,-1.6083,-1.6083,-1.6083,-1.6083,-1.6083,-1.6083,-1.6083,-1.6083,-1.6083,-1.6083,-1.6083,-1.6083,-1.6083,-1.6083,-1.6083,-1.6083,-1.6083,-1.6083,-1.6083,-1.6083,-1.6083,-1.6083,-1.6083,-1.6083,-1.6083,-1.6083,-1.4352,-1.3909,-1.3139,0.0,-1.4231,-1.4373,-1.4312,-1.4462,-1.455,-1.434,-1.4482,-1.4658,-1.4726,-1.493,-1.5113,-1.5174,-1.5181,-1.5181,-1.5181,-1.5181,-1.5181,-1.5181,-1.5181,-1.5181,-1.5181,-1.5181,-1.5181,-1.5181,-1.5181,-1.5221,-1.5309,-1.5499,-1.5649,-1.573,-1.5879,-1.5961,-1.5981,-1.6049,-1.6049,-1.5981,-1.6049,-1.6083,-1.6083,-1.6083,-1.6083,-1.6083,-1.6083,-1.6083,-1.6083,-1.6083,-1.6083,-1.6083,-1.6083,-1.6083,-1.6083,-1.6083,-1.6083,-1.6083,-1.6083,-1.6083,-1.6083,-1.6083,-1.6083,-1.6083,-1.6083,-1.6083,-1.6083,-1.6083,-1.6083,-1.6083,-1.6083,-1.6083,-1.6083,-1.6083,-1.6083,-1.6083,-1.6083,-1.6083,-1.6083,-1.6083,-1.6083,-1.6083,-1.6083,-1.6083,-1.6083,-1.6083,-1.6083,-1.6083,-1.6083,-1.6083,-1.6083,-1.6083,-1.6083,-1.6083,-1.6083,-1.6083,-1.6083,-1.6083,-1.6083,-1.6083,-1.6083,-1.6083,-1.6083,-1.6083,-1.6083,-1.6083,-1.6083,-1.6083,-1.6083,-1.6083,-1.6083,-1.6083,0.0,0.0,-1.2869,-1.4069,-1.4326,-1.4204,0.0,-1.4407,-1.4468,-1.4333,-1.4536,-1.474,-1.474,-1.4984,-1.5181,-1.5181,-1.5181,-1.5181,-1.5181,-1.5181,-1.5181,-1.5181,-1.5181,-1.5181,-1.5181,-1.5181,-1.5181,-1.5181,-1.5181,-1.5201,-1.5242,-1.5384,-1.552,-1.5635,-1.5778,-1.5906,-1.6022,-1.6062,-1.6083,-1.6083,-1.6083,-1.6083,-1.6083,-1.6083,-1.6083,-1.6083,-1.6083,-1.6083,-1.6083,-1.6083,-1.6083,-1.6083,-1.6083,-1.6083,-1.6083,-1.6083,-1.6083,-1.6083,-1.6083,-1.6083,-1.6083,-1.6083,-1.6083,-1.6083,-1.6083,-1.6083,-1.6083,-1.6083,-1.6083,-1.6083,-1.6083,-1.6083,-1.6083,-1.6083,-1.6083,-1.6083,-1.6083,-1.6083,-1.6083,-1.6083,-1.6083,-1.6083,-1.6083,-1.6083,-1.6083,-1.6083,-1.6083,-1.6083,-1.6083,-1.6083,-1.6083,-1.6083,-1.6083,-1.6083,-1.6083,-1.6083,-1.6083,-1.6083,-1.6083,-1.6083,-1.6083,-1.6083,-1.6083,-1.6083,-1.6083,-1.6083,-1.6083,-1.6083,-1.6083,-1.6083,-1.6083,-1.6083,0.0,-1.3153,0.0,-1.4571,-1.4585,-1.3939,0.0,-1.4407,-1.4468,-1.4333,-1.4536,-1.474,-1.474,-1.4984,-1.5181,-1.5181,-1.5181,-1.5181,-1.5181,-1.5181,-1.5181,-1.5181,-1.5181,-1.5181,-1.5181,-1.5181,-1.5181,-1.5181,-1.5181,-1.5248,-1.5391,-1.5411,-1.5486,-1.5635,-1.5778,-1.5859,-1.5866,-1.6008,-1.6083,-1.6083,-1.6083,-1.6083,-1.6083,-1.6083,-1.6083,-1.6083,-1.6083,-1.6083,-1.6083,-1.6083,-1.6083,-1.6083,-1.6083,-1.6083,-1.6083,-1.6083,-1.6083,-1.6083,-1.6083,-1.6083,-1.6083,-1.6083,-1.6083,-1.6083,-1.6083,-1.6083,-1.6083,-1.6083,-1.6083,-1.6083,-1.6083,-1.6083,-1.6083,-1.6083,-1.6083,-1.6083,-1.6083,-1.6083,-1.6083,-1.6083,-1.6083,-1.6083,-1.6083,-1.6083,-1.6083,-1.6083,-1.6083,-1.6083,-1.6083,-1.6083,-1.6083,-1.6083,-1.6083,-1.6083,-1.6083,-1.6083,-1.6083,-1.6083,-1.6083,-1.6083,-1.6083,-1.6083,-1.6083,-1.6083,-1.6083,-1.6083,-1.6083,-1.6083,-1.6083,-1.6083,-1.6083,-1.6083,0.0,0.0,0.0,-1.4744,-1.4867,-1.481,-1.3968,-1.4204,-1.4496,-1.4448,-1.4597,-1.474,-1.474,-1.4984,-1.5181,-1.5181,-1.5181,-1.5181,-1.5181,-1.5181,-1.5181,-1.5181,-1.5181,-1.5181,-1.5181,-1.5181,-1.5181,-1.5181,-1.5181,-1.5208,-1.5262,-1.5262,-1.5337,-1.5486,-1.554,-1.5662,-1.5852,-1.6001,-1.6083,-1.6083,-1.6083,-1.6083,-1.6083,-1.6083,-1.6083,-1.6083,-1.6083,-1.6083,-1.6083,-1.6083,-1.6083,-1.6083,-1.6083,-1.6083,-1.6083,-1.6083,-1.6083,-1.6083,-1.6083,-1.6083,-1.6083,-1.6083,-1.6083,-1.6083,-1.6083,-1.6083,-1.6083,-1.6083,-1.6083,-1.6083,-1.6083,-1.6083,-1.6083,-1.6083,-1.6083,-1.6083,-1.6083,-1.6083,-1.6083,-1.6083,-1.6083,-1.6083,-1.6083,-1.6083,-1.6083,-1.6083,-1.6083,-1.6083,-1.6083,-1.6083,-1.6083,-1.6083,-1.6083,-1.6083,-1.6083,-1.6083,-1.6083,-1.6083,-1.6083,-1.6083,-1.6083,-1.6083,-1.6083,-1.6083,-1.6083,-1.6083,-1.6083,-1.6083,-1.6083,-1.6083,-1.6083,-1.6083,-1.1737,0.0,0.0,0.0,-1.5269,-1.5019,-1.4695,-1.4478,-1.4258,-1.4407,-1.4645,-1.4801,-1.4746,-1.4984,-1.5181,-1.5181,-1.5181,-1.5181,-1.5181,-1.5181,-1.5181,-1.5181,-1.5181,-1.5181,-1.5181,-1.5181,-1.5181,-1.5181,-1.5181,-1.5181,-1.5181,-1.5181,-1.5255,-1.5404,-1.5459,-1.5608,-1.5852,-1.6001,-1.6083,-1.6083,-1.6083,-1.6083,-1.6083,-1.6083,-1.6083,-1.6083,-1.6083,-1.6083,-1.6083,-1.6083,-1.6083,-1.6083,-1.6083,-1.6083,-1.6083,-1.6083,-1.6083,-1.6083,-1.6083,-1.6083,-1.6083,-1.6083,-1.6083,-1.6083,-1.6083,-1.6083,-1.6083,-1.6083,-1.6083,-1.6083,-1.6083,-1.6083,-1.6083,-1.6083,-1.6083,-1.6083,-1.6083,-1.6083,-1.6083,-1.6083,-1.6083,-1.6083,-1.6083,-1.6083,-1.6083,-1.6083,-1.6083,-1.6083,-1.6083,-1.6083,-1.6083,-1.6083,-1.6083,-1.6083,-1.6083,-1.6083,-1.6083,-1.6083,-1.6083,-1.6083,-1.6083,-1.6083,-1.6083,-1.6083,-1.6083,-1.6083,-1.6083,-1.6083,-1.6083,-1.6083,-1.6083,-1.6083,0.0,0.0,0.0,0.0,-1.5349,-1.4587,-1.6542,-1.5172,-1.3722,-1.4183,-1.4631,-1.4896,-1.4767,-1.4984,-1.5181,-1.5181,-1.5181,-1.5181,-1.5181,-1.5181,-1.5181,-1.5181,-1.5181,-1.5181,-1.5181,-1.5181,-1.5181,-1.5181,-1.5181,-1.5181,-1.5181,-1.5181,-1.5248,-1.5398,-1.5554,-1.5703,-1.5845,-1.6001,-1.6076,-1.6083,-1.6083,-1.6083,-1.6083,-1.6083,-1.6083,-1.6083,-1.6083,-1.6083,-1.6083,-1.6083,-1.6083,-1.6083,-1.6083,-1.6083,-1.6083,-1.6083,-1.6083,-1.6083,-1.6083,-1.6083,-1.6083,-1.6083,-1.6083,-1.6083,-1.6083,-1.6083,-1.6083,-1.6083,-1.6083,-1.6083,-1.6083,-1.6083,-1.6083,-1.6083,-1.6083,-1.6083,-1.6083,-1.6083,-1.6083,-1.6083,-1.6083,-1.6083,-1.6083,-1.6083,-1.6083,-1.6083,-1.6083,-1.6083,-1.6083,-1.6083,-1.6083,-1.6083,-1.6083,-1.6083,-1.6083,-1.6083,-1.6083,-1.6083,-1.6083,-1.6083,-1.6083,-1.6083,-1.6083,-1.6083,-1.6083,-1.6083,-1.6083,-1.6083,-1.6083,-1.6083,-1.6083,-1.6083,-1.0911,0.0,0.0,0.0,0.0,0.0,-1.6374,-1.5379,-1.4592,-1.5478,-1.4844,-1.4272,-1.4665,-1.4984,-1.5181,-1.5181,-1.5181,-1.5181,-1.5181,-1.5181,-1.5181,-1.5181,-1.5181,-1.5181,-1.5181,-1.5181,-1.5181,-1.5181,-1.5181,-1.5181,-1.5181,-1.5181,-1.5201,-1.5242,-1.5398,-1.5547,-1.5696,-1.5845,-1.5974,-1.6083,-1.6083,-1.6083,-1.6083,-1.6083,-1.6083,-1.6083,-1.6083,-1.6083,-1.6083,-1.6083,-1.6083,-1.6083,-1.6083,-1.6083,-1.6083,-1.6083,-1.6083,-1.6083,-1.6083,-1.6083,-1.6083,-1.6083,-1.6083,-1.6083,-1.6083,-1.6083,-1.6083,-1.6083,-1.6083,-1.6083,-1.6083,-1.6083,-1.6083,-1.6083,-1.6083,-1.6083,-1.6083,-1.6083,-1.6083,-1.6083,-1.6083,-1.6083,-1.6083,-1.6083,-1.6083,-1.6083,-1.6083,-1.6083,-1.6083,-1.6083,-1.6083,-1.6083,-1.6083,-1.6083,-1.6083,-1.6083,-1.6083,-1.6083,-1.6083,-1.6083,-1.6083,-1.6083,-1.6083,-1.6083,-1.6083,-1.6083,-1.6083,-1.6083,-1.6083,-1.6083,-1.6083,-1.6083,0.0,0.0,0.0,0.0,0.0,0.0,-1.8222,-1.733,-1.6309,-1.7036,-1.6451,-1.5468,-1.495,-1.5025,-1.5181,-1.5181,-1.5181,-1.5181,-1.5181,-1.5181,-1.5181,-1.5181,-1.5181,-1.5181,-1.5181,-1.5181,-1.5181,-1.5181,-1.5181,-1.5181,-1.5181,-1.5181,-1.5181,-1.5181,-1.533,-1.5452,-1.554,-1.575,-1.59,-1.5988,-1.6049,-1.6083,-1.6083,-1.6083,-1.6083,-1.6083,-1.6083,-1.6083,-1.6083,-1.6083,-1.6083,-1.6083,-1.6083,-1.6083,-1.6083,-1.6083,-1.6083,-1.6083,-1.6083,-1.6083,-1.6083,-1.6083,-1.6083,-1.6083,-1.6083,-1.6083,-1.6083,-1.6083,-1.6083,-1.6083,-1.6083,-1.6083,-1.6083,-1.6083,-1.6083,-1.6083,-1.6083,-1.6083,-1.6083,-1.6083,-1.6083,-1.6083,-1.6083,-1.6083,-1.6083,-1.6083,-1.6083,-1.6083,-1.6083,-1.6083,-1.6083,-1.6083,-1.6083,-1.6083,-1.6083,-1.6083,-1.6083,-1.6083,-1.6083,-1.6083,-1.6083,-1.6083,-1.6083,-1.6083,-1.6083,-1.6083,-1.6083,-1.6083,-1.6083,-1.6083,-1.6083,-1.6083,0.0,0.0,0.0,0.0,0.0,0.0,-2.0692,-1.985,-1.8025,-1.8515,-1.8203,-1.7298,-1.5426,-1.5046,-1.4977,-1.4964,-1.5045,-1.5126,-1.5174,-1.5194,-1.5201,-1.5181,-1.5201,-1.5201,-1.5181,-1.5181,-1.5181,-1.5181,-1.5181,-1.5181,-1.5181,-1.5181,-1.5181,-1.5181,-1.5316,-1.5391,-1.5411,-1.5689,-1.5839,-1.5852,-1.6008,-1.6083,-1.6083,-1.6083,-1.6083,-1.6083,-1.6083,-1.6083,-1.6083,-1.6083,-1.6083,-1.6083,-1.6083,-1.6083,-1.6083,-1.6083,-1.6083,-1.6083,-1.6083,-1.6083,-1.6083,-1.6083,-1.6083,-1.6083,-1.6083,-1.6083,-1.6083,-1.6083,-1.6083,-1.6083,-1.6083,-1.6083,-1.6083,-1.6083,-1.6083,-1.6083,-1.6083,-1.6083,-1.6083,-1.6083,-1.6083,-1.6083,-1.6083,-1.6083,-1.6083,-1.6083,-1.6083,-1.6083,-1.6083,-1.6083,-1.6083,-1.6083,-1.6083,-1.6083,-1.6083,-1.6083,-1.6083,-1.6083,-1.6083,-1.6083,-1.6083,-1.6083,-1.6083,-1.6083,-1.6083,-1.6083,-1.6083,-1.6083,-1.6083,-1.6083,-1.6083,-1.6083,0.0,0.0,0.0,0.0,0.0,0.0,0.0,-1.9229,-1.8474,-1.9068,-1.7133,-1.5187,-1.5305,-1.447,-1.3709,-1.3587,-1.417,-1.4767,-1.5133,-1.5289,-1.5323,-1.5194,-1.5289,-1.5316,-1.5194,-1.5181,-1.5181,-1.5181,-1.5181,-1.5181,-1.5181,-1.5181,-1.5181,-1.5181,-1.5208,-1.5289,-1.5411,-1.5588,-1.5737,-1.5852,-1.6008,-1.6083,-1.6083,-1.6083,-1.6083,-1.6083,-1.6083,-1.6083,-1.6083,-1.6083,-1.6083,-1.6083,-1.6083,-1.6083,-1.6083,-1.6083,-1.6083,-1.6083,-1.6083,-1.6083,-1.6083,-1.6083,-1.6083,-1.6083,-1.6083,-1.6083,-1.6083,-1.6083,-1.6083,-1.6083,-1.6083,-1.6083,-1.6083,-1.6083,-1.6083,-1.6083,-1.6083,-1.6083,-1.6083,-1.6083,-1.6083,-1.6083,-1.6083,-1.6083,-1.6083,-1.6083,-1.6083,-1.6083,-1.6083,-1.6083,-1.6083,-1.6083,-1.6083,-1.6083,-1.6083,-1.6083,-1.6083,-1.6083,-1.6083,-1.6083,-1.6083,-1.6083,-1.6083,-1.6083,-1.6083,-1.6083,-1.6083,-1.6083,-1.6083,-1.6083,-1.6083,-1.6083,0.0,0.0,0.0,-1.3251,0.0,0.0,0.0,0.0,-2.0318,-2.0758,-1.8618,-1.6339,-1.5839,-1.4355,-1.3207,-1.3275,-1.3851,-1.4319,-1.4394,-1.4984,-1.5411,-1.5411,-1.5411,-1.5411,-1.5411,-1.5343,-1.533,-1.5404,-1.5337,-1.5296,-1.5296,-1.5221,-1.5181,-1.5181,-1.5181,-1.5221,-1.5296,-1.5452,-1.5601,-1.575,-1.59,-1.6008,-1.6083,-1.6083,-1.6083,-1.6083,-1.6083,-1.6083,-1.6083,-1.6083,-1.6083,-1.6083,-1.6083,-1.6083,-1.6083,-1.6083,-1.6083,-1.6083,-1.6083,-1.6083,-1.6083,-1.6083,-1.6083,-1.6083,-1.6083,-1.6083,-1.6083,-1.6083,-1.6083,-1.6083,-1.6083,-1.6083,-1.6083,-1.6083,-1.6083,-1.6083,-1.6083,-1.6083,-1.6083,-1.6083,-1.6083,-1.6083,-1.6083,-1.6083,-1.6083,-1.6083,-1.6083,-1.6083,-1.6083,-1.6083,-1.6083,-1.6083,-1.6083,-1.6083,-1.6083,-1.6083,-1.6083,-1.6083,-1.6083,-1.6083,-1.6083,-1.6083,-1.6083,-1.6083,-1.6083,-1.6083,-1.6083,-1.6083,-1.6083,-1.6083,-1.6083,-1.6083,0.0,0.0,0.0,0.0,0.0,-1.5884,0.0,0.0,0.0,-2.2013,-2.0241,-1.8291,-1.6807,-1.4656,-1.3148,-1.3366,-1.3562,-1.3688,-1.3444,-1.434,-1.5079,-1.5235,-1.5343,-1.5411,-1.5418,-1.5262,-1.5289,-1.5615,-1.5364,-1.5262,-1.5404,-1.5296,-1.5215,-1.5181,-1.5181,-1.5181,-1.5181,-1.5337,-1.5486,-1.5642,-1.5784,-1.5934,-1.6083,-1.6083,-1.6083,-1.6083,-1.6083,-1.6083,-1.6083,-1.6083,-1.6083,-1.6083,-1.6083,-1.6083,-1.6083,-1.6083,-1.6083,-1.6083,-1.6083,-1.6083,-1.6083,-1.6083,-1.6083,-1.6083,-1.6083,-1.6083,-1.6083,-1.6083,-1.6083,-1.6083,-1.6083,-1.6083,-1.6083,-1.6083,-1.6083,-1.6083,-1.6083,-1.6083,-1.6083,-1.6083,-1.6083,-1.6083,-1.6083,-1.6083,-1.6083,-1.6083,-1.6083,-1.6083,-1.6083,-1.6083,-1.6083,-1.6083,-1.6083,-1.6083,-1.6083,-1.6083,-1.6083,-1.6083,-1.6083,-1.6083,-1.6083,-1.6083,-1.6083,-1.6083,-1.6083,-1.6083,-1.6083,-1.6083,-1.6083,-1.6083,-1.6083,-1.6083,0.0,0.0,0.0,0.0,-1.4052,0.0,0.0,0.0,-1.9744,-2.0981,0.0,-1.8519,-1.8313,0.0,0.0,-1.3563,-1.3067,-1.2664,-1.2637,-1.3207,-1.3688,-1.3838,-1.478,-1.5208,-1.4692,-1.4387,-1.4618,-1.5567,-1.4882,-1.4713,-1.5377,-1.5398,-1.5323,-1.5187,-1.5181,-1.5181,-1.5181,-1.5337,-1.5486,-1.5642,-1.5784,-1.5934,-1.6083,-1.6083,-1.6083,-1.6083,-1.6083,-1.6083,-1.6083,-1.6083,-1.6083,-1.6083,-1.6083,-1.6083,-1.6083,-1.6083,-1.6083,-1.6083,-1.6083,-1.6083,-1.6083,-1.6083,-1.6083,-1.6083,-1.6083,-1.6083,-1.6083,-1.6083,-1.6083,-1.6083,-1.6083,-1.6083,-1.6083,-1.6083,-1.6083,-1.6083,-1.6083,-1.6083,-1.6083,-1.6083,-1.6083,-1.6083,-1.6083,-1.6083,-1.6083,-1.6083,-1.6083,-1.6083,-1.6083,-1.6083,-1.6083,-1.6083,-1.6083,-1.6083,-1.6083,-1.6083,-1.6083,-1.6083,-1.6083,-1.6083,-1.6083,-1.6083,-1.6083,-1.6083,-1.6083,-1.6083,-1.6083,-1.6083,-1.6083,-1.6083,-1.6083,-1.6083,0.0,0.0,0.0,0.0,0.0,0.0,-1.5414,0.0,-1.8947,0.0,0.0,0.0,0.0,0.0,0.0,0.0,-1.3642,-1.3222,-1.2024,-1.2603,-1.3268,-1.3593,-1.3912,-1.4183,-1.4373,-1.4434,-1.4821,-1.5696,-1.493,-1.4787,-1.5622,-1.5506,-1.5377,-1.5316,-1.5228,-1.5181,-1.5181,-1.5248,-1.5357,-1.5506,-1.5655,-1.5805,-1.5954,-1.6042,-1.6083,-1.6083,-1.6083,-1.6083,-1.6083,-1.6083,-1.6083,-1.6083,-1.6083,-1.6083,-1.6083,-1.6083,-1.6083,-1.6083,-1.6083,-1.6083,-1.6083,-1.6083,-1.6083,-1.6083,-1.6083,-1.6083,-1.6083,-1.6083,-1.6083,-1.6083,-1.6083,-1.6083,-1.6083,-1.6083,-1.6083,-1.6083,-1.6083,-1.6083,-1.6083,-1.6083,-1.6151,-1.6212,-1.6212,-1.6137,-1.6083,-1.6083,-1.6083,-1.6083,-1.6083,-1.6083,-1.6083,-1.6083,-1.6083,-1.6083,-1.6083,-1.6083,-1.6083,-1.6083,-1.6083,-1.6083,-1.6083,-1.6164,-1.6171,-1.6083,-1.6171,-1.6171,-1.6083,-1.6083,-1.6083,-1.6083,-1.6083,-1.6083,-1.1993,0.0,0.0,0.0,0.0,0.0,0.0,0.0,0.0,0.0,0.0,0.0,0.0,0.0,0.0,0.0,0.0,-1.3737,-1.1643,-1.1952,-1.2562,-1.2969,-1.2996,-1.3288,-1.4041,-1.4048,-1.4455,-1.5533,-1.474,-1.4685,-1.5798,-1.5649,-1.5493,-1.5411,-1.5303,-1.5221,-1.5181,-1.5181,-1.5262,-1.5411,-1.5567,-1.5716,-1.5859,-1.6008,-1.6103,-1.6144,-1.6096,-1.6103,-1.6144,-1.6096,-1.6083,-1.6083,-1.6083,-1.6083,-1.6083,-1.6083,-1.6083,-1.6083,-1.6083,-1.6083,-1.6083,-1.6083,-1.6083,-1.6083,-1.6083,-1.6083,-1.6083,-1.6083,-1.6083,-1.6083,-1.6083,-1.6083,-1.6083,-1.6083,-1.6083,-1.6083,-1.6083,-1.6083,-1.6083,-1.6083,-1.6171,-1.6246,-1.6246,-1.6191,-1.6144,-1.6144,-1.611,-1.6083,-1.6083,-1.6083,-1.6083,-1.6083,-1.6083,-1.6083,-1.6083,-1.6083,-1.6083,-1.6083,-1.6083,-1.6083,-1.6083,-1.6232,-1.6259,-1.6144,-1.6252,-1.6252,-1.6144,-1.6144,-1.6123,-1.6083,-1.6083,-1.6083,0.0,0.0,0.0,-1.1843,0.0,0.0,0.0,0.0,-1.4882,0.0,0.0,0.0,0.0,0.0,0.0,0.0,0.0,0.0,0.0,0.0,0.0,0.0,0.0,-1.282,-1.358,-1.2739,-1.2942,-1.4855,-1.4027,-1.4143,-1.5764,-1.5845,-1.571,-1.5418,-1.5404,-1.533,-1.5181,-1.5181,-1.5262,-1.5411,-1.5567,-1.5716,-1.5859,-1.6008,-1.6164,-1.6293,-1.6144,-1.6164,-1.6293,-1.6144,-1.6083,-1.6083,-1.6083,-1.6083,-1.6083,-1.6083,-1.6083,-1.6083,-1.6083,-1.6083,-1.6083,-1.6083,-1.6083,-1.6083,-1.6083,-1.6083,-1.6083,-1.6083,-1.6083,-1.6083,-1.6083,-1.6083,-1.6083,-1.6083,-1.6083,-1.6083,-1.6083,-1.6083,-1.6083,-1.6083,-1.6083,-1.609,-1.609,-1.6205,-1.63,-1.63,-1.6178,-1.6083,-1.6083,-1.6083,-1.6083,-1.6083,-1.6083,-1.6083,-1.6083,-1.6083,-1.6083,-1.6083,-1.6083,-1.6083,-1.6083,-1.6232,-1.6307,-1.63,-1.6307,-1.6307,-1.63,-1.63,-1.6225,-1.6083,-1.6083,-1.6083,-1.3498,-1.3641,-1.3607,-1.2603,-1.2393,-1.2326,-1.1913,0.0,0.0,0.0,0.0,0.0,0.0,0.0,0.0,0.0,0.0,0.0,0.0,0.0,-1.0656,0.0,0.0,0.0,0.0,0.0,-1.3532,-1.459,-1.4428,-1.4787,-1.594,-1.5906,-1.5805,-1.5703,-1.5615,-1.554,-1.5486,-1.5486,-1.556,-1.5703,-1.5757,-1.5859,-1.6008,-1.6164,-1.6259,-1.6307,-1.6252,-1.6313,-1.6435,-1.6293,-1.6232,-1.6232,-1.6232,-1.6171,-1.6083,-1.6083,-1.6083,-1.6083,-1.6083,-1.6083,-1.6083,-1.6083,-1.6083,-1.6083,-1.6083,-1.6083,-1.6083,-1.6083,-1.6083,-1.6083,-1.6083,-1.6083,-1.6083,-1.6083,-1.6083,-1.6083,-1.6083,-1.6083,-1.6083,-1.6083,-1.6164,-1.6259,-1.6354,-1.6415,-1.6381,-1.6191,-1.6117,-1.6117,-1.6218,-1.6144,-1.6123,-1.6225,-1.6144,-1.6083,-1.6083,-1.6083,-1.6083,-1.6083,-1.6083,-1.6083,-1.6083,-1.632,-1.6402,-1.6313,-1.6402,-1.6402,-1.6307,-1.6307,-1.6232,-1.6083,-1.6185,-1.6178,-1.364,-1.4119,-1.3933,-1.3098,-1.2888,-1.2644,-1.1694,-1.2408,-1.3428,0.0,0.0,0.0,0.0,0.0,0.0,0.0,0.0,0.0,0.0,-1.0507,0.0,0.0,0.0,0.0,0.0,0.0,-1.3125,-1.4414,-1.4306,-1.4713,-1.5934,-1.5961,-1.5906,-1.5852,-1.5764,-1.5689,-1.5642,-1.5642,-1.571,-1.5852,-1.5906,-1.6015,-1.6171,-1.632,-1.6415,-1.6463,-1.6408,-1.6469,-1.6592,-1.6442,-1.6354,-1.6307,-1.6307,-1.6218,-1.6083,-1.6083,-1.6083,-1.6083,-1.6083,-1.6083,-1.6083,-1.6083,-1.6083,-1.6083,-1.6083,-1.6083,-1.6083,-1.6083,-1.6083,-1.6096,-1.6151,-1.6164,-1.6178,-1.6225,-1.6239,-1.6225,-1.6171,-1.6164,-1.6144,-1.609,-1.6205,-1.6341,-1.6429,-1.649,-1.6456,-1.6266,-1.6198,-1.6178,-1.6225,-1.6144,-1.6123,-1.6218,-1.6191,-1.6164,-1.6164,-1.611,-1.6083,-1.6083,-1.6083,-1.6083,-1.6083,-1.6368,-1.6476,-1.6388,-1.6476,-1.6476,-1.6388,-1.6388,-1.6279,-1.609,-1.6293,-1.6279]}]]